Time,TemperatureF,DewpointF,PressureIn,WindDirection,WindDirectionDegrees,WindSpeedMPH,WindSpeedGustMPH,Humidity,HourlyPrecipIn,Conditions,Clouds,dailyrainin,SoftwareType,DateUTC
2013-05-24 00:00:00,62.3,56.1,30.17,NNE,19,0.0,0.0,80,0.00,,---,0.00,VWS V14.00,2013-05-24 05:00:00,
2013-05-24 00:01:00,62.3,56.1,30.17,NNE,19,0.0,0.0,80,0.00,,---,0.00,VWS V14.00,2013-05-24 05:01:00,
2013-05-24 00:02:00,62.3,56.1,30.17,NNE,19,0.0,0.0,80,0.00,,---,0.00,VWS V14.00,2013-05-24 05:02:00,
2013-05-24 00:03:00,62.1,55.9,30.17,NNE,19,0.0,0.0,80,0.00,,---,0.00,VWS V14.00,2013-05-24 05:03:00,
2013-05-24 00:04:00,62.1,55.9,30.17,NNE,19,0.0,0.0,80,0.00,,---,0.00,VWS V14.00,2013-05-24 05:04:00,
2013-05-24 00:05:00,62.0,55.8,30.17,NNE,19,0.0,0.0,80,0.00,,---,0.00,VWS V14.00,2013-05-24 05:05:00,
2013-05-24 00:06:00,62.1,55.9,30.17,NNE,19,0.0,0.0,80,0.00,,---,0.00,VWS V14.00,2013-05-24 05:06:00,
2013-05-24 00:07:00,62.0,56.1,30.17,NNE,19,0.0,0.0,81,0.00,,---,0.00,VWS V14.00,2013-05-24 05:07:00,
2013-05-24 00:08:00,62.0,56.1,30.17,NNE,19,0.0,0.0,81,0.00,,---,0.00,VWS V14.00,2013-05-24 05:08:00,
2013-05-24 00:09:00,62.0,56.5,30.18,NNE,19,0.0,0.0,82,0.00,,---,0.00,VWS V14.00,2013-05-24 05:09:00,
2013-05-24 00:10:00,61.8,56.2,30.18,NNE,19,0.0,0.0,82,0.00,,---,0.00,VWS V14.00,2013-05-24 05:10:00,
2013-05-24 00:11:00,62.0,56.5,30.18,NNE,19,0.0,0.0,82,0.00,,---,0.00,VWS V14.00,2013-05-24 05:11:00,
2013-05-24 00:12:00,61.8,56.2,30.18,NNE,19,0.0,0.0,82,0.00,,---,0.00,VWS V14.00,2013-05-24 05:12:00,
2013-05-24 00:13:00,61.8,56.2,30.18,NNE,19,0.0,0.0,82,0.00,,---,0.00,VWS V14.00,2013-05-24 05:13:00,
2013-05-24 00:14:00,61.8,56.2,30.18,NNE,19,0.0,0.0,82,0.00,,---,0.00,VWS V14.00,2013-05-24 05:14:00,
2013-05-24 00:15:00,61.8,56.2,30.18,NNE,19,0.0,0.0,82,0.00,,---,0.00,VWS V14.00,2013-05-24 05:15:00,
2013-05-24 00:16:00,61.8,56.2,30.18,NNE,19,0.0,0.0,82,0.00,,---,0.00,VWS V14.00,2013-05-24 05:16:00,
2013-05-24 00:17:00,61.8,56.2,30.18,NNE,19,0.0,3.0,82,0.00,,---,0.00,VWS V14.00,2013-05-24 05:17:00,
2013-05-24 00:18:00,61.8,56.2,30.17,NNE,19,0.0,0.0,82,0.00,,---,0.00,VWS V14.00,2013-05-24 05:18:00,
2013-05-24 00:19:00,61.8,56.2,30.18,NNE,19,3.0,4.0,82,0.00,,---,0.00,VWS V14.00,2013-05-24 05:19:00,
2013-05-24 00:20:00,61.8,56.2,30.17,NNE,19,0.0,3.0,82,0.00,,---,0.00,VWS V14.00,2013-05-24 05:20:00,
2013-05-24 00:21:00,61.8,56.2,30.18,NNE,19,3.0,3.0,82,0.00,,---,0.00,VWS V14.00,2013-05-24 05:21:00,
2013-05-24 00:22:00,61.8,55.9,30.18,NNE,19,2.0,2.0,81,0.00,,---,0.00,VWS V14.00,2013-05-24 05:22:00,
2013-05-24 00:23:00,61.8,55.9,30.18,NNE,19,0.0,3.0,81,0.00,,---,0.00,VWS V14.00,2013-05-24 05:23:00,
2013-05-24 00:24:00,61.8,55.9,30.18,NNE,19,2.0,4.0,81,0.00,,---,0.00,VWS V14.00,2013-05-24 05:24:00,
2013-05-24 00:25:00,61.8,55.9,30.18,NNE,19,0.0,4.0,81,0.00,,---,0.00,VWS V14.00,2013-05-24 05:25:00,
2013-05-24 00:26:00,61.8,55.9,30.18,NNE,19,2.0,4.0,81,0.00,,---,0.00,VWS V14.00,2013-05-24 05:26:00,
2013-05-24 00:27:00,62.0,56.1,30.18,NNE,19,0.0,4.0,81,0.00,,---,0.00,VWS V14.00,2013-05-24 05:27:00,
2013-05-24 00:28:00,62.0,56.1,30.18,NNE,19,4.0,7.0,81,0.00,,---,0.00,VWS V14.00,2013-05-24 05:28:00,
2013-05-24 00:29:00,62.0,56.1,30.18,North,360,5.0,7.0,81,0.00,,---,0.00,VWS V14.00,2013-05-24 05:29:00,
2013-05-24 00:30:00,62.0,56.1,30.18,North,350,5.0,6.0,81,0.00,,---,0.00,VWS V14.00,2013-05-24 05:30:00,
2013-05-24 00:31:00,62.0,56.1,30.18,North,351,4.0,6.0,81,0.00,,---,0.00,VWS V14.00,2013-05-24 05:31:00,
2013-05-24 00:32:00,62.0,55.8,30.18,North,351,2.0,3.0,80,0.00,,---,0.00,VWS V14.00,2013-05-24 05:32:00,
2013-05-24 00:33:00,62.0,55.8,30.18,North,355,4.0,7.0,80,0.00,,---,0.00,VWS V14.00,2013-05-24 05:33:00,
2013-05-24 00:34:00,62.0,55.8,30.18,North,355,3.0,4.0,80,0.00,,---,0.00,VWS V14.00,2013-05-24 05:34:00,
2013-05-24 00:35:00,62.0,55.8,30.18,North,355,2.0,4.0,80,0.00,,---,0.00,VWS V14.00,2013-05-24 05:35:00,
2013-05-24 00:36:00,62.0,55.8,30.18,North,355,3.0,4.0,80,0.00,,---,0.00,VWS V14.00,2013-05-24 05:36:00,
2013-05-24 00:37:00,62.0,55.8,30.18,North,355,4.0,5.0,80,0.00,,---,0.00,VWS V14.00,2013-05-24 05:37:00,
2013-05-24 00:38:00,62.0,55.8,30.18,North,355,0.0,5.0,80,0.00,,---,0.00,VWS V14.00,2013-05-24 05:38:00,
2013-05-24 00:39:00,62.0,55.8,30.18,North,355,0.0,0.0,80,0.00,,---,0.00,VWS V14.00,2013-05-24 05:39:00,
2013-05-24 00:40:00,62.0,55.8,30.18,North,355,0.0,0.0,80,0.00,,---,0.00,VWS V14.00,2013-05-24 05:40:00,
2013-05-24 00:41:00,62.0,55.8,30.18,North,355,0.0,0.0,80,0.00,,---,0.00,VWS V14.00,2013-05-24 05:41:00,
2013-05-24 00:42:00,62.0,55.8,30.19,North,355,0.0,3.0,80,0.00,,---,0.00,VWS V14.00,2013-05-24 05:42:00,
2013-05-24 00:43:00,62.0,55.8,30.19,North,355,1.0,4.0,80,0.00,,---,0.00,VWS V14.00,2013-05-24 05:43:00,
2013-05-24 00:44:00,62.0,55.8,30.19,North,355,2.0,3.0,80,0.00,,---,0.00,VWS V14.00,2013-05-24 05:44:00,
2013-05-24 00:45:00,62.0,55.8,30.19,North,355,0.0,2.0,80,0.00,,---,0.00,VWS V14.00,2013-05-24 05:45:00,
2013-05-24 00:46:00,62.0,55.8,30.19,North,355,0.0,2.0,80,0.00,,---,0.00,VWS V14.00,2013-05-24 05:46:00,
2013-05-24 00:47:00,62.0,55.8,30.19,North,355,0.0,0.0,80,0.00,,---,0.00,VWS V14.00,2013-05-24 05:47:00,
2013-05-24 00:48:00,62.0,55.8,30.19,North,355,0.0,0.0,80,0.00,,---,0.00,VWS V14.00,2013-05-24 05:48:00,
2013-05-24 00:49:00,62.0,55.8,30.19,North,355,1.0,1.0,80,0.00,,---,0.00,VWS V14.00,2013-05-24 05:49:00,
2013-05-24 00:50:00,62.0,55.8,30.19,North,355,0.0,1.0,80,0.00,,---,0.00,VWS V14.00,2013-05-24 05:50:00,
2013-05-24 00:51:00,62.0,55.8,30.19,North,355,0.0,1.0,80,0.00,,---,0.00,VWS V14.00,2013-05-24 05:51:00,
2013-05-24 00:52:00,62.0,55.8,30.19,North,355,0.0,4.0,80,0.00,,---,0.00,VWS V14.00,2013-05-24 05:52:00,
2013-05-24 00:53:00,62.0,55.8,30.19,North,355,1.0,1.0,80,0.00,,---,0.00,VWS V14.00,2013-05-24 05:53:00,
2013-05-24 00:54:00,61.8,55.6,30.19,North,355,0.0,3.0,80,0.00,,---,0.00,VWS V14.00,2013-05-24 05:54:00,
2013-05-24 00:55:00,61.8,55.6,30.19,North,355,0.0,0.0,80,0.00,,---,0.00,VWS V14.00,2013-05-24 05:55:00,
2013-05-24 00:56:00,61.8,55.6,30.19,North,355,0.0,0.0,80,0.00,,---,0.00,VWS V14.00,2013-05-24 05:56:00,
2013-05-24 00:57:00,61.8,55.6,30.19,North,355,2.0,3.0,80,0.00,,---,0.00,VWS V14.00,2013-05-24 05:57:00,
2013-05-24 00:58:00,61.8,55.6,30.19,North,355,0.0,3.0,80,0.00,,---,0.00,VWS V14.00,2013-05-24 05:58:00,
2013-05-24 00:59:00,61.8,55.6,30.19,North,355,2.0,3.0,80,0.00,,---,0.00,VWS V14.00,2013-05-24 05:59:00,
2013-05-24 01:00:00,61.8,55.6,30.19,North,355,3.0,3.0,80,0.00,,---,0.00,VWS V14.00,2013-05-24 06:00:00,
2013-05-24 01:01:00,61.8,55.6,30.19,North,355,1.0,3.0,80,0.00,,---,0.00,VWS V14.00,2013-05-24 06:01:00,
2013-05-24 01:02:00,61.8,55.6,30.18,North,355,0.0,0.0,80,0.00,,---,0.00,VWS V14.00,2013-05-24 06:02:00,
2013-05-24 01:03:00,61.8,55.6,30.18,North,355,2.0,4.0,80,0.00,,---,0.00,VWS V14.00,2013-05-24 06:03:00,
2013-05-24 01:04:00,61.8,55.6,30.18,North,355,0.0,4.0,80,0.00,,---,0.00,VWS V14.00,2013-05-24 06:04:00,
2013-05-24 01:05:00,61.8,55.6,30.18,North,355,1.0,2.0,80,0.00,,---,0.00,VWS V14.00,2013-05-24 06:05:00,
2013-05-24 01:06:00,61.8,55.6,30.18,North,355,0.0,0.0,80,0.00,,---,0.00,VWS V14.00,2013-05-24 06:06:00,
2013-05-24 01:07:00,61.6,55.4,30.18,North,355,1.0,3.0,80,0.00,,---,0.00,VWS V14.00,2013-05-24 06:07:00,
2013-05-24 01:08:00,61.6,55.4,30.18,North,355,2.0,2.0,80,0.00,,---,0.00,VWS V14.00,2013-05-24 06:08:00,
2013-05-24 01:09:00,61.6,55.4,30.18,North,355,0.0,4.0,80,0.00,,---,0.00,VWS V14.00,2013-05-24 06:09:00,
2013-05-24 01:10:00,61.6,55.4,30.18,North,355,2.0,3.0,80,0.00,,---,0.00,VWS V14.00,2013-05-24 06:10:00,
2013-05-24 01:11:00,61.6,55.4,30.18,North,355,0.0,0.0,80,0.00,,---,0.00,VWS V14.00,2013-05-24 06:11:00,
2013-05-24 01:12:00,61.6,55.4,30.18,North,355,0.0,0.0,80,0.00,,---,0.00,VWS V14.00,2013-05-24 06:12:00,
2013-05-24 01:13:00,61.6,55.4,30.18,North,355,0.0,0.0,80,0.00,,---,0.00,VWS V14.00,2013-05-24 06:13:00,
2013-05-24 01:15:00,61.5,55.3,30.18,North,355,0.0,0.0,80,0.00,,---,0.00,VWS V14.00,2013-05-24 06:15:00,
2013-05-24 01:16:00,61.5,55.3,30.18,North,355,0.0,0.0,80,0.00,,---,0.00,VWS V14.00,2013-05-24 06:16:00,
2013-05-24 01:17:00,61.5,55.3,30.18,North,355,0.0,2.0,80,0.00,,---,0.00,VWS V14.00,2013-05-24 06:17:00,
2013-05-24 01:18:00,61.5,55.3,30.18,North,350,2.0,7.0,80,0.00,,---,0.00,VWS V14.00,2013-05-24 06:18:00,
2013-05-24 01:19:00,61.5,55.3,30.18,North,360,3.0,6.0,80,0.00,,---,0.00,VWS V14.00,2013-05-24 06:19:00,
2013-05-24 01:20:00,61.5,55.3,30.18,North,360,3.0,7.0,80,0.00,,---,0.00,VWS V14.00,2013-05-24 06:20:00,
2013-05-24 01:21:00,61.5,55.3,30.18,North,360,4.0,7.0,80,0.00,,---,0.00,VWS V14.00,2013-05-24 06:21:00,
2013-05-24 01:22:00,61.3,55.1,30.18,North,5,1.0,7.0,80,0.00,,---,0.00,VWS V14.00,2013-05-24 06:22:00,
2013-05-24 01:23:00,61.3,55.1,30.18,North,5,0.0,4.0,80,0.00,,---,0.00,VWS V14.00,2013-05-24 06:23:00,
2013-05-24 01:24:00,61.3,55.1,30.18,North,5,3.0,3.0,80,0.00,,---,0.00,VWS V14.00,2013-05-24 06:24:00,
2013-05-24 01:25:00,61.3,55.1,30.18,North,5,4.0,5.0,80,0.00,,---,0.00,VWS V14.00,2013-05-24 06:25:00,
2013-05-24 01:26:00,61.3,55.1,30.18,North,5,1.0,5.0,80,0.00,,---,0.00,VWS V14.00,2013-05-24 06:26:00,
2013-05-24 01:27:00,61.3,55.1,30.18,North,5,2.0,5.0,80,0.00,,---,0.00,VWS V14.00,2013-05-24 06:27:00,
2013-05-24 01:28:00,61.3,55.1,30.18,North,5,1.0,2.0,80,0.00,,---,0.00,VWS V14.00,2013-05-24 06:28:00,
2013-05-24 01:29:00,61.2,55.0,30.18,North,5,0.0,4.0,80,0.00,,---,0.00,VWS V14.00,2013-05-24 06:29:00,
2013-05-24 01:30:00,61.2,55.0,30.18,North,5,1.0,3.0,80,0.00,,---,0.00,VWS V14.00,2013-05-24 06:30:00,
2013-05-24 01:31:00,61.2,55.0,30.18,North,5,0.0,0.0,80,0.00,,---,0.00,VWS V14.00,2013-05-24 06:31:00,
2013-05-24 01:32:00,61.2,55.0,30.18,North,5,1.0,1.0,80,0.00,,---,0.00,VWS V14.00,2013-05-24 06:32:00,
2013-05-24 01:33:00,61.2,55.3,30.18,North,5,0.0,1.0,81,0.00,,---,0.00,VWS V14.00,2013-05-24 06:33:00,
2013-05-24 01:34:00,61.2,55.0,30.18,North,5,0.0,0.0,80,0.00,,---,0.00,VWS V14.00,2013-05-24 06:34:00,
2013-05-24 01:35:00,61.2,55.0,30.18,North,5,0.0,0.0,80,0.00,,---,0.00,VWS V14.00,2013-05-24 06:35:00,
2013-05-24 01:36:00,61.2,55.0,30.18,North,5,0.0,0.0,80,0.00,,---,0.00,VWS V14.00,2013-05-24 06:36:00,
2013-05-24 01:37:00,61.2,55.3,30.18,North,5,0.0,0.0,81,0.00,,---,0.00,VWS V14.00,2013-05-24 06:37:00,
2013-05-24 01:38:00,61.0,55.1,30.18,North,5,0.0,0.0,81,0.00,,---,0.00,VWS V14.00,2013-05-24 06:38:00,
2013-05-24 01:39:00,61.0,55.1,30.18,North,5,0.0,0.0,81,0.00,,---,0.00,VWS V14.00,2013-05-24 06:39:00,
2013-05-24 01:40:00,61.0,55.1,30.17,North,5,0.0,0.0,81,0.00,,---,0.00,VWS V14.00,2013-05-24 06:40:00,
2013-05-24 01:41:00,61.0,55.1,30.18,North,5,0.0,0.0,81,0.00,,---,0.00,VWS V14.00,2013-05-24 06:41:00,
2013-05-24 01:42:00,61.0,54.8,30.17,North,5,0.0,1.0,80,0.00,,---,0.00,VWS V14.00,2013-05-24 06:42:00,
2013-05-24 01:43:00,60.9,55.0,30.17,North,5,0.0,0.0,81,0.00,,---,0.00,VWS V14.00,2013-05-24 06:43:00,
2013-05-24 01:44:00,60.9,55.0,30.17,North,5,0.0,0.0,81,0.00,,---,0.00,VWS V14.00,2013-05-24 06:44:00,
2013-05-24 01:45:00,60.9,55.0,30.17,North,5,0.0,0.0,81,0.00,,---,0.00,VWS V14.00,2013-05-24 06:45:00,
2013-05-24 01:46:00,60.9,55.0,30.17,North,5,0.0,0.0,81,0.00,,---,0.00,VWS V14.00,2013-05-24 06:46:00,
2013-05-24 01:47:00,60.7,54.8,30.17,North,5,0.0,0.0,81,0.00,,---,0.00,VWS V14.00,2013-05-24 06:47:00,
2013-05-24 01:48:00,60.7,54.8,30.17,North,5,0.0,0.0,81,0.00,,---,0.00,VWS V14.00,2013-05-24 06:48:00,
2013-05-24 01:49:00,60.7,54.8,30.17,North,5,0.0,0.0,81,0.00,,---,0.00,VWS V14.00,2013-05-24 06:49:00,
2013-05-24 01:50:00,60.7,54.8,30.17,North,5,0.0,0.0,81,0.00,,---,0.00,VWS V14.00,2013-05-24 06:50:00,
2013-05-24 01:51:00,60.7,54.8,30.17,North,5,0.0,0.0,81,0.00,,---,0.00,VWS V14.00,2013-05-24 06:51:00,
2013-05-24 01:52:00,60.7,54.8,30.17,North,5,0.0,3.0,81,0.00,,---,0.00,VWS V14.00,2013-05-24 06:52:00,
2013-05-24 01:53:00,60.7,54.8,30.17,North,5,1.0,2.0,81,0.00,,---,0.00,VWS V14.00,2013-05-24 06:53:00,
2013-05-24 01:54:00,60.7,54.8,30.17,North,5,1.0,2.0,81,0.00,,---,0.00,VWS V14.00,2013-05-24 06:54:00,
2013-05-24 01:55:00,60.7,54.8,30.17,North,5,0.0,2.0,81,0.00,,---,0.00,VWS V14.00,2013-05-24 06:55:00,
2013-05-24 01:56:00,60.7,54.8,30.17,North,5,1.0,2.0,81,0.00,,---,0.00,VWS V14.00,2013-05-24 06:56:00,
2013-05-24 01:57:00,60.7,54.8,30.18,North,5,0.0,1.0,81,0.00,,---,0.00,VWS V14.00,2013-05-24 06:57:00,
2013-05-24 01:58:00,60.7,54.8,30.18,North,5,1.0,3.0,81,0.00,,---,0.00,VWS V14.00,2013-05-24 06:58:00,
2013-05-24 01:59:00,60.5,54.7,30.18,North,5,0.0,1.0,81,0.00,,---,0.00,VWS V14.00,2013-05-24 06:59:00,
2013-05-24 02:00:00,60.5,54.7,30.18,North,5,0.0,0.0,81,0.00,,---,0.00,VWS V14.00,2013-05-24 07:00:00,
2013-05-24 02:01:00,60.5,54.7,30.18,North,5,0.0,0.0,81,0.00,,---,0.00,VWS V14.00,2013-05-24 07:01:00,
2013-05-24 02:02:00,60.5,54.7,30.18,North,5,0.0,0.0,81,0.00,,---,0.00,VWS V14.00,2013-05-24 07:02:00,
2013-05-24 02:03:00,60.5,54.7,30.18,North,5,0.0,0.0,81,0.00,,---,0.00,VWS V14.00,2013-05-24 07:03:00,
2013-05-24 02:04:00,60.5,54.7,30.18,North,5,0.0,0.0,81,0.00,,---,0.00,VWS V14.00,2013-05-24 07:04:00,
2013-05-24 02:05:00,60.5,54.7,30.18,North,5,0.0,0.0,81,0.00,,---,0.00,VWS V14.00,2013-05-24 07:05:00,
2013-05-24 02:06:00,60.5,54.7,30.18,North,5,0.0,0.0,81,0.00,,---,0.00,VWS V14.00,2013-05-24 07:06:00,
2013-05-24 02:07:00,60.5,54.7,30.18,North,5,0.0,0.0,81,0.00,,---,0.00,VWS V14.00,2013-05-24 07:07:00,
2013-05-24 02:08:00,60.5,54.7,30.18,North,5,0.0,0.0,81,0.00,,---,0.00,VWS V14.00,2013-05-24 07:08:00,
2013-05-24 02:09:00,60.5,54.7,30.18,North,5,0.0,0.0,81,0.00,,---,0.00,VWS V14.00,2013-05-24 07:09:00,
2013-05-24 02:10:00,60.5,54.7,30.18,North,5,0.0,0.0,81,0.00,,---,0.00,VWS V14.00,2013-05-24 07:10:00,
2013-05-24 02:11:00,60.5,54.7,30.18,North,5,0.0,0.0,81,0.00,,---,0.00,VWS V14.00,2013-05-24 07:11:00,
2013-05-24 02:12:00,60.4,54.5,30.19,North,5,0.0,0.0,81,0.00,,---,0.00,VWS V14.00,2013-05-24 07:12:00,
2013-05-24 02:13:00,60.4,54.5,30.19,North,5,0.0,0.0,81,0.00,,---,0.00,VWS V14.00,2013-05-24 07:13:00,
2013-05-24 02:14:00,60.2,54.4,30.19,North,5,0.0,0.0,81,0.00,,---,0.00,VWS V14.00,2013-05-24 07:14:00,
2013-05-24 02:15:00,60.2,54.4,30.19,North,5,0.0,0.0,81,0.00,,---,0.00,VWS V14.00,2013-05-24 07:15:00,
2013-05-24 02:16:00,60.2,54.4,30.19,North,5,0.0,0.0,81,0.00,,---,0.00,VWS V14.00,2013-05-24 07:16:00,
2013-05-24 02:17:00,60.2,54.4,30.19,North,5,0.0,0.0,81,0.00,,---,0.00,VWS V14.00,2013-05-24 07:17:00,
2013-05-24 02:18:00,60.2,54.4,30.19,North,5,0.0,0.0,81,0.00,,---,0.00,VWS V14.00,2013-05-24 07:18:00,
2013-05-24 02:19:00,60.1,54.3,30.19,North,5,1.0,1.0,81,0.00,,---,0.00,VWS V14.00,2013-05-24 07:19:00,
2013-05-24 02:20:00,60.1,54.3,30.19,North,5,0.0,2.0,81,0.00,,---,0.00,VWS V14.00,2013-05-24 07:20:00,
2013-05-24 02:21:00,60.1,54.3,30.19,North,5,0.0,2.0,81,0.00,,---,0.00,VWS V14.00,2013-05-24 07:21:00,
2013-05-24 02:22:00,60.1,54.6,30.19,North,5,0.0,0.0,82,0.00,,---,0.00,VWS V14.00,2013-05-24 07:22:00,
2013-05-24 02:23:00,60.1,54.6,30.19,North,5,0.0,0.0,82,0.00,,---,0.00,VWS V14.00,2013-05-24 07:23:00,
2013-05-24 02:24:00,60.1,54.6,30.19,North,5,1.0,3.0,82,0.00,,---,0.00,VWS V14.00,2013-05-24 07:24:00,
2013-05-24 02:25:00,60.1,54.6,30.19,North,5,0.0,2.0,82,0.00,,---,0.00,VWS V14.00,2013-05-24 07:25:00,
2013-05-24 02:26:00,60.1,54.6,30.19,North,5,0.0,2.0,82,0.00,,---,0.00,VWS V14.00,2013-05-24 07:26:00,
2013-05-24 02:27:00,60.1,54.6,30.19,North,5,1.0,1.0,82,0.00,,---,0.00,VWS V14.00,2013-05-24 07:27:00,
2013-05-24 02:28:00,59.9,54.4,30.19,North,5,0.0,2.0,82,0.00,,---,0.00,VWS V14.00,2013-05-24 07:28:00,
2013-05-24 02:29:00,59.9,54.4,30.19,North,5,1.0,1.0,82,0.00,,---,0.00,VWS V14.00,2013-05-24 07:29:00,
2013-05-24 02:30:00,59.9,54.4,30.19,North,5,0.0,1.0,82,0.00,,---,0.00,VWS V14.00,2013-05-24 07:30:00,
2013-05-24 02:31:00,59.9,54.4,30.19,North,5,0.0,1.0,82,0.00,,---,0.00,VWS V14.00,2013-05-24 07:31:00,
2013-05-24 02:32:00,59.9,54.4,30.19,North,5,0.0,0.0,82,0.00,,---,0.00,VWS V14.00,2013-05-24 07:32:00,
2013-05-24 02:33:00,59.9,54.4,30.18,North,5,0.0,0.0,82,0.00,,---,0.00,VWS V14.00,2013-05-24 07:33:00,
2013-05-24 02:34:00,59.9,54.4,30.19,North,5,0.0,3.0,82,0.00,,---,0.00,VWS V14.00,2013-05-24 07:34:00,
2013-05-24 02:35:00,59.8,54.3,30.18,North,5,0.0,0.0,82,0.00,,---,0.00,VWS V14.00,2013-05-24 07:35:00,
2013-05-24 02:36:00,59.8,54.3,30.19,North,5,0.0,0.0,82,0.00,,---,0.00,VWS V14.00,2013-05-24 07:36:00,
2013-05-24 02:37:00,59.8,54.3,30.19,North,5,0.0,0.0,82,0.00,,---,0.00,VWS V14.00,2013-05-24 07:37:00,
2013-05-24 02:38:00,59.8,54.3,30.19,North,5,0.0,0.0,82,0.00,,---,0.00,VWS V14.00,2013-05-24 07:38:00,
2013-05-24 02:39:00,59.8,54.3,30.18,North,5,1.0,3.0,82,0.00,,---,0.00,VWS V14.00,2013-05-24 07:39:00,
2013-05-24 02:40:00,59.8,54.3,30.18,North,5,0.0,1.0,82,0.00,,---,0.00,VWS V14.00,2013-05-24 07:40:00,
2013-05-24 02:41:00,59.8,54.3,30.18,North,5,0.0,1.0,82,0.00,,---,0.00,VWS V14.00,2013-05-24 07:41:00,
2013-05-24 02:42:00,59.8,54.3,30.18,North,5,0.0,2.0,82,0.00,,---,0.00,VWS V14.00,2013-05-24 07:42:00,
2013-05-24 02:43:00,59.8,54.3,30.18,North,5,1.0,1.0,82,0.00,,---,0.00,VWS V14.00,2013-05-24 07:43:00,
2013-05-24 02:44:00,59.8,54.3,30.18,North,5,2.0,2.0,82,0.00,,---,0.00,VWS V14.00,2013-05-24 07:44:00,
2013-05-24 02:45:00,59.8,54.3,30.18,North,5,1.0,2.0,82,0.00,,---,0.00,VWS V14.00,2013-05-24 07:45:00,
2013-05-24 02:46:00,59.8,54.3,30.18,North,5,0.0,2.0,82,0.00,,---,0.00,VWS V14.00,2013-05-24 07:46:00,
2013-05-24 02:47:00,59.6,54.1,30.18,North,5,0.0,2.0,82,0.00,,---,0.00,VWS V14.00,2013-05-24 07:47:00,
2013-05-24 02:48:00,59.6,54.1,30.18,North,5,1.0,2.0,82,0.00,,---,0.00,VWS V14.00,2013-05-24 07:48:00,
2013-05-24 02:49:00,59.6,54.1,30.18,North,5,0.0,3.0,82,0.00,,---,0.00,VWS V14.00,2013-05-24 07:49:00,
2013-05-24 02:50:00,59.6,54.1,30.18,North,5,0.0,2.0,82,0.00,,---,0.00,VWS V14.00,2013-05-24 07:50:00,
2013-05-24 02:51:00,59.6,54.1,30.18,North,5,0.0,0.0,82,0.00,,---,0.00,VWS V14.00,2013-05-24 07:51:00,
2013-05-24 02:52:00,59.6,54.4,30.18,North,5,2.0,2.0,83,0.00,,---,0.00,VWS V14.00,2013-05-24 07:52:00,
2013-05-24 02:53:00,59.6,54.4,30.18,North,5,2.0,3.0,83,0.00,,---,0.00,VWS V14.00,2013-05-24 07:53:00,
2013-05-24 02:54:00,59.6,54.1,30.18,North,5,0.0,3.0,82,0.00,,---,0.00,VWS V14.00,2013-05-24 07:54:00,
2013-05-24 02:55:00,59.5,54.0,30.18,North,5,0.0,0.0,82,0.00,,---,0.00,VWS V14.00,2013-05-24 07:55:00,
2013-05-24 02:56:00,59.6,54.1,30.18,North,5,0.0,0.0,82,0.00,,---,0.00,VWS V14.00,2013-05-24 07:56:00,
2013-05-24 02:57:00,59.5,54.0,30.18,North,5,0.0,3.0,82,0.00,,---,0.00,VWS V14.00,2013-05-24 07:57:00,
2013-05-24 02:58:00,59.5,54.0,30.18,North,5,2.0,2.0,82,0.00,,---,0.00,VWS V14.00,2013-05-24 07:58:00,
2013-05-24 02:59:00,59.5,54.0,30.18,North,5,0.0,2.0,82,0.00,,---,0.00,VWS V14.00,2013-05-24 07:59:00,
2013-05-24 03:00:00,59.5,54.0,30.18,North,5,0.0,0.0,82,0.00,,---,0.00,VWS V14.00,2013-05-24 08:00:00,
2013-05-24 03:01:00,59.5,54.0,30.18,North,5,0.0,0.0,82,0.00,,---,0.00,VWS V14.00,2013-05-24 08:01:00,
2013-05-24 03:02:00,59.3,53.8,30.18,North,5,0.0,0.0,82,0.00,,---,0.00,VWS V14.00,2013-05-24 08:02:00,
2013-05-24 03:03:00,59.3,53.8,30.18,North,5,0.0,0.0,82,0.00,,---,0.00,VWS V14.00,2013-05-24 08:03:00,
2013-05-24 03:04:00,59.3,53.8,30.19,North,5,0.0,0.0,82,0.00,,---,0.00,VWS V14.00,2013-05-24 08:04:00,
2013-05-24 03:05:00,59.3,53.8,30.19,North,5,0.0,0.0,82,0.00,,---,0.00,VWS V14.00,2013-05-24 08:05:00,
2013-05-24 03:06:00,59.3,53.8,30.19,North,5,0.0,0.0,82,0.00,,---,0.00,VWS V14.00,2013-05-24 08:06:00,
2013-05-24 03:07:00,59.3,54.2,30.19,North,5,0.0,0.0,83,0.00,,---,0.00,VWS V14.00,2013-05-24 08:07:00,
2013-05-24 03:08:00,59.3,54.2,30.19,North,5,0.0,0.0,83,0.00,,---,0.00,VWS V14.00,2013-05-24 08:08:00,
2013-05-24 03:09:00,59.3,54.2,30.19,North,5,0.0,2.0,83,0.00,,---,0.00,VWS V14.00,2013-05-24 08:09:00,
2013-05-24 03:10:00,59.3,54.2,30.19,North,5,0.0,0.0,83,0.00,,---,0.00,VWS V14.00,2013-05-24 08:10:00,
2013-05-24 03:11:00,59.3,54.2,30.19,North,5,0.0,0.0,83,0.00,,---,0.00,VWS V14.00,2013-05-24 08:11:00,
2013-05-24 03:12:00,59.3,54.2,30.19,North,5,2.0,4.0,83,0.00,,---,0.00,VWS V14.00,2013-05-24 08:12:00,
2013-05-24 03:13:00,59.3,54.2,30.19,North,5,0.0,3.0,83,0.00,,---,0.00,VWS V14.00,2013-05-24 08:13:00,
2013-05-24 03:14:00,59.3,54.2,30.19,North,5,0.0,1.0,83,0.00,,---,0.00,VWS V14.00,2013-05-24 08:14:00,
2013-05-24 03:15:00,59.3,54.2,30.19,North,5,1.0,1.0,83,0.00,,---,0.00,VWS V14.00,2013-05-24 08:15:00,
2013-05-24 03:16:00,59.3,54.2,30.19,North,5,0.0,0.0,83,0.00,,---,0.00,VWS V14.00,2013-05-24 08:16:00,
2013-05-24 03:17:00,59.3,54.2,30.19,North,5,1.0,3.0,83,0.00,,---,0.00,VWS V14.00,2013-05-24 08:17:00,
2013-05-24 03:18:00,59.3,54.2,30.19,North,5,1.0,2.0,83,0.00,,---,0.00,VWS V14.00,2013-05-24 08:18:00,
2013-05-24 03:19:00,59.3,54.2,30.19,North,5,0.0,3.0,83,0.00,,---,0.00,VWS V14.00,2013-05-24 08:19:00,
2013-05-24 03:20:00,59.3,54.2,30.19,North,5,4.0,4.0,83,0.00,,---,0.00,VWS V14.00,2013-05-24 08:20:00,
2013-05-24 03:21:00,59.3,54.2,30.19,North,5,1.0,1.0,83,0.00,,---,0.00,VWS V14.00,2013-05-24 08:21:00,
2013-05-24 03:22:00,59.2,54.0,30.19,North,5,0.0,0.0,83,0.00,,---,0.00,VWS V14.00,2013-05-24 08:22:00,
2013-05-24 03:23:00,59.2,54.0,30.19,North,5,0.0,0.0,83,0.00,,---,0.00,VWS V14.00,2013-05-24 08:23:00,
2013-05-24 03:24:00,59.2,54.0,30.19,North,5,0.0,0.0,83,0.00,,---,0.00,VWS V14.00,2013-05-24 08:24:00,
2013-05-24 03:25:00,59.2,54.0,30.19,North,5,0.0,0.0,83,0.00,,---,0.00,VWS V14.00,2013-05-24 08:25:00,
2013-05-24 03:26:00,59.2,54.0,30.19,North,5,0.0,0.0,83,0.00,,---,0.00,VWS V14.00,2013-05-24 08:26:00,
2013-05-24 03:27:00,59.2,54.4,30.19,North,5,2.0,2.0,84,0.00,,---,0.00,VWS V14.00,2013-05-24 08:27:00,
2013-05-24 03:28:00,59.0,54.2,30.19,North,5,1.0,2.0,84,0.00,,---,0.00,VWS V14.00,2013-05-24 08:28:00,
2013-05-24 03:29:00,59.0,53.8,30.19,North,5,0.0,2.0,83,0.00,,---,0.00,VWS V14.00,2013-05-24 08:29:00,
2013-05-24 03:30:00,59.0,53.8,30.19,North,5,0.0,1.0,83,0.00,,---,0.00,VWS V14.00,2013-05-24 08:30:00,
2013-05-24 03:31:00,59.0,53.8,30.19,North,5,0.0,0.0,83,0.00,,---,0.00,VWS V14.00,2013-05-24 08:31:00,
2013-05-24 03:32:00,59.0,54.2,30.19,North,5,0.0,0.0,84,0.00,,---,0.00,VWS V14.00,2013-05-24 08:32:00,
2013-05-24 03:33:00,58.9,54.1,30.19,North,5,1.0,2.0,84,0.00,,---,0.00,VWS V14.00,2013-05-24 08:33:00,
2013-05-24 03:34:00,58.9,54.1,30.19,North,5,0.0,1.0,84,0.00,,---,0.00,VWS V14.00,2013-05-24 08:34:00,
2013-05-24 03:35:00,58.9,54.1,30.19,North,5,1.0,2.0,84,0.00,,---,0.00,VWS V14.00,2013-05-24 08:35:00,
2013-05-24 03:36:00,58.9,54.1,30.19,North,5,0.0,0.0,84,0.00,,---,0.00,VWS V14.00,2013-05-24 08:36:00,
2013-05-24 03:37:00,58.9,54.1,30.19,North,5,0.0,1.0,84,0.00,,---,0.00,VWS V14.00,2013-05-24 08:37:00,
2013-05-24 03:38:00,58.9,54.1,30.19,North,5,0.0,0.0,84,0.00,,---,0.00,VWS V14.00,2013-05-24 08:38:00,
2013-05-24 03:39:00,58.9,54.1,30.19,North,5,0.0,2.0,84,0.00,,---,0.00,VWS V14.00,2013-05-24 08:39:00,
2013-05-24 03:40:00,58.9,54.1,30.19,North,5,0.0,0.0,84,0.00,,---,0.00,VWS V14.00,2013-05-24 08:40:00,
2013-05-24 03:41:00,58.9,54.1,30.19,North,5,0.0,0.0,84,0.00,,---,0.00,VWS V14.00,2013-05-24 08:41:00,
2013-05-24 03:42:00,58.9,54.1,30.19,North,5,2.0,3.0,84,0.00,,---,0.00,VWS V14.00,2013-05-24 08:42:00,
2013-05-24 03:43:00,58.7,53.9,30.19,North,5,0.0,2.0,84,0.00,,---,0.00,VWS V14.00,2013-05-24 08:43:00,
2013-05-24 03:44:00,58.7,53.9,30.19,North,5,0.0,0.0,84,0.00,,---,0.00,VWS V14.00,2013-05-24 08:44:00,
2013-05-24 03:45:00,58.7,53.9,30.19,North,5,0.0,0.0,84,0.00,,---,0.00,VWS V14.00,2013-05-24 08:45:00,
2013-05-24 03:46:00,58.7,53.9,30.19,North,5,0.0,0.0,84,0.00,,---,0.00,VWS V14.00,2013-05-24 08:46:00,
2013-05-24 03:47:00,58.7,53.9,30.19,North,5,1.0,2.0,84,0.00,,---,0.00,VWS V14.00,2013-05-24 08:47:00,
2013-05-24 03:48:00,58.7,53.9,30.19,North,5,0.0,3.0,84,0.00,,---,0.00,VWS V14.00,2013-05-24 08:48:00,
2013-05-24 03:49:00,58.6,53.8,30.19,North,5,3.0,3.0,84,0.00,,---,0.00,VWS V14.00,2013-05-24 08:49:00,
2013-05-24 03:50:00,58.6,53.8,30.19,North,5,0.0,3.0,84,0.00,,---,0.00,VWS V14.00,2013-05-24 08:50:00,
2013-05-24 03:51:00,58.6,53.8,30.19,North,5,3.0,3.0,84,0.00,,---,0.00,VWS V14.00,2013-05-24 08:51:00,
2013-05-24 03:52:00,58.6,53.5,30.19,North,5,0.0,3.0,83,0.00,,---,0.00,VWS V14.00,2013-05-24 08:52:00,
2013-05-24 03:53:00,58.6,53.5,30.19,North,5,0.0,0.0,83,0.00,,---,0.00,VWS V14.00,2013-05-24 08:53:00,
2013-05-24 03:54:00,58.6,53.5,30.19,North,5,0.0,4.0,83,0.00,,---,0.00,VWS V14.00,2013-05-24 08:54:00,
2013-05-24 03:55:00,58.6,53.8,30.19,North,5,0.0,3.0,84,0.00,,---,0.00,VWS V14.00,2013-05-24 08:55:00,
2013-05-24 03:56:00,58.6,53.8,30.19,North,5,0.0,0.0,84,0.00,,---,0.00,VWS V14.00,2013-05-24 08:56:00,
2013-05-24 03:57:00,58.4,53.3,30.19,North,5,0.0,0.0,83,0.00,,---,0.00,VWS V14.00,2013-05-24 08:57:00,
2013-05-24 03:58:00,58.4,53.6,30.19,North,5,1.0,4.0,84,0.00,,---,0.00,VWS V14.00,2013-05-24 08:58:00,
2013-05-24 03:59:00,58.4,53.6,30.20,North,5,2.0,2.0,84,0.00,,---,0.00,VWS V14.00,2013-05-24 08:59:00,
2013-05-24 04:00:00,58.4,53.6,30.20,North,5,0.0,2.0,84,0.00,,---,0.00,VWS V14.00,2013-05-24 09:00:00,
2013-05-24 04:01:00,58.4,53.6,30.20,North,5,1.0,2.0,84,0.00,,---,0.00,VWS V14.00,2013-05-24 09:01:00,
2013-05-24 04:02:00,58.4,53.6,30.20,North,5,1.0,3.0,84,0.00,,---,0.00,VWS V14.00,2013-05-24 09:02:00,
2013-05-24 04:03:00,58.4,53.6,30.20,North,5,0.0,2.0,84,0.00,,---,0.00,VWS V14.00,2013-05-24 09:03:00,
2013-05-24 04:04:00,58.4,53.6,30.20,North,5,0.0,0.0,84,0.00,,---,0.00,VWS V14.00,2013-05-24 09:04:00,
2013-05-24 04:05:00,58.4,53.6,30.20,North,5,1.0,2.0,84,0.00,,---,0.00,VWS V14.00,2013-05-24 09:05:00,
2013-05-24 04:06:00,58.4,53.6,30.20,North,5,0.0,2.0,84,0.00,,---,0.00,VWS V14.00,2013-05-24 09:06:00,
2013-05-24 04:07:00,58.4,53.6,30.20,North,5,0.0,0.0,84,0.00,,---,0.00,VWS V14.00,2013-05-24 09:07:00,
2013-05-24 04:08:00,58.3,53.5,30.20,North,5,2.0,2.0,84,0.00,,---,0.00,VWS V14.00,2013-05-24 09:08:00,
2013-05-24 04:09:00,58.4,53.6,30.20,North,5,0.0,3.0,84,0.00,,---,0.00,VWS V14.00,2013-05-24 09:09:00,
2013-05-24 04:10:00,58.3,53.5,30.20,North,5,3.0,3.0,84,0.00,,---,0.00,VWS V14.00,2013-05-24 09:10:00,
2013-05-24 04:11:00,58.3,53.5,30.20,North,5,0.0,0.0,84,0.00,,---,0.00,VWS V14.00,2013-05-24 09:11:00,
2013-05-24 04:12:00,58.3,53.5,30.20,North,5,1.0,3.0,84,0.00,,---,0.00,VWS V14.00,2013-05-24 09:12:00,
2013-05-24 04:13:00,58.3,53.5,30.20,North,5,0.0,2.0,84,0.00,,---,0.00,VWS V14.00,2013-05-24 09:13:00,
2013-05-24 04:14:00,58.3,53.5,30.20,North,5,2.0,2.0,84,0.00,,---,0.00,VWS V14.00,2013-05-24 09:14:00,
2013-05-24 04:15:00,58.3,53.5,30.20,North,5,0.0,6.0,84,0.00,,---,0.00,VWS V14.00,2013-05-24 09:15:00,
2013-05-24 04:16:00,58.3,53.5,30.20,North,5,3.0,3.0,84,0.00,,---,0.00,VWS V14.00,2013-05-24 09:16:00,
2013-05-24 04:17:00,58.3,53.5,30.20,North,5,2.0,2.0,84,0.00,,---,0.00,VWS V14.00,2013-05-24 09:17:00,
2013-05-24 04:18:00,58.3,53.5,30.20,North,5,0.0,2.0,84,0.00,,---,0.00,VWS V14.00,2013-05-24 09:18:00,
2013-05-24 04:19:00,58.3,53.5,30.20,North,5,1.0,3.0,84,0.00,,---,0.00,VWS V14.00,2013-05-24 09:19:00,
2013-05-24 04:20:00,58.3,53.5,30.20,North,5,2.0,6.0,84,0.00,,---,0.00,VWS V14.00,2013-05-24 09:20:00,
2013-05-24 04:21:00,58.3,53.5,30.20,North,5,3.0,3.0,84,0.00,,---,0.00,VWS V14.00,2013-05-24 09:21:00,
2013-05-24 04:22:00,58.3,53.5,30.20,North,5,0.0,3.0,84,0.00,,---,0.00,VWS V14.00,2013-05-24 09:22:00,
2013-05-24 04:23:00,58.1,53.3,30.20,North,5,4.0,4.0,84,0.00,,---,0.00,VWS V14.00,2013-05-24 09:23:00,
2013-05-24 04:24:00,58.1,53.3,30.20,North,5,0.0,5.0,84,0.00,,---,0.00,VWS V14.00,2013-05-24 09:24:00,
2013-05-24 04:25:00,58.1,53.3,30.20,North,5,0.0,3.0,84,0.00,,---,0.00,VWS V14.00,2013-05-24 09:25:00,
2013-05-24 04:26:00,58.1,53.3,30.20,North,5,0.0,0.0,84,0.00,,---,0.00,VWS V14.00,2013-05-24 09:26:00,
2013-05-24 04:28:00,58.1,53.6,30.20,North,5,3.0,5.0,85,0.00,,---,0.00,VWS V14.00,2013-05-24 09:28:00,
2013-05-24 04:29:00,58.1,53.3,30.20,North,5,3.0,4.0,84,0.00,,---,0.00,VWS V14.00,2013-05-24 09:29:00,
2013-05-24 04:30:00,58.1,53.3,30.20,North,5,3.0,4.0,84,0.00,,---,0.00,VWS V14.00,2013-05-24 09:30:00,
2013-05-24 04:31:00,58.1,53.3,30.20,North,5,3.0,3.0,84,0.00,,---,0.00,VWS V14.00,2013-05-24 09:31:00,
2013-05-24 04:32:00,58.1,53.3,30.20,North,5,0.0,2.0,84,0.00,,---,0.00,VWS V14.00,2013-05-24 09:32:00,
2013-05-24 04:35:00,58.1,53.6,30.21,North,5,1.0,3.0,85,0.00,,---,0.00,VWS V14.00,2013-05-24 09:35:00,
2013-05-24 04:36:00,58.1,53.6,30.20,North,5,1.0,3.0,85,0.00,,---,0.00,VWS V14.00,2013-05-24 09:36:00,
2013-05-24 04:37:00,58.1,53.6,30.21,North,5,0.0,2.0,85,0.00,,---,0.00,VWS V14.00,2013-05-24 09:37:00,
2013-05-24 04:38:00,58.1,53.6,30.21,North,5,0.0,0.0,85,0.00,,---,0.00,VWS V14.00,2013-05-24 09:38:00,
2013-05-24 04:40:00,58.0,53.5,30.21,North,5,0.0,0.0,85,0.00,,---,0.00,VWS V14.00,2013-05-24 09:40:00,
2013-05-24 04:41:00,58.1,53.6,30.21,North,5,0.0,0.0,85,0.00,,---,0.00,VWS V14.00,2013-05-24 09:41:00,
2013-05-24 04:42:00,58.0,53.5,30.21,North,5,0.0,4.0,85,0.00,,---,0.00,VWS V14.00,2013-05-24 09:42:00,
2013-05-24 04:43:00,58.0,53.5,30.21,North,5,0.0,4.0,85,0.00,,---,0.00,VWS V14.00,2013-05-24 09:43:00,
2013-05-24 04:44:00,58.0,53.5,30.21,North,5,4.0,4.0,85,0.00,,---,0.00,VWS V14.00,2013-05-24 09:44:00,
2013-05-24 04:45:00,58.0,53.2,30.21,North,5,1.0,4.0,84,0.00,,---,0.00,VWS V14.00,2013-05-24 09:45:00,
2013-05-24 04:46:00,58.0,53.5,30.21,North,5,4.0,4.0,85,0.00,,---,0.00,VWS V14.00,2013-05-24 09:46:00,
2013-05-24 04:47:00,57.8,53.3,30.21,North,5,0.0,3.0,85,0.00,,---,0.00,VWS V14.00,2013-05-24 09:47:00,
2013-05-24 04:48:00,57.8,53.3,30.21,North,5,0.0,0.0,85,0.00,,---,0.00,VWS V14.00,2013-05-24 09:48:00,
2013-05-24 04:49:00,57.8,53.3,30.21,North,5,0.0,0.0,85,0.00,,---,0.00,VWS V14.00,2013-05-24 09:49:00,
2013-05-24 04:50:00,57.8,53.3,30.21,North,5,1.0,1.0,85,0.00,,---,0.00,VWS V14.00,2013-05-24 09:50:00,
2013-05-24 04:51:00,57.8,53.3,30.21,North,5,0.0,0.0,85,0.00,,---,0.00,VWS V14.00,2013-05-24 09:51:00,
2013-05-24 04:52:00,57.8,53.3,30.21,North,5,0.0,0.0,85,0.00,,---,0.00,VWS V14.00,2013-05-24 09:52:00,
2013-05-24 04:53:00,57.8,53.3,30.21,North,5,2.0,4.0,85,0.00,,---,0.00,VWS V14.00,2013-05-24 09:53:00,
2013-05-24 04:54:00,57.8,53.3,30.21,North,5,0.0,2.0,85,0.00,,---,0.00,VWS V14.00,2013-05-24 09:54:00,
2013-05-24 04:55:00,57.8,53.3,30.22,North,5,0.0,2.0,85,0.00,,---,0.00,VWS V14.00,2013-05-24 09:55:00,
2013-05-24 04:56:00,57.8,53.3,30.21,North,5,0.0,0.0,85,0.00,,---,0.00,VWS V14.00,2013-05-24 09:56:00,
2013-05-24 04:57:00,57.8,53.3,30.22,North,5,1.0,2.0,85,0.00,,---,0.00,VWS V14.00,2013-05-24 09:57:00,
2013-05-24 04:58:00,57.8,53.3,30.22,North,5,2.0,2.0,85,0.00,,---,0.00,VWS V14.00,2013-05-24 09:58:00,
2013-05-24 04:59:00,57.8,53.3,30.22,North,5,3.0,4.0,85,0.00,,---,0.00,VWS V14.00,2013-05-24 09:59:00,
2013-05-24 05:00:00,57.8,53.3,30.22,North,5,2.0,3.0,85,0.00,,---,0.00,VWS V14.00,2013-05-24 10:00:00,
2013-05-24 05:01:00,57.8,53.3,30.22,North,5,1.0,3.0,85,0.00,,---,0.00,VWS V14.00,2013-05-24 10:01:00,
2013-05-24 05:02:00,57.6,53.1,30.22,North,5,0.0,1.0,85,0.00,,---,0.00,VWS V14.00,2013-05-24 10:02:00,
2013-05-24 05:03:00,57.6,53.1,30.22,North,5,0.0,0.0,85,0.00,,---,0.00,VWS V14.00,2013-05-24 10:03:00,
2013-05-24 05:04:00,57.6,53.1,30.22,North,5,2.0,3.0,85,0.00,,---,0.00,VWS V14.00,2013-05-24 10:04:00,
2013-05-24 05:05:00,57.6,53.1,30.22,North,5,1.0,3.0,85,0.00,,---,0.00,VWS V14.00,2013-05-24 10:05:00,
2013-05-24 05:06:00,57.6,53.1,30.22,North,5,2.0,3.0,85,0.00,,---,0.00,VWS V14.00,2013-05-24 10:06:00,
2013-05-24 05:07:00,57.6,53.1,30.22,North,5,4.0,5.0,85,0.00,,---,0.00,VWS V14.00,2013-05-24 10:07:00,
2013-05-24 05:08:00,57.6,53.1,30.22,North,5,4.0,4.0,85,0.00,,---,0.00,VWS V14.00,2013-05-24 10:08:00,
2013-05-24 05:09:00,57.6,53.1,30.22,North,5,0.0,4.0,85,0.00,,---,0.00,VWS V14.00,2013-05-24 10:09:00,
2013-05-24 05:10:00,57.6,53.1,30.22,North,5,2.0,3.0,85,0.00,,---,0.00,VWS V14.00,2013-05-24 10:10:00,
2013-05-24 05:11:00,57.6,53.1,30.22,North,5,0.0,0.0,85,0.00,,---,0.00,VWS V14.00,2013-05-24 10:11:00,
2013-05-24 05:12:00,57.6,53.1,30.22,North,5,1.0,2.0,85,0.00,,---,0.00,VWS V14.00,2013-05-24 10:12:00,
2013-05-24 05:13:00,57.6,53.1,30.22,North,5,2.0,4.0,85,0.00,,---,0.00,VWS V14.00,2013-05-24 10:13:00,
2013-05-24 05:14:00,57.6,53.1,30.22,North,5,1.0,3.0,85,0.00,,---,0.00,VWS V14.00,2013-05-24 10:14:00,
2013-05-24 05:15:00,57.5,53.0,30.22,North,5,0.0,1.0,85,0.00,,---,0.00,VWS V14.00,2013-05-24 10:15:00,
2013-05-24 05:16:00,57.6,53.1,30.22,North,5,0.0,1.0,85,0.00,,---,0.00,VWS V14.00,2013-05-24 10:16:00,
2013-05-24 05:17:00,57.5,53.0,30.23,North,5,1.0,4.0,85,0.00,,---,0.00,VWS V14.00,2013-05-24 10:17:00,
2013-05-24 05:18:00,57.5,53.0,30.23,North,5,2.0,3.0,85,0.00,,---,0.00,VWS V14.00,2013-05-24 10:18:00,
2013-05-24 05:19:00,57.5,53.3,30.23,North,5,1.0,3.0,86,0.00,,---,0.00,VWS V14.00,2013-05-24 10:19:00,
2013-05-24 05:20:00,57.5,53.3,30.23,North,5,1.0,2.0,86,0.00,,---,0.00,VWS V14.00,2013-05-24 10:20:00,
2013-05-24 05:21:00,57.5,53.3,30.23,North,5,0.0,1.0,86,0.00,,---,0.00,VWS V14.00,2013-05-24 10:21:00,
2013-05-24 05:22:00,57.5,53.3,30.23,North,5,2.0,4.0,86,0.00,,---,0.00,VWS V14.00,2013-05-24 10:22:00,
2013-05-24 05:23:00,57.5,53.3,30.23,North,5,4.0,5.0,86,0.00,,---,0.00,VWS V14.00,2013-05-24 10:23:00,
2013-05-24 05:24:00,57.5,53.0,30.23,North,5,0.0,4.0,85,0.00,,---,0.00,VWS V14.00,2013-05-24 10:24:00,
2013-05-24 05:25:00,57.5,53.0,30.23,North,5,0.0,0.0,85,0.00,,---,0.00,VWS V14.00,2013-05-24 10:25:00,
2013-05-24 05:26:00,57.5,53.0,30.23,North,5,0.0,0.0,85,0.00,,---,0.00,VWS V14.00,2013-05-24 10:26:00,
2013-05-24 05:27:00,57.5,53.0,30.23,North,5,2.0,4.0,85,0.00,,---,0.00,VWS V14.00,2013-05-24 10:27:00,
2013-05-24 05:28:00,57.5,53.0,30.23,North,5,3.0,3.0,85,0.00,,---,0.00,VWS V14.00,2013-05-24 10:28:00,
2013-05-24 05:29:00,57.5,53.0,30.24,North,5,2.0,3.0,85,0.00,,---,0.00,VWS V14.00,2013-05-24 10:29:00,
2013-05-24 05:30:00,57.5,53.3,30.23,North,5,1.0,5.0,86,0.00,,---,0.00,VWS V14.00,2013-05-24 10:30:00,
2013-05-24 05:31:00,57.5,53.3,30.23,North,5,5.0,5.0,86,0.00,,---,0.00,VWS V14.00,2013-05-24 10:31:00,
2013-05-24 05:32:00,57.5,53.3,30.24,North,5,0.0,0.0,86,0.00,,---,0.00,VWS V14.00,2013-05-24 10:32:00,
2013-05-24 05:33:00,57.5,53.3,30.24,North,5,0.0,2.0,86,0.00,,---,0.00,VWS V14.00,2013-05-24 10:33:00,
2013-05-24 05:34:00,57.5,53.0,30.24,North,5,0.0,0.0,85,0.00,,---,0.00,VWS V14.00,2013-05-24 10:34:00,
2013-05-24 05:35:00,57.5,53.3,30.24,North,5,2.0,5.0,86,0.00,,---,0.00,VWS V14.00,2013-05-24 10:35:00,
2013-05-24 05:36:00,57.3,52.8,30.24,North,5,0.0,0.0,85,0.00,,---,0.00,VWS V14.00,2013-05-24 10:36:00,
2013-05-24 05:37:00,57.3,52.8,30.24,North,5,0.0,3.0,85,0.00,,---,0.00,VWS V14.00,2013-05-24 10:37:00,
2013-05-24 05:38:00,57.3,52.8,30.24,NNE,19,0.0,0.0,85,0.00,,---,0.00,VWS V14.00,2013-05-24 10:38:00,
2013-05-24 05:39:00,57.3,52.8,30.24,NNE,18,0.0,2.0,85,0.00,,---,0.00,VWS V14.00,2013-05-24 10:39:00,
2013-05-24 05:40:00,57.3,52.8,30.24,NNE,18,4.0,5.0,85,0.00,,---,0.00,VWS V14.00,2013-05-24 10:40:00,
2013-05-24 05:41:00,57.3,52.8,30.24,NNE,18,0.0,0.0,85,0.00,,---,0.00,VWS V14.00,2013-05-24 10:41:00,
2013-05-24 05:42:00,57.3,53.2,30.24,NNE,18,0.0,4.0,86,0.00,,---,0.00,VWS V14.00,2013-05-24 10:42:00,
2013-05-24 05:43:00,57.3,52.8,30.24,NNE,18,2.0,2.0,85,0.00,,---,0.00,VWS V14.00,2013-05-24 10:43:00,
2013-05-24 05:44:00,57.3,52.8,30.24,NNE,18,0.0,3.0,85,0.00,,---,0.00,VWS V14.00,2013-05-24 10:44:00,
2013-05-24 05:45:00,57.3,52.8,30.24,NNE,18,2.0,4.0,85,0.00,,---,0.00,VWS V14.00,2013-05-24 10:45:00,
2013-05-24 05:46:00,57.3,52.8,30.24,NNE,18,0.0,0.0,85,0.00,,---,0.00,VWS V14.00,2013-05-24 10:46:00,
2013-05-24 05:47:00,57.3,52.8,30.25,NNE,18,1.0,4.0,85,0.00,,---,0.00,VWS V14.00,2013-05-24 10:47:00,
2013-05-24 05:48:00,57.3,52.8,30.25,NNE,17,3.0,7.0,85,0.00,,---,0.00,VWS V14.00,2013-05-24 10:48:00,
2013-05-24 05:49:00,57.3,52.8,30.25,NNE,17,2.0,3.0,85,0.00,,---,0.00,VWS V14.00,2013-05-24 10:49:00,
2013-05-24 05:50:00,57.2,52.7,30.25,NNE,17,0.0,2.0,85,0.00,,---,0.00,VWS V14.00,2013-05-24 10:50:00,
2013-05-24 05:51:00,57.2,52.7,30.25,NNE,17,0.0,2.0,85,0.00,,---,0.00,VWS V14.00,2013-05-24 10:51:00,
2013-05-24 05:52:00,57.2,52.7,30.25,NNE,17,0.0,5.0,85,0.00,,---,0.00,VWS V14.00,2013-05-24 10:52:00,
2013-05-24 05:53:00,57.2,52.7,30.25,NNE,17,0.0,5.0,85,0.00,,---,0.00,VWS V14.00,2013-05-24 10:53:00,
2013-05-24 05:54:00,57.2,52.7,30.25,NNE,17,4.0,4.0,85,0.00,,---,0.00,VWS V14.00,2013-05-24 10:54:00,
2013-05-24 05:55:00,57.2,52.7,30.25,NNE,17,3.0,4.0,85,0.00,,---,0.00,VWS V14.00,2013-05-24 10:55:00,
2013-05-24 05:56:00,57.2,52.7,30.25,NNE,17,2.0,4.0,85,0.00,,---,0.00,VWS V14.00,2013-05-24 10:56:00,
2013-05-24 05:57:00,57.2,52.7,30.25,NNE,17,0.0,2.0,85,0.00,,---,0.00,VWS V14.00,2013-05-24 10:57:00,
2013-05-24 05:58:00,57.2,52.7,30.25,NNE,17,0.0,5.0,85,0.00,,---,0.00,VWS V14.00,2013-05-24 10:58:00,
2013-05-24 05:59:00,57.2,52.7,30.25,NNE,17,1.0,3.0,85,0.00,,---,0.00,VWS V14.00,2013-05-24 10:59:00,
2013-05-24 06:00:00,57.2,52.7,30.25,NNE,17,2.0,2.0,85,0.00,,---,0.00,VWS V14.00,2013-05-24 11:00:00,
2013-05-24 06:01:00,57.2,52.7,30.25,NNE,17,1.0,1.0,85,0.00,,---,0.00,VWS V14.00,2013-05-24 11:01:00,
2013-05-24 06:02:00,57.2,52.7,30.26,NNE,17,0.0,0.0,85,0.00,,---,0.00,VWS V14.00,2013-05-24 11:02:00,
2013-05-24 06:03:00,57.2,52.7,30.26,NNE,17,2.0,5.0,85,0.00,,---,0.00,VWS V14.00,2013-05-24 11:03:00,
2013-05-24 06:04:00,57.2,52.7,30.26,NNE,17,1.0,2.0,85,0.00,,---,0.00,VWS V14.00,2013-05-24 11:04:00,
2013-05-24 06:05:00,57.2,53.1,30.26,NNE,17,4.0,5.0,86,0.00,,---,0.00,VWS V14.00,2013-05-24 11:05:00,
2013-05-24 06:06:00,57.2,52.7,30.26,NNE,17,1.0,1.0,85,0.00,,---,0.00,VWS V14.00,2013-05-24 11:06:00,
2013-05-24 06:07:00,57.2,52.7,30.26,NNE,17,2.0,5.0,85,0.00,,---,0.00,VWS V14.00,2013-05-24 11:07:00,
2013-05-24 06:08:00,57.2,52.7,30.26,NNE,17,3.0,3.0,85,0.00,,---,0.00,VWS V14.00,2013-05-24 11:08:00,
2013-05-24 06:09:00,57.2,52.7,30.26,NNE,17,3.0,3.0,85,0.00,,---,0.00,VWS V14.00,2013-05-24 11:09:00,
2013-05-24 06:10:00,57.2,52.7,30.26,NNE,17,0.0,3.0,85,0.00,,---,0.00,VWS V14.00,2013-05-24 11:10:00,
2013-05-24 06:11:00,57.2,52.7,30.26,NNE,17,3.0,3.0,85,0.00,,---,0.00,VWS V14.00,2013-05-24 11:11:00,
2013-05-24 06:12:00,57.2,53.1,30.26,NNE,17,3.0,3.0,86,0.00,,---,0.00,VWS V14.00,2013-05-24 11:12:00,
2013-05-24 06:13:00,57.2,53.1,30.26,NNE,17,4.0,4.0,86,0.00,,---,0.00,VWS V14.00,2013-05-24 11:13:00,
2013-05-24 06:14:00,57.2,52.7,30.26,NNE,17,6.0,7.0,85,0.00,,---,0.00,VWS V14.00,2013-05-24 11:14:00,
2013-05-24 06:15:00,57.2,52.7,30.26,NNE,18,3.0,6.0,85,0.00,,---,0.00,VWS V14.00,2013-05-24 11:15:00,
2013-05-24 06:16:00,57.2,52.7,30.26,NNE,17,3.0,6.0,85,0.00,,---,0.00,VWS V14.00,2013-05-24 11:16:00,
2013-05-24 06:17:00,57.2,52.7,30.26,NNE,18,2.0,2.0,85,0.00,,---,0.00,VWS V14.00,2013-05-24 11:17:00,
2013-05-24 06:18:00,57.2,52.7,30.26,NNE,18,0.0,3.0,85,0.00,,---,0.00,VWS V14.00,2013-05-24 11:18:00,
2013-05-24 06:19:00,57.2,52.7,30.26,NNE,18,2.0,2.0,85,0.00,,---,0.00,VWS V14.00,2013-05-24 11:19:00,
2013-05-24 06:20:00,57.2,52.7,30.26,NE,39,0.0,2.0,85,0.00,,---,0.00,VWS V14.00,2013-05-24 11:20:00,
2013-05-24 06:21:00,57.2,52.7,30.26,NNE,18,1.0,2.0,85,0.00,,---,0.00,VWS V14.00,2013-05-24 11:21:00,
2013-05-24 06:22:00,57.2,52.7,30.26,NE,42,0.0,4.0,85,0.00,,---,0.00,VWS V14.00,2013-05-24 11:22:00,
2013-05-24 06:23:00,57.2,52.7,30.26,NNE,26,0.0,0.0,85,0.00,,---,0.00,VWS V14.00,2013-05-24 11:23:00,
2013-05-24 06:24:00,57.2,53.1,30.26,NNE,26,0.0,2.0,86,0.00,,---,0.00,VWS V14.00,2013-05-24 11:24:00,
2013-05-24 06:25:00,57.2,53.1,30.26,NNE,26,0.0,1.0,86,0.00,,---,0.00,VWS V14.00,2013-05-24 11:25:00,
2013-05-24 06:26:00,57.2,53.1,30.26,NNE,26,0.0,0.0,86,0.00,,---,0.00,VWS V14.00,2013-05-24 11:26:00,
2013-05-24 06:27:00,57.2,53.1,30.26,NNE,19,0.0,0.0,86,0.00,,---,0.00,VWS V14.00,2013-05-24 11:27:00,
2013-05-24 06:28:00,57.2,53.1,30.26,NNE,19,0.0,0.0,86,0.00,,---,0.00,VWS V14.00,2013-05-24 11:28:00,
2013-05-24 06:29:00,57.2,53.1,30.26,NNE,19,0.0,0.0,86,0.00,,---,0.00,VWS V14.00,2013-05-24 11:29:00,
2013-05-24 06:30:00,57.2,53.1,30.26,NNE,18,3.0,3.0,86,0.00,,---,0.00,VWS V14.00,2013-05-24 11:30:00,
2013-05-24 06:31:00,57.2,53.1,30.26,NNE,19,0.0,0.0,86,0.00,,---,0.00,VWS V14.00,2013-05-24 11:31:00,
2013-05-24 06:32:00,57.2,53.1,30.26,NNE,19,4.0,4.0,86,0.00,,---,0.00,VWS V14.00,2013-05-24 11:32:00,
2013-05-24 06:33:00,57.2,53.1,30.26,NNE,23,0.0,5.0,86,0.00,,---,0.00,VWS V14.00,2013-05-24 11:33:00,
2013-05-24 06:34:00,57.2,53.1,30.26,NNE,23,0.0,2.0,86,0.00,,---,0.00,VWS V14.00,2013-05-24 11:34:00,
2013-05-24 06:35:00,57.2,53.1,30.26,NNE,23,0.0,4.0,86,0.00,,---,0.00,VWS V14.00,2013-05-24 11:35:00,
2013-05-24 06:36:00,57.2,53.1,30.26,NNE,23,0.0,2.0,86,0.00,,---,0.00,VWS V14.00,2013-05-24 11:36:00,
2013-05-24 06:37:00,57.2,53.1,30.26,NNE,23,0.0,0.0,86,0.00,,---,0.00,VWS V14.00,2013-05-24 11:37:00,
2013-05-24 06:38:00,57.2,53.1,30.26,NNE,23,0.0,3.0,86,0.00,,---,0.00,VWS V14.00,2013-05-24 11:38:00,
2013-05-24 06:39:00,57.2,53.1,30.26,NNE,26,3.0,6.0,86,0.00,,---,0.00,VWS V14.00,2013-05-24 11:39:00,
2013-05-24 06:40:00,57.2,53.1,30.26,NNE,26,0.0,3.0,86,0.00,,---,0.00,VWS V14.00,2013-05-24 11:40:00,
2013-05-24 06:41:00,57.2,53.1,30.26,NNE,26,3.0,6.0,86,0.00,,---,0.00,VWS V14.00,2013-05-24 11:41:00,
2013-05-24 06:42:00,57.3,53.2,30.26,NNE,33,5.0,10.0,86,0.00,,---,0.00,VWS V14.00,2013-05-24 11:42:00,
2013-05-24 06:43:00,57.3,53.2,30.26,NE,34,5.0,6.0,86,0.00,,---,0.00,VWS V14.00,2013-05-24 11:43:00,
2013-05-24 06:44:00,57.3,53.2,30.26,NE,34,4.0,9.0,86,0.00,,---,0.00,VWS V14.00,2013-05-24 11:44:00,
2013-05-24 06:45:00,57.3,53.2,30.26,NE,34,0.0,4.0,86,0.00,,---,0.00,VWS V14.00,2013-05-24 11:45:00,
2013-05-24 06:46:00,57.3,53.2,30.26,NE,34,4.0,9.0,86,0.00,,---,0.00,VWS V14.00,2013-05-24 11:46:00,
2013-05-24 06:47:00,57.3,52.8,30.26,NE,34,2.0,10.0,85,0.00,,---,0.00,VWS V14.00,2013-05-24 11:47:00,
2013-05-24 06:48:00,57.3,53.2,30.26,NE,36,4.0,8.0,86,0.00,,---,0.00,VWS V14.00,2013-05-24 11:48:00,
2013-05-24 06:49:00,57.3,53.2,30.26,NE,41,3.0,6.0,86,0.00,,---,0.00,VWS V14.00,2013-05-24 11:49:00,
2013-05-24 06:50:00,57.3,53.2,30.26,NE,41,2.0,5.0,86,0.00,,---,0.00,VWS V14.00,2013-05-24 11:50:00,
2013-05-24 06:51:00,57.3,53.2,30.26,NE,41,3.0,6.0,86,0.00,,---,0.00,VWS V14.00,2013-05-24 11:51:00,
2013-05-24 06:52:00,57.5,53.3,30.25,East,90,5.0,9.0,86,0.00,,---,0.00,VWS V14.00,2013-05-24 11:52:00,
2013-05-24 06:53:00,57.5,53.3,30.25,East,95,1.0,5.0,86,0.00,,---,0.00,VWS V14.00,2013-05-24 11:53:00,
2013-05-24 06:54:00,57.5,53.3,30.25,East,95,0.0,3.0,86,0.00,,---,0.00,VWS V14.00,2013-05-24 11:54:00,
2013-05-24 06:55:00,57.5,53.3,30.25,East,96,2.0,6.0,86,0.00,,---,0.00,VWS V14.00,2013-05-24 11:55:00,
2013-05-24 06:56:00,57.5,53.3,30.25,East,95,0.0,3.0,86,0.00,,---,0.00,VWS V14.00,2013-05-24 11:56:00,
2013-05-24 06:57:00,57.5,53.3,30.25,East,96,0.0,0.0,86,0.00,,---,0.00,VWS V14.00,2013-05-24 11:57:00,
2013-05-24 06:58:00,57.5,53.3,30.25,East,94,1.0,6.0,86,0.00,,---,0.00,VWS V14.00,2013-05-24 11:58:00,
2013-05-24 06:59:00,57.5,53.3,30.25,East,94,4.0,5.0,86,0.00,,---,0.00,VWS V14.00,2013-05-24 11:59:00,
2013-05-24 07:00:00,57.5,53.3,30.25,East,94,6.0,6.0,86,0.00,,---,0.00,VWS V14.00,2013-05-24 12:00:00,
2013-05-24 07:01:00,57.5,53.3,30.25,East,94,4.0,4.0,86,0.00,,---,0.00,VWS V14.00,2013-05-24 12:01:00,
2013-05-24 07:02:00,57.5,53.3,30.26,East,94,2.0,2.0,86,0.00,,---,0.00,VWS V14.00,2013-05-24 12:02:00,
2013-05-24 07:03:00,57.5,53.3,30.25,East,94,0.0,6.0,86,0.00,,---,0.00,VWS V14.00,2013-05-24 12:03:00,
2013-05-24 07:04:00,57.5,53.0,30.25,East,94,0.0,3.0,85,0.00,,---,0.00,VWS V14.00,2013-05-24 12:04:00,
2013-05-24 07:05:00,57.5,53.3,30.26,East,94,0.0,3.0,86,0.00,,---,0.00,VWS V14.00,2013-05-24 12:05:00,
2013-05-24 07:06:00,57.5,53.0,30.25,East,94,0.0,3.0,85,0.00,,---,0.00,VWS V14.00,2013-05-24 12:06:00,
2013-05-24 07:07:00,57.6,53.5,30.26,East,94,0.0,5.0,86,0.00,,---,0.00,VWS V14.00,2013-05-24 12:07:00,
2013-05-24 07:08:00,57.6,53.5,30.26,East,94,0.0,1.0,86,0.00,,---,0.00,VWS V14.00,2013-05-24 12:08:00,
2013-05-24 07:09:00,57.6,53.5,30.26,East,94,0.0,0.0,86,0.00,,---,0.00,VWS V14.00,2013-05-24 12:09:00,
2013-05-24 07:10:00,57.8,53.7,30.26,East,94,0.0,2.0,86,0.00,,---,0.00,VWS V14.00,2013-05-24 12:10:00,
2013-05-24 07:11:00,57.6,53.5,30.26,East,94,0.0,0.0,86,0.00,,---,0.00,VWS V14.00,2013-05-24 12:11:00,
2013-05-24 07:12:00,57.8,53.7,30.26,East,94,0.0,0.0,86,0.00,,---,0.00,VWS V14.00,2013-05-24 12:12:00,
2013-05-24 07:13:00,58.0,53.8,30.26,East,94,0.0,2.0,86,0.00,,---,0.00,VWS V14.00,2013-05-24 12:13:00,
2013-05-24 07:14:00,58.0,53.5,30.26,East,94,0.0,5.0,85,0.00,,---,0.00,VWS V14.00,2013-05-24 12:14:00,
2013-05-24 07:15:00,58.0,53.5,30.26,East,94,0.0,7.0,85,0.00,,---,0.00,VWS V14.00,2013-05-24 12:15:00,
2013-05-24 07:16:00,58.0,53.5,30.26,East,94,0.0,5.0,85,0.00,,---,0.00,VWS V14.00,2013-05-24 12:16:00,
2013-05-24 07:17:00,58.0,53.5,30.26,East,91,0.0,0.0,85,0.00,,---,0.00,VWS V14.00,2013-05-24 12:17:00,
2013-05-24 07:18:00,58.1,53.6,30.26,East,91,2.0,2.0,85,0.00,,---,0.00,VWS V14.00,2013-05-24 12:18:00,
2013-05-24 07:19:00,58.1,53.6,30.26,East,91,1.0,6.0,85,0.00,,---,0.00,VWS V14.00,2013-05-24 12:19:00,
2013-05-24 07:20:00,58.3,53.8,30.26,East,91,0.0,5.0,85,0.00,,---,0.00,VWS V14.00,2013-05-24 12:20:00,
2013-05-24 07:21:00,58.1,53.6,30.26,East,91,1.0,6.0,85,0.00,,---,0.00,VWS V14.00,2013-05-24 12:21:00,
2013-05-24 07:22:00,58.3,53.8,30.26,East,87,0.0,0.0,85,0.00,,---,0.00,VWS V14.00,2013-05-24 12:22:00,
2013-05-24 07:23:00,58.4,53.9,30.26,East,91,1.0,6.0,85,0.00,,---,0.00,VWS V14.00,2013-05-24 12:23:00,
2013-05-24 07:24:00,58.4,53.9,30.26,East,91,0.0,4.0,85,0.00,,---,0.00,VWS V14.00,2013-05-24 12:24:00,
2013-05-24 07:25:00,58.4,53.6,30.26,East,89,0.0,2.0,84,0.00,,---,0.00,VWS V14.00,2013-05-24 12:25:00,
2013-05-24 07:26:00,58.4,53.9,30.26,East,91,0.0,4.0,85,0.00,,---,0.00,VWS V14.00,2013-05-24 12:26:00,
2013-05-24 07:27:00,58.4,53.6,30.26,East,89,2.0,8.0,84,0.00,,---,0.00,VWS V14.00,2013-05-24 12:27:00,
2013-05-24 07:28:00,58.4,53.6,30.26,East,89,6.0,9.0,84,0.00,,---,0.00,VWS V14.00,2013-05-24 12:28:00,
2013-05-24 07:29:00,58.4,53.6,30.26,East,86,7.0,9.0,84,0.00,,---,0.00,VWS V14.00,2013-05-24 12:29:00,
2013-05-24 07:30:00,58.4,53.6,30.26,East,86,4.0,9.0,84,0.00,,---,0.00,VWS V14.00,2013-05-24 12:30:00,
2013-05-24 07:31:00,58.4,53.6,30.26,East,86,7.0,9.0,84,0.00,,---,0.00,VWS V14.00,2013-05-24 12:31:00,
2013-05-24 07:32:00,58.4,53.6,30.26,East,84,4.0,6.0,84,0.00,,---,0.00,VWS V14.00,2013-05-24 12:32:00,
2013-05-24 07:33:00,58.6,53.8,30.26,ENE,57,0.0,11.0,84,0.00,,---,0.00,VWS V14.00,2013-05-24 12:33:00,
2013-05-24 07:34:00,58.6,53.8,30.26,ENE,63,7.0,7.0,84,0.00,,---,0.00,VWS V14.00,2013-05-24 12:34:00,
2013-05-24 07:35:00,58.6,53.8,30.26,ESE,115,3.0,10.0,84,0.00,,---,0.00,VWS V14.00,2013-05-24 12:35:00,
2013-05-24 07:36:00,58.6,53.8,30.26,ENE,63,7.0,7.0,84,0.00,,---,0.00,VWS V14.00,2013-05-24 12:36:00,
2013-05-24 07:37:00,58.7,53.9,30.26,SE,134,4.0,10.0,84,0.00,,---,0.00,VWS V14.00,2013-05-24 12:37:00,
2013-05-24 07:38:00,58.7,53.6,30.26,SE,133,2.0,9.0,83,0.00,,---,0.00,VWS V14.00,2013-05-24 12:38:00,
2013-05-24 07:39:00,58.7,53.6,30.26,SE,133,7.0,7.0,83,0.00,,---,0.00,VWS V14.00,2013-05-24 12:39:00,
2013-05-24 07:40:00,58.7,53.6,30.26,ESE,111,4.0,10.0,83,0.00,,---,0.00,VWS V14.00,2013-05-24 12:40:00,
2013-05-24 07:41:00,58.7,53.6,30.26,SE,133,7.0,7.0,83,0.00,,---,0.00,VWS V14.00,2013-05-24 12:41:00,
2013-05-24 07:42:00,58.9,53.8,30.26,ESE,102,3.0,11.0,83,0.00,,---,0.00,VWS V14.00,2013-05-24 12:42:00,
2013-05-24 07:43:00,58.9,53.4,30.26,ENE,76,0.0,7.0,82,0.00,,---,0.00,VWS V14.00,2013-05-24 12:43:00,
2013-05-24 07:44:00,58.9,53.4,30.26,ENE,78,4.0,6.0,82,0.00,,---,0.00,VWS V14.00,2013-05-24 12:44:00,
2013-05-24 07:45:00,58.9,53.8,30.26,SE,146,4.0,10.0,83,0.00,,---,0.00,VWS V14.00,2013-05-24 12:45:00,
2013-05-24 07:46:00,58.9,53.4,30.26,ENE,78,4.0,6.0,82,0.00,,---,0.00,VWS V14.00,2013-05-24 12:46:00,
2013-05-24 07:47:00,59.0,53.5,30.26,SE,136,15.0,15.0,82,0.00,,---,0.00,VWS V14.00,2013-05-24 12:47:00,
2013-05-24 07:48:00,59.0,53.5,30.26,SE,127,11.0,15.0,82,0.00,,---,0.00,VWS V14.00,2013-05-24 12:48:00,
2013-05-24 07:49:00,59.0,53.5,30.26,ESE,123,4.0,12.0,82,0.00,,---,0.00,VWS V14.00,2013-05-24 12:49:00,
2013-05-24 07:50:00,59.0,53.5,30.26,SE,124,4.0,11.0,82,0.00,,---,0.00,VWS V14.00,2013-05-24 12:50:00,
2013-05-24 07:51:00,59.0,53.5,30.26,ESE,123,6.0,12.0,82,0.00,,---,0.00,VWS V14.00,2013-05-24 12:51:00,
2013-05-24 07:52:00,59.2,53.7,30.26,East,100,4.0,5.0,82,0.00,,---,0.00,VWS V14.00,2013-05-24 12:52:00,
2013-05-24 07:53:00,59.2,53.7,30.26,SE,126,8.0,15.0,82,0.00,,---,0.00,VWS V14.00,2013-05-24 12:53:00,
2013-05-24 07:54:00,59.2,53.4,30.26,SE,138,11.0,13.0,81,0.00,,---,0.00,VWS V14.00,2013-05-24 12:54:00,
2013-05-24 07:55:00,59.2,53.4,30.26,SE,132,3.0,11.0,81,0.00,,---,0.00,VWS V14.00,2013-05-24 12:55:00,
2013-05-24 07:56:00,59.2,53.4,30.26,SE,138,11.0,13.0,81,0.00,,---,0.00,VWS V14.00,2013-05-24 12:56:00,
2013-05-24 07:57:00,59.2,53.4,30.26,ESE,109,4.0,11.0,81,0.00,,---,0.00,VWS V14.00,2013-05-24 12:57:00,
2013-05-24 07:58:00,59.3,53.5,30.26,SE,134,7.0,15.0,81,0.00,,---,0.00,VWS V14.00,2013-05-24 12:58:00,
2013-05-24 07:59:00,59.3,53.5,30.26,SE,136,5.0,14.0,81,0.00,,---,0.00,VWS V14.00,2013-05-24 12:59:00,
2013-05-24 08:00:00,59.3,53.1,30.26,SE,136,4.0,7.0,80,0.00,,---,0.00,VWS V14.00,2013-05-24 13:00:00,
2013-05-24 08:01:00,59.3,53.5,30.26,SE,136,5.0,14.0,81,0.00,,---,0.00,VWS V14.00,2013-05-24 13:01:00,
2013-05-24 08:02:00,59.5,53.3,30.26,SE,137,4.0,8.0,80,0.00,,---,0.00,VWS V14.00,2013-05-24 13:02:00,
2013-05-24 08:03:00,59.5,53.3,30.26,SE,142,15.0,15.0,80,0.00,,---,0.00,VWS V14.00,2013-05-24 13:03:00,
2013-05-24 08:04:00,59.5,53.0,30.27,ESE,105,11.0,18.0,79,0.00,,---,0.00,VWS V14.00,2013-05-24 13:04:00,
2013-05-24 08:05:00,59.5,53.0,30.27,ESE,106,6.0,15.0,79,0.00,,---,0.00,VWS V14.00,2013-05-24 13:05:00,
2013-05-24 08:06:00,59.5,53.0,30.27,ESE,105,13.0,18.0,79,0.00,,---,0.00,VWS V14.00,2013-05-24 13:06:00,
2013-05-24 08:07:00,59.5,53.0,30.27,SSE,148,5.0,15.0,79,0.00,,---,0.00,VWS V14.00,2013-05-24 13:07:00,
2013-05-24 08:08:00,59.5,53.0,30.27,SE,144,9.0,13.0,79,0.00,,---,0.00,VWS V14.00,2013-05-24 13:08:00,
2013-05-24 08:09:00,59.5,53.0,30.27,ESE,107,0.0,12.0,79,0.00,,---,0.00,VWS V14.00,2013-05-24 13:09:00,
2013-05-24 08:10:00,59.5,53.0,30.27,SE,136,11.0,12.0,79,0.00,,---,0.00,VWS V14.00,2013-05-24 13:10:00,
2013-05-24 08:11:00,59.5,53.0,30.27,ESE,107,2.0,12.0,79,0.00,,---,0.00,VWS V14.00,2013-05-24 13:11:00,
2013-05-24 08:12:00,59.5,53.0,30.27,SE,136,13.0,14.0,79,0.00,,---,0.00,VWS V14.00,2013-05-24 13:12:00,
2013-05-24 08:13:00,59.5,53.0,30.27,ESE,103,6.0,15.0,79,0.00,,---,0.00,VWS V14.00,2013-05-24 13:13:00,
2013-05-24 08:14:00,59.5,53.0,30.27,SE,126,6.0,7.0,79,0.00,,---,0.00,VWS V14.00,2013-05-24 13:14:00,
2013-05-24 08:15:00,59.6,53.1,30.27,SE,133,5.0,13.0,79,0.00,,---,0.00,VWS V14.00,2013-05-24 13:15:00,
2013-05-24 08:16:00,59.5,53.0,30.27,ESE,108,6.0,7.0,79,0.00,,---,0.00,VWS V14.00,2013-05-24 13:16:00,
2013-05-24 08:17:00,59.6,52.7,30.27,ESE,123,18.0,22.0,78,0.00,,---,0.00,VWS V14.00,2013-05-24 13:17:00,
2013-05-24 08:18:00,59.6,52.4,30.27,SE,132,10.0,18.0,77,0.00,,---,0.00,VWS V14.00,2013-05-24 13:18:00,
2013-05-24 08:19:00,59.6,52.7,30.27,SE,132,12.0,16.0,78,0.00,,---,0.00,VWS V14.00,2013-05-24 13:19:00,
2013-05-24 08:20:00,59.6,52.7,30.27,SE,132,11.0,12.0,78,0.00,,---,0.00,VWS V14.00,2013-05-24 13:20:00,
2013-05-24 08:21:00,59.6,52.7,30.27,SE,132,11.0,16.0,78,0.00,,---,0.00,VWS V14.00,2013-05-24 13:21:00,
2013-05-24 08:22:00,59.6,52.7,30.27,ESE,102,7.0,11.0,78,0.00,,---,0.00,VWS V14.00,2013-05-24 13:22:00,
2013-05-24 08:23:00,59.8,52.6,30.26,ESE,115,4.0,11.0,77,0.00,,---,0.00,VWS V14.00,2013-05-24 13:23:00,
2013-05-24 08:24:00,59.8,52.6,30.26,ENE,74,4.0,7.0,77,0.00,,---,0.00,VWS V14.00,2013-05-24 13:24:00,
2013-05-24 08:25:00,59.8,52.9,30.26,ENE,77,9.0,9.0,78,0.00,,---,0.00,VWS V14.00,2013-05-24 13:25:00,
2013-05-24 08:26:00,59.8,52.6,30.26,ENE,74,2.0,7.0,77,0.00,,---,0.00,VWS V14.00,2013-05-24 13:26:00,
2013-05-24 08:27:00,59.9,52.7,30.27,East,92,4.0,10.0,77,0.00,,---,0.00,VWS V14.00,2013-05-24 13:27:00,
2013-05-24 08:28:00,59.9,52.7,30.27,SE,126,5.0,12.0,77,0.00,,---,0.00,VWS V14.00,2013-05-24 13:28:00,
2013-05-24 08:29:00,60.1,52.9,30.27,SE,126,6.0,10.0,77,0.00,,---,0.00,VWS V14.00,2013-05-24 13:29:00,
2013-05-24 08:30:00,60.1,52.9,30.27,SE,140,4.0,12.0,77,0.00,,---,0.00,VWS V14.00,2013-05-24 13:30:00,
2013-05-24 08:31:00,60.1,52.9,30.27,SE,126,6.0,10.0,77,0.00,,---,0.00,VWS V14.00,2013-05-24 13:31:00,
2013-05-24 08:32:00,60.1,52.9,30.27,SE,127,7.0,16.0,77,0.00,,---,0.00,VWS V14.00,2013-05-24 13:32:00,
2013-05-24 08:33:00,60.2,53.0,30.27,SE,130,9.0,11.0,77,0.00,,---,0.00,VWS V14.00,2013-05-24 13:33:00,
2013-05-24 08:34:00,60.2,53.0,30.27,East,80,10.0,11.0,77,0.00,,---,0.00,VWS V14.00,2013-05-24 13:34:00,
2013-05-24 08:35:00,60.2,52.6,30.27,ENE,78,7.0,10.0,76,0.00,,---,0.00,VWS V14.00,2013-05-24 13:35:00,
2013-05-24 08:36:00,60.2,53.0,30.27,East,92,10.0,11.0,77,0.00,,---,0.00,VWS V14.00,2013-05-24 13:36:00,
2013-05-24 08:37:00,60.4,52.8,30.27,SE,136,5.0,12.0,76,0.00,,---,0.00,VWS V14.00,2013-05-24 13:37:00,
2013-05-24 08:38:00,60.4,52.8,30.27,SE,131,7.0,16.0,76,0.00,,---,0.00,VWS V14.00,2013-05-24 13:38:00,
2013-05-24 08:39:00,60.4,52.8,30.27,SE,131,6.0,16.0,76,0.00,,---,0.00,VWS V14.00,2013-05-24 13:39:00,
2013-05-24 08:40:00,60.4,52.5,30.27,SE,130,12.0,14.0,75,0.00,,---,0.00,VWS V14.00,2013-05-24 13:40:00,
2013-05-24 08:41:00,60.4,52.8,30.27,SE,131,5.0,16.0,76,0.00,,---,0.00,VWS V14.00,2013-05-24 13:41:00,
2013-05-24 08:42:00,60.4,52.8,30.27,SE,136,9.0,11.0,76,0.00,,---,0.00,VWS V14.00,2013-05-24 13:42:00,
2013-05-24 08:43:00,60.4,52.5,30.27,ESE,112,6.0,13.0,75,0.00,,---,0.00,VWS V14.00,2013-05-24 13:43:00,
2013-05-24 08:44:00,60.4,52.5,30.27,ESE,114,5.0,16.0,75,0.00,,---,0.00,VWS V14.00,2013-05-24 13:44:00,
2013-05-24 08:45:00,60.4,52.5,30.27,ESE,115,3.0,6.0,75,0.00,,---,0.00,VWS V14.00,2013-05-24 13:45:00,
2013-05-24 08:46:00,60.4,52.5,30.27,ESE,114,11.0,16.0,75,0.00,,---,0.00,VWS V14.00,2013-05-24 13:46:00,
2013-05-24 08:47:00,60.4,52.1,30.27,SE,127,11.0,16.0,74,0.00,,---,0.00,VWS V14.00,2013-05-24 13:47:00,
2013-05-24 08:48:00,60.4,52.1,30.27,SE,128,11.0,11.0,74,0.00,,---,0.00,VWS V14.00,2013-05-24 13:48:00,
2013-05-24 08:49:00,60.4,52.5,30.28,SE,129,10.0,11.0,75,0.00,,---,0.00,VWS V14.00,2013-05-24 13:49:00,
2013-05-24 08:50:00,60.5,52.2,30.28,SE,126,6.0,12.0,74,0.00,,---,0.00,VWS V14.00,2013-05-24 13:50:00,
2013-05-24 08:51:00,60.4,52.5,30.27,SE,127,9.0,11.0,75,0.00,,---,0.00,VWS V14.00,2013-05-24 13:51:00,
2013-05-24 08:52:00,60.7,52.7,30.28,ESE,119,6.0,12.0,75,0.00,,---,0.00,VWS V14.00,2013-05-24 13:52:00,
2013-05-24 08:53:00,60.7,52.7,30.28,ESE,119,6.0,6.0,75,0.00,,---,0.00,VWS V14.00,2013-05-24 13:53:00,
2013-05-24 08:54:00,60.7,52.7,30.28,SE,142,4.0,13.0,75,0.00,,---,0.00,VWS V14.00,2013-05-24 13:54:00,
2013-05-24 08:55:00,60.9,52.9,30.28,SE,142,1.0,4.0,75,0.00,,---,0.00,VWS V14.00,2013-05-24 13:55:00,
2013-05-24 08:56:00,60.7,52.7,30.28,SE,142,5.0,13.0,75,0.00,,---,0.00,VWS V14.00,2013-05-24 13:56:00,
2013-05-24 08:57:00,61.0,52.7,30.28,SE,141,1.0,5.0,74,0.00,,---,0.00,VWS V14.00,2013-05-24 13:57:00,
2013-05-24 08:58:00,61.2,53.2,30.28,SE,141,3.0,6.0,75,0.00,,---,0.00,VWS V14.00,2013-05-24 13:58:00,
2013-05-24 08:59:00,61.2,52.9,30.28,SE,141,9.0,9.0,74,0.00,,---,0.00,VWS V14.00,2013-05-24 13:59:00,
2013-05-24 09:00:00,61.3,53.0,30.28,SSE,147,10.0,12.0,74,0.00,,---,0.00,VWS V14.00,2013-05-24 14:00:00,
2013-05-24 09:01:00,61.2,52.9,30.28,SE,141,8.0,8.0,74,0.00,,---,0.00,VWS V14.00,2013-05-24 14:01:00,
2013-05-24 09:02:00,61.3,51.5,30.29,SE,146,5.0,7.0,70,0.00,,---,0.00,VWS V14.00,2013-05-24 14:02:00,
2013-05-24 09:03:00,61.3,53.0,30.29,SE,141,5.0,12.0,74,0.00,,---,0.00,VWS V14.00,2013-05-24 14:03:00,
2013-05-24 09:04:00,61.3,52.6,30.29,SE,140,11.0,11.0,73,0.00,,---,0.00,VWS V14.00,2013-05-24 14:04:00,
2013-05-24 09:05:00,61.3,53.0,30.29,SE,134,7.0,17.0,74,0.00,,---,0.00,VWS V14.00,2013-05-24 14:05:00,
2013-05-24 09:06:00,61.3,52.6,30.29,SE,141,11.0,11.0,73,0.00,,---,0.00,VWS V14.00,2013-05-24 14:06:00,
2013-05-24 09:07:00,61.5,52.8,30.29,SSE,155,6.0,13.0,73,0.00,,---,0.00,VWS V14.00,2013-05-24 14:07:00,
2013-05-24 09:08:00,61.5,52.8,30.29,SE,140,13.0,14.0,73,0.00,,---,0.00,VWS V14.00,2013-05-24 14:08:00,
2013-05-24 09:09:00,61.5,52.8,30.29,ESE,109,10.0,14.0,73,0.00,,---,0.00,VWS V14.00,2013-05-24 14:09:00,
2013-05-24 09:10:00,61.5,52.8,30.29,SE,136,11.0,14.0,73,0.00,,---,0.00,VWS V14.00,2013-05-24 14:10:00,
2013-05-24 09:11:00,61.5,52.8,30.29,ESE,109,12.0,14.0,73,0.00,,---,0.00,VWS V14.00,2013-05-24 14:11:00,
2013-05-24 09:12:00,61.5,52.4,30.29,SE,130,9.0,16.0,72,0.00,,---,0.00,VWS V14.00,2013-05-24 14:12:00,
2013-05-24 09:13:00,61.5,53.2,30.29,SE,134,11.0,14.0,74,0.00,,---,0.00,VWS V14.00,2013-05-24 14:13:00,
2013-05-24 09:14:00,61.6,52.9,30.29,SE,134,9.0,14.0,73,0.00,,---,0.00,VWS V14.00,2013-05-24 14:14:00,
2013-05-24 09:15:00,61.6,52.5,30.29,ESE,111,10.0,10.0,72,0.00,,---,0.00,VWS V14.00,2013-05-24 14:15:00,
2013-05-24 09:16:00,61.6,52.9,30.29,SE,134,11.0,14.0,73,0.00,,---,0.00,VWS V14.00,2013-05-24 14:16:00,
2013-05-24 09:17:00,61.8,52.7,30.29,ESE,116,13.0,14.0,72,0.00,,---,0.00,VWS V14.00,2013-05-24 14:17:00,
2013-05-24 09:18:00,61.8,52.7,30.29,ESE,116,13.0,16.0,72,0.00,,---,0.00,VWS V14.00,2013-05-24 14:18:00,
2013-05-24 09:19:00,61.8,52.3,30.29,ESE,116,10.0,13.0,71,0.00,,---,0.00,VWS V14.00,2013-05-24 14:19:00,
2013-05-24 09:20:00,61.8,52.7,30.29,ESE,116,11.0,16.0,72,0.00,,---,0.00,VWS V14.00,2013-05-24 14:20:00,
2013-05-24 09:21:00,61.8,52.3,30.29,ESE,116,11.0,13.0,71,0.00,,---,0.00,VWS V14.00,2013-05-24 14:21:00,
2013-05-24 09:22:00,62.0,53.3,30.29,SE,128,5.0,13.0,73,0.00,,---,0.00,VWS V14.00,2013-05-24 14:22:00,
2013-05-24 09:23:00,62.0,53.3,30.29,SE,139,14.0,16.0,73,0.00,,---,0.00,VWS V14.00,2013-05-24 14:23:00,
2013-05-24 09:24:00,62.0,52.9,30.29,SE,131,7.0,14.0,72,0.00,,---,0.00,VWS V14.00,2013-05-24 14:24:00,
2013-05-24 09:25:00,62.0,52.5,30.29,SE,137,8.0,14.0,71,0.00,,---,0.00,VWS V14.00,2013-05-24 14:25:00,
2013-05-24 09:26:00,62.0,52.9,30.29,SE,131,7.0,14.0,72,0.00,,---,0.00,VWS V14.00,2013-05-24 14:26:00,
2013-05-24 09:27:00,62.1,52.6,30.29,SE,136,6.0,12.0,71,0.00,,---,0.00,VWS V14.00,2013-05-24 14:27:00,
2013-05-24 09:28:00,62.1,53.0,30.29,SE,136,16.0,17.0,72,0.00,,---,0.00,VWS V14.00,2013-05-24 14:28:00,
2013-05-24 09:29:00,62.1,53.0,30.29,SE,140,9.0,17.0,72,0.00,,---,0.00,VWS V14.00,2013-05-24 14:29:00,
2013-05-24 09:30:00,62.1,52.6,30.29,SE,139,16.0,16.0,71,0.00,,---,0.00,VWS V14.00,2013-05-24 14:30:00,
2013-05-24 09:31:00,62.1,53.0,30.29,SE,141,15.0,17.0,72,0.00,,---,0.00,VWS V14.00,2013-05-24 14:31:00,
2013-05-24 09:32:00,62.3,52.8,30.30,SE,125,10.0,18.0,71,0.00,,---,0.00,VWS V14.00,2013-05-24 14:32:00,
2013-05-24 09:33:00,62.3,52.8,30.30,SE,129,11.0,11.0,71,0.00,,---,0.00,VWS V14.00,2013-05-24 14:33:00,
2013-05-24 09:34:00,62.3,52.8,30.30,SE,125,9.0,16.0,71,0.00,,---,0.00,VWS V14.00,2013-05-24 14:34:00,
2013-05-24 09:35:00,62.3,52.4,30.30,ESE,107,6.0,12.0,70,0.00,,---,0.00,VWS V14.00,2013-05-24 14:35:00,
2013-05-24 09:36:00,62.3,52.8,30.30,SE,125,11.0,16.0,71,0.00,,---,0.00,VWS V14.00,2013-05-24 14:36:00,
2013-05-24 09:37:00,62.4,52.9,30.29,ENE,71,4.0,7.0,71,0.00,,---,0.00,VWS V14.00,2013-05-24 14:37:00,
2013-05-24 09:38:00,62.6,53.1,30.29,ESE,102,10.0,10.0,71,0.00,,---,0.00,VWS V14.00,2013-05-24 14:38:00,
2013-05-24 09:39:00,62.6,52.7,30.29,ESE,115,2.0,12.0,70,0.00,,---,0.00,VWS V14.00,2013-05-24 14:39:00,
2013-05-24 09:40:00,62.6,52.7,30.29,SE,130,10.0,15.0,70,0.00,,---,0.00,VWS V14.00,2013-05-24 14:40:00,
2013-05-24 09:41:00,62.6,52.7,30.29,ESE,115,4.0,12.0,70,0.00,,---,0.00,VWS V14.00,2013-05-24 14:41:00,
2013-05-24 09:42:00,62.6,53.1,30.29,SE,136,7.0,11.0,71,0.00,,---,0.00,VWS V14.00,2013-05-24 14:42:00,
2013-05-24 09:43:00,62.6,53.1,30.29,SE,135,9.0,12.0,71,0.00,,---,0.00,VWS V14.00,2013-05-24 14:43:00,
2013-05-24 09:44:00,62.7,53.2,30.29,SE,139,10.0,12.0,71,0.00,,---,0.00,VWS V14.00,2013-05-24 14:44:00,
2013-05-24 09:45:00,62.7,52.8,30.29,SE,140,7.0,14.0,70,0.00,,---,0.00,VWS V14.00,2013-05-24 14:45:00,
2013-05-24 09:46:00,62.7,53.2,30.29,SE,139,11.0,12.0,71,0.00,,---,0.00,VWS V14.00,2013-05-24 14:46:00,
2013-05-24 09:47:00,62.9,53.4,30.29,SE,143,6.0,7.0,71,0.00,,---,0.00,VWS V14.00,2013-05-24 14:47:00,
2013-05-24 09:48:00,62.9,53.0,30.29,SE,140,6.0,13.0,70,0.00,,---,0.00,VWS V14.00,2013-05-24 14:48:00,
2013-05-24 09:49:00,63.1,53.2,30.29,SE,140,5.0,9.0,70,0.00,,---,0.00,VWS V14.00,2013-05-24 14:49:00,
2013-05-24 09:50:00,63.2,53.3,30.29,SE,140,12.0,12.0,70,0.00,,---,0.00,VWS V14.00,2013-05-24 14:50:00,
2013-05-24 09:51:00,63.1,53.2,30.29,SE,140,8.0,9.0,70,0.00,,---,0.00,VWS V14.00,2013-05-24 14:51:00,
2013-05-24 09:52:00,63.4,53.1,30.29,SE,128,9.0,12.0,69,0.00,,---,0.00,VWS V14.00,2013-05-24 14:52:00,
2013-05-24 09:53:00,63.4,52.7,30.29,SE,126,3.0,14.0,68,0.00,,---,0.00,VWS V14.00,2013-05-24 14:53:00,
2013-05-24 09:54:00,63.4,53.1,30.29,ESE,123,13.0,13.0,69,0.00,,---,0.00,VWS V14.00,2013-05-24 14:54:00,
2013-05-24 09:55:00,63.4,52.7,30.29,ESE,122,11.0,13.0,68,0.00,,---,0.00,VWS V14.00,2013-05-24 14:55:00,
2013-05-24 09:56:00,63.4,53.1,30.29,SE,125,5.0,8.0,69,0.00,,---,0.00,VWS V14.00,2013-05-24 14:56:00,
2013-05-24 09:57:00,63.4,52.7,30.30,ESE,116,6.0,7.0,68,0.00,,---,0.00,VWS V14.00,2013-05-24 14:57:00,
2013-05-24 09:58:00,63.4,53.1,30.30,ESE,121,2.0,12.0,69,0.00,,---,0.00,VWS V14.00,2013-05-24 14:58:00,
2013-05-24 09:59:00,63.4,52.7,30.30,ESE,122,5.0,6.0,68,0.00,,---,0.00,VWS V14.00,2013-05-24 14:59:00,
2013-05-24 10:00:00,63.5,52.8,30.29,ESE,109,7.0,10.0,68,0.00,,---,0.00,VWS V14.00,2013-05-24 15:00:00,
2013-05-24 10:01:00,63.4,52.7,30.30,ESE,122,6.0,6.0,68,0.00,,---,0.00,VWS V14.00,2013-05-24 15:01:00,
2013-05-24 10:02:00,63.7,52.5,30.29,SE,136,12.0,16.0,67,0.00,,---,0.00,VWS V14.00,2013-05-24 15:02:00,
2013-05-24 10:03:00,63.7,53.3,30.29,ESE,121,8.0,16.0,69,0.00,,---,0.00,VWS V14.00,2013-05-24 15:03:00,
2013-05-24 10:04:00,63.7,52.5,30.29,ESE,108,7.0,15.0,67,0.00,,---,0.00,VWS V14.00,2013-05-24 15:04:00,
2013-05-24 10:05:00,63.7,52.5,30.29,ESE,113,11.0,15.0,67,0.00,,---,0.00,VWS V14.00,2013-05-24 15:05:00,
2013-05-24 10:06:00,63.7,52.5,30.29,ESE,108,7.0,15.0,67,0.00,,---,0.00,VWS V14.00,2013-05-24 15:06:00,
2013-05-24 10:07:00,63.7,52.5,30.29,SE,132,8.0,13.0,67,0.00,,---,0.00,VWS V14.00,2013-05-24 15:07:00,
2013-05-24 10:08:00,63.7,52.5,30.29,SE,130,10.0,11.0,67,0.00,,---,0.00,VWS V14.00,2013-05-24 15:08:00,
2013-05-24 10:09:00,63.7,52.5,30.29,SE,128,5.0,11.0,67,0.00,,---,0.00,VWS V14.00,2013-05-24 15:09:00,
2013-05-24 10:10:00,63.9,52.7,30.29,SE,138,6.0,9.0,67,0.00,,---,0.00,VWS V14.00,2013-05-24 15:10:00,
2013-05-24 10:11:00,63.7,52.5,30.29,SE,128,4.0,11.0,67,0.00,,---,0.00,VWS V14.00,2013-05-24 15:11:00,
2013-05-24 10:12:00,63.9,52.7,30.29,SE,141,12.0,15.0,67,0.00,,---,0.00,VWS V14.00,2013-05-24 15:12:00,
2013-05-24 10:13:00,63.9,52.7,30.29,SSE,147,13.0,15.0,67,0.00,,---,0.00,VWS V14.00,2013-05-24 15:13:00,
2013-05-24 10:14:00,63.9,52.7,30.29,ESE,117,7.0,16.0,67,0.00,,---,0.00,VWS V14.00,2013-05-24 15:14:00,
2013-05-24 10:15:00,64.0,52.4,30.29,ESE,123,1.0,8.0,66,0.00,,---,0.00,VWS V14.00,2013-05-24 15:15:00,
2013-05-24 10:16:00,63.9,52.7,30.29,ESE,117,11.0,16.0,67,0.00,,---,0.00,VWS V14.00,2013-05-24 15:16:00,
2013-05-24 10:17:00,64.2,53.0,30.28,SE,142,12.0,12.0,67,0.00,,---,0.00,VWS V14.00,2013-05-24 15:17:00,
2013-05-24 10:18:00,64.2,53.0,30.28,SE,145,4.0,13.0,67,0.00,,---,0.00,VWS V14.00,2013-05-24 15:18:00,
2013-05-24 10:19:00,64.3,53.1,30.28,SE,131,14.0,14.0,67,0.00,,---,0.00,VWS V14.00,2013-05-24 15:19:00,
2013-05-24 10:20:00,64.3,52.3,30.28,ESE,108,5.0,14.0,65,0.00,,---,0.00,VWS V14.00,2013-05-24 15:20:00,
2013-05-24 10:21:00,64.3,53.1,30.28,SE,144,14.0,14.0,67,0.00,,---,0.00,VWS V14.00,2013-05-24 15:21:00,
2013-05-24 10:22:00,64.5,52.9,30.28,SE,133,12.0,12.0,66,0.00,,---,0.00,VWS V14.00,2013-05-24 15:22:00,
2013-05-24 10:23:00,64.5,52.5,30.28,SE,138,7.0,17.0,65,0.00,,---,0.00,VWS V14.00,2013-05-24 15:23:00,
2013-05-24 10:24:00,64.5,52.5,30.29,ESE,115,9.0,13.0,65,0.00,,---,0.00,VWS V14.00,2013-05-24 15:24:00,
2013-05-24 10:25:00,64.5,52.5,30.29,ESE,123,7.0,11.0,65,0.00,,---,0.00,VWS V14.00,2013-05-24 15:25:00,
2013-05-24 10:26:00,64.5,52.5,30.28,East,94,5.0,10.0,65,0.00,,---,0.00,VWS V14.00,2013-05-24 15:26:00,
2013-05-24 10:27:00,64.5,52.5,30.28,ESE,123,12.0,12.0,65,0.00,,---,0.00,VWS V14.00,2013-05-24 15:27:00,
2013-05-24 10:28:00,64.7,52.7,30.28,SE,138,11.0,12.0,65,0.00,,---,0.00,VWS V14.00,2013-05-24 15:28:00,
2013-05-24 10:29:00,64.7,52.3,30.28,ESE,111,10.0,11.0,64,0.00,,---,0.00,VWS V14.00,2013-05-24 15:29:00,
2013-05-24 10:30:00,64.7,52.3,30.28,East,98,7.0,10.0,64,0.00,,---,0.00,VWS V14.00,2013-05-24 15:30:00,
2013-05-24 10:31:00,64.7,52.7,30.28,SE,136,3.0,11.0,65,0.00,,---,0.00,VWS V14.00,2013-05-24 15:31:00,
2013-05-24 10:32:00,64.8,52.3,30.28,ESE,112,7.0,13.0,64,0.00,,---,0.00,VWS V14.00,2013-05-24 15:32:00,
2013-05-24 10:33:00,64.8,52.3,30.28,SE,136,11.0,12.0,64,0.00,,---,0.00,VWS V14.00,2013-05-24 15:33:00,
2013-05-24 10:34:00,64.8,52.3,30.28,ESE,116,10.0,13.0,64,0.00,,---,0.00,VWS V14.00,2013-05-24 15:34:00,
2013-05-24 10:35:00,64.8,52.3,30.29,East,101,10.0,10.0,64,0.00,,---,0.00,VWS V14.00,2013-05-24 15:35:00,
2013-05-24 10:36:00,64.8,52.3,30.28,SE,124,8.0,13.0,64,0.00,,---,0.00,VWS V14.00,2013-05-24 15:36:00,
2013-05-24 10:37:00,64.7,51.8,30.29,ESE,109,8.0,8.0,63,0.00,,---,0.00,VWS V14.00,2013-05-24 15:37:00,
2013-05-24 10:38:00,64.8,52.3,30.29,ESE,115,15.0,15.0,64,0.00,,---,0.00,VWS V14.00,2013-05-24 15:38:00,
2013-05-24 10:39:00,64.8,52.3,30.28,ESE,115,14.0,18.0,64,0.00,,---,0.00,VWS V14.00,2013-05-24 15:39:00,
2013-05-24 10:40:00,64.7,52.3,30.29,SE,128,12.0,14.0,64,0.00,,---,0.00,VWS V14.00,2013-05-24 15:40:00,
2013-05-24 10:41:00,64.8,52.3,30.29,ESE,118,17.0,17.0,64,0.00,,---,0.00,VWS V14.00,2013-05-24 15:41:00,
2013-05-24 10:42:00,64.7,51.8,30.29,SE,146,15.0,16.0,63,0.00,,---,0.00,VWS V14.00,2013-05-24 15:42:00,
2013-05-24 10:43:00,64.7,51.8,30.29,ESE,123,11.0,18.0,63,0.00,,---,0.00,VWS V14.00,2013-05-24 15:43:00,
2013-05-24 10:44:00,64.7,52.3,30.29,SE,132,3.0,14.0,64,0.00,,---,0.00,VWS V14.00,2013-05-24 15:44:00,
2013-05-24 10:45:00,64.7,51.8,30.29,SE,126,12.0,13.0,63,0.00,,---,0.00,VWS V14.00,2013-05-24 15:45:00,
2013-05-24 10:46:00,64.7,52.3,30.29,SE,127,11.0,14.0,64,0.00,,---,0.00,VWS V14.00,2013-05-24 15:46:00,
2013-05-24 10:47:00,64.8,52.3,30.29,SE,126,7.0,13.0,64,0.00,,---,0.00,VWS V14.00,2013-05-24 15:47:00,
2013-05-24 10:48:00,64.8,51.9,30.29,East,81,2.0,11.0,63,0.00,,---,0.00,VWS V14.00,2013-05-24 15:48:00,
2013-05-24 10:49:00,64.8,51.9,30.29,East,86,3.0,9.0,63,0.00,,---,0.00,VWS V14.00,2013-05-24 15:49:00,
2013-05-24 10:50:00,65.0,52.1,30.28,ESE,113,9.0,15.0,63,0.00,,---,0.00,VWS V14.00,2013-05-24 15:50:00,
2013-05-24 10:51:00,64.8,51.9,30.29,East,86,3.0,9.0,63,0.00,,---,0.00,VWS V14.00,2013-05-24 15:51:00,
2013-05-24 10:52:00,65.3,52.4,30.28,ESE,122,2.0,7.0,63,0.00,,---,0.00,VWS V14.00,2013-05-24 15:52:00,
2013-05-24 10:53:00,65.5,52.6,30.28,SE,125,5.0,6.0,63,0.00,,---,0.00,VWS V14.00,2013-05-24 15:53:00,
2013-05-24 10:54:00,65.6,52.7,30.28,SE,132,9.0,15.0,63,0.00,,---,0.00,VWS V14.00,2013-05-24 15:54:00,
2013-05-24 10:55:00,65.6,52.7,30.28,SE,132,6.0,15.0,63,0.00,,---,0.00,VWS V14.00,2013-05-24 15:55:00,
2013-05-24 10:56:00,65.5,52.6,30.28,SE,131,13.0,13.0,63,0.00,,---,0.00,VWS V14.00,2013-05-24 15:56:00,
2013-05-24 10:57:00,65.8,52.9,30.28,ESE,117,3.0,18.0,63,0.00,,---,0.00,VWS V14.00,2013-05-24 15:57:00,
2013-05-24 10:58:00,66.0,52.6,30.28,SE,132,10.0,16.0,62,0.00,,---,0.00,VWS V14.00,2013-05-24 15:58:00,
2013-05-24 10:59:00,65.8,52.4,30.28,ENE,69,4.0,11.0,62,0.00,,---,0.00,VWS V14.00,2013-05-24 15:59:00,
2013-05-24 11:00:00,65.8,52.4,30.28,East,82,2.0,6.0,62,0.00,,---,0.00,VWS V14.00,2013-05-24 16:00:00,
2013-05-24 11:01:00,65.8,52.4,30.28,ENE,65,1.0,11.0,62,0.00,,---,0.00,VWS V14.00,2013-05-24 16:01:00,
2013-05-24 11:02:00,66.0,52.6,30.28,SE,130,6.0,13.0,62,0.00,,---,0.00,VWS V14.00,2013-05-24 16:02:00,
2013-05-24 11:03:00,66.0,52.6,30.29,SE,140,7.0,7.0,62,0.00,,---,0.00,VWS V14.00,2013-05-24 16:03:00,
2013-05-24 11:04:00,66.1,52.7,30.28,ESE,119,0.0,12.0,62,0.00,,---,0.00,VWS V14.00,2013-05-24 16:04:00,
2013-05-24 11:05:00,66.1,52.7,30.29,ESE,120,7.0,12.0,62,0.00,,---,0.00,VWS V14.00,2013-05-24 16:05:00,
2013-05-24 11:06:00,66.1,52.7,30.28,East,84,5.0,10.0,62,0.00,,---,0.00,VWS V14.00,2013-05-24 16:06:00,
2013-05-24 11:07:00,66.1,52.3,30.29,ESE,121,6.0,7.0,61,0.00,,---,0.00,VWS V14.00,2013-05-24 16:07:00,
2013-05-24 11:08:00,66.3,52.9,30.28,ESE,117,5.0,13.0,62,0.00,,---,0.00,VWS V14.00,2013-05-24 16:08:00,
2013-05-24 11:09:00,66.3,52.9,30.28,ESE,119,1.0,5.0,62,0.00,,---,0.00,VWS V14.00,2013-05-24 16:09:00,
2013-05-24 11:10:00,66.3,52.9,30.28,ESE,118,4.0,5.0,62,0.00,,---,0.00,VWS V14.00,2013-05-24 16:10:00,
2013-05-24 11:11:00,66.3,52.5,30.28,SE,145,0.0,9.0,61,0.00,,---,0.00,VWS V14.00,2013-05-24 16:11:00,
2013-05-24 11:12:00,66.4,53.0,30.28,NNE,33,2.0,7.0,62,0.00,,---,0.00,VWS V14.00,2013-05-24 16:12:00,
2013-05-24 11:13:00,66.4,53.0,30.28,SE,135,8.0,12.0,62,0.00,,---,0.00,VWS V14.00,2013-05-24 16:13:00,
2013-05-24 11:14:00,66.4,53.0,30.28,SE,130,11.0,13.0,62,0.00,,---,0.00,VWS V14.00,2013-05-24 16:14:00,
2013-05-24 11:15:00,66.4,53.0,30.28,SE,132,12.0,13.0,62,0.00,,---,0.00,VWS V14.00,2013-05-24 16:15:00,
2013-05-24 11:16:00,66.4,52.6,30.28,SE,124,11.0,16.0,61,0.00,,---,0.00,VWS V14.00,2013-05-24 16:16:00,
2013-05-24 11:17:00,66.4,52.6,30.28,SE,134,10.0,15.0,61,0.00,,---,0.00,VWS V14.00,2013-05-24 16:17:00,
2013-05-24 11:18:00,66.3,52.0,30.28,SE,140,8.0,16.0,60,0.00,,---,0.00,VWS V14.00,2013-05-24 16:18:00,
2013-05-24 11:19:00,66.3,52.5,30.28,ESE,123,15.0,16.0,61,0.00,,---,0.00,VWS V14.00,2013-05-24 16:19:00,
2013-05-24 11:20:00,66.3,52.5,30.28,SE,139,13.0,14.0,61,0.00,,---,0.00,VWS V14.00,2013-05-24 16:20:00,
2013-05-24 11:21:00,66.1,52.3,30.28,SE,130,9.0,15.0,61,0.00,,---,0.00,VWS V14.00,2013-05-24 16:21:00,
2013-05-24 11:22:00,66.1,52.7,30.28,SE,135,10.0,12.0,62,0.00,,---,0.00,VWS V14.00,2013-05-24 16:22:00,
2013-05-24 11:23:00,66.1,52.7,30.28,SE,134,16.0,16.0,62,0.00,,---,0.00,VWS V14.00,2013-05-24 16:23:00,
2013-05-24 11:24:00,66.1,52.3,30.28,SE,133,7.0,16.0,61,0.00,,---,0.00,VWS V14.00,2013-05-24 16:24:00,
2013-05-24 11:25:00,66.1,52.3,30.28,SE,133,10.0,16.0,61,0.00,,---,0.00,VWS V14.00,2013-05-24 16:25:00,
2013-05-24 11:26:00,66.3,52.9,30.28,SE,126,9.0,13.0,62,0.00,,---,0.00,VWS V14.00,2013-05-24 16:26:00,
2013-05-24 11:27:00,66.3,52.9,30.28,SE,134,11.0,12.0,62,0.00,,---,0.00,VWS V14.00,2013-05-24 16:27:00,
2013-05-24 11:28:00,66.3,52.5,30.28,SE,135,10.0,11.0,61,0.00,,---,0.00,VWS V14.00,2013-05-24 16:28:00,
2013-05-24 11:29:00,66.3,52.9,30.28,SE,135,1.0,10.0,62,0.00,,---,0.00,VWS V14.00,2013-05-24 16:29:00,
2013-05-24 11:30:00,66.3,52.5,30.28,SE,135,4.0,10.0,61,0.00,,---,0.00,VWS V14.00,2013-05-24 16:30:00,
2013-05-24 11:31:00,66.4,53.4,30.28,SE,132,18.0,18.0,63,0.00,,---,0.00,VWS V14.00,2013-05-24 16:31:00,
2013-05-24 11:32:00,66.6,53.2,30.28,SE,131,18.0,18.0,62,0.00,,---,0.00,VWS V14.00,2013-05-24 16:32:00,
2013-05-24 11:33:00,66.6,53.2,30.28,SE,138,12.0,18.0,62,0.00,,---,0.00,VWS V14.00,2013-05-24 16:33:00,
2013-05-24 11:34:00,66.6,53.2,30.28,SE,146,11.0,12.0,62,0.00,,---,0.00,VWS V14.00,2013-05-24 16:34:00,
2013-05-24 11:35:00,66.6,53.2,30.28,SE,126,6.0,12.0,62,0.00,,---,0.00,VWS V14.00,2013-05-24 16:35:00,
2013-05-24 11:36:00,66.8,53.4,30.28,NE,44,4.0,7.0,62,0.00,,---,0.00,VWS V14.00,2013-05-24 16:36:00,
2013-05-24 11:37:00,66.9,53.5,30.28,SSE,148,4.0,8.0,62,0.00,,---,0.00,VWS V14.00,2013-05-24 16:37:00,
2013-05-24 11:38:00,67.1,53.7,30.28,East,86,7.0,12.0,62,0.00,,---,0.00,VWS V14.00,2013-05-24 16:38:00,
2013-05-24 11:39:00,67.1,53.2,30.28,East,82,4.0,7.0,61,0.00,,---,0.00,VWS V14.00,2013-05-24 16:39:00,
2013-05-24 11:40:00,67.1,53.7,30.28,East,86,4.0,7.0,62,0.00,,---,0.00,VWS V14.00,2013-05-24 16:40:00,
2013-05-24 11:41:00,67.1,53.2,30.28,ESE,117,12.0,12.0,61,0.00,,---,0.00,VWS V14.00,2013-05-24 16:41:00,
2013-05-24 11:42:00,67.3,53.0,30.28,ESE,118,7.0,12.0,60,0.00,,---,0.00,VWS V14.00,2013-05-24 16:42:00,
2013-05-24 11:43:00,67.3,53.4,30.28,ESE,118,0.0,7.0,61,0.00,,---,0.00,VWS V14.00,2013-05-24 16:43:00,
2013-05-24 11:44:00,67.4,53.5,30.28,SE,146,7.0,10.0,61,0.00,,---,0.00,VWS V14.00,2013-05-24 16:44:00,
2013-05-24 11:45:00,67.4,53.5,30.28,ESE,118,5.0,5.0,61,0.00,,---,0.00,VWS V14.00,2013-05-24 16:45:00,
2013-05-24 11:46:00,67.8,53.9,30.28,SSE,148,0.0,7.0,61,0.00,,---,0.00,VWS V14.00,2013-05-24 16:46:00,
2013-05-24 11:47:00,67.8,53.9,30.28,SSE,148,0.0,2.0,61,0.00,,---,0.00,VWS V14.00,2013-05-24 16:47:00,
2013-05-24 11:48:00,67.9,54.4,30.28,SSE,148,7.0,7.0,62,0.00,,---,0.00,VWS V14.00,2013-05-24 16:48:00,
2013-05-24 11:49:00,68.1,54.6,30.28,ESE,115,5.0,14.0,62,0.00,,---,0.00,VWS V14.00,2013-05-24 16:49:00,
2013-05-24 11:50:00,68.1,54.6,30.28,SE,127,12.0,14.0,62,0.00,,---,0.00,VWS V14.00,2013-05-24 16:50:00,
2013-05-24 11:51:00,68.1,54.6,30.28,SE,129,10.0,13.0,62,0.00,,---,0.00,VWS V14.00,2013-05-24 16:51:00,
2013-05-24 11:52:00,67.9,53.5,30.28,SE,128,13.0,13.0,60,0.00,,---,0.00,VWS V14.00,2013-05-24 16:52:00,
2013-05-24 11:53:00,67.8,53.4,30.28,SE,132,7.0,13.0,60,0.00,,---,0.00,VWS V14.00,2013-05-24 16:53:00,
2013-05-24 11:54:00,67.8,53.9,30.28,SE,135,12.0,13.0,61,0.00,,---,0.00,VWS V14.00,2013-05-24 16:54:00,
2013-05-24 11:55:00,67.8,53.9,30.28,SSE,159,10.0,10.0,61,0.00,,---,0.00,VWS V14.00,2013-05-24 16:55:00,
2013-05-24 11:56:00,67.8,53.9,30.28,SE,141,9.0,10.0,61,0.00,,---,0.00,VWS V14.00,2013-05-24 16:56:00,
2013-05-24 11:57:00,67.8,53.9,30.28,SE,141,3.0,12.0,61,0.00,,---,0.00,VWS V14.00,2013-05-24 16:57:00,
2013-05-24 11:58:00,67.9,54.0,30.28,SE,138,11.0,13.0,61,0.00,,---,0.00,VWS V14.00,2013-05-24 16:58:00,
2013-05-24 11:59:00,67.9,53.5,30.28,ESE,121,13.0,19.0,60,0.00,,---,0.00,VWS V14.00,2013-05-24 16:59:00,
2013-05-24 12:00:00,67.9,53.5,30.28,ESE,119,16.0,19.0,60,0.00,,---,0.00,VWS V14.00,2013-05-24 17:00:00,
2013-05-24 12:01:00,67.8,53.9,30.27,SE,136,7.0,12.0,61,0.00,,---,0.00,VWS V14.00,2013-05-24 17:01:00,
2013-05-24 12:02:00,67.8,53.9,30.27,SE,136,3.0,9.0,61,0.00,,---,0.00,VWS V14.00,2013-05-24 17:02:00,
2013-05-24 12:03:00,67.9,54.4,30.27,SE,136,7.0,10.0,62,0.00,,---,0.00,VWS V14.00,2013-05-24 17:03:00,
2013-05-24 12:05:00,67.9,54.4,30.27,SE,134,7.0,10.0,62,0.00,,---,0.00,VWS V14.00,2013-05-24 17:05:00,
2013-05-24 12:06:00,68.1,54.2,30.27,SE,138,13.0,15.0,61,0.00,,---,0.00,VWS V14.00,2013-05-24 17:06:00,
2013-05-24 12:07:00,68.1,53.7,30.27,SE,133,12.0,14.0,60,0.00,,---,0.00,VWS V14.00,2013-05-24 17:07:00,
2013-05-24 12:08:00,68.1,54.2,30.27,SE,130,14.0,15.0,61,0.00,,---,0.00,VWS V14.00,2013-05-24 17:08:00,
2013-05-24 12:09:00,68.1,53.7,30.27,SE,130,6.0,14.0,60,0.00,,---,0.00,VWS V14.00,2013-05-24 17:09:00,
2013-05-24 12:10:00,68.1,54.2,30.27,SE,130,12.0,14.0,61,0.00,,---,0.00,VWS V14.00,2013-05-24 17:10:00,
2013-05-24 12:11:00,68.1,54.2,30.27,ESE,112,10.0,16.0,61,0.00,,---,0.00,VWS V14.00,2013-05-24 17:11:00,
2013-05-24 12:12:00,68.1,53.7,30.27,ESE,123,9.0,13.0,60,0.00,,---,0.00,VWS V14.00,2013-05-24 17:12:00,
2013-05-24 12:13:00,68.3,54.3,30.27,ESE,109,0.0,15.0,61,0.00,,---,0.00,VWS V14.00,2013-05-24 17:13:00,
2013-05-24 12:14:00,68.3,53.9,30.27,ESE,110,0.0,7.0,60,0.00,,---,0.00,VWS V14.00,2013-05-24 17:14:00,
2013-05-24 12:15:00,68.3,53.9,30.27,ESE,110,4.0,7.0,60,0.00,,---,0.00,VWS V14.00,2013-05-24 17:15:00,
2013-05-24 12:16:00,68.4,54.4,30.27,ESE,110,1.0,4.0,61,0.00,,---,0.00,VWS V14.00,2013-05-24 17:16:00,
2013-05-24 12:17:00,68.6,54.6,30.27,SE,132,14.0,14.0,61,0.00,,---,0.00,VWS V14.00,2013-05-24 17:17:00,
2013-05-24 12:18:00,68.8,54.4,30.27,SE,129,10.0,16.0,60,0.00,,---,0.00,VWS V14.00,2013-05-24 17:18:00,
2013-05-24 12:19:00,68.8,53.9,30.27,SE,130,5.0,10.0,59,0.00,,---,0.00,VWS V14.00,2013-05-24 17:19:00,
2013-05-24 12:20:00,68.8,53.9,30.27,SE,129,7.0,10.0,59,0.00,,---,0.00,VWS V14.00,2013-05-24 17:20:00,
2013-05-24 12:21:00,68.8,54.4,30.27,ESE,112,3.0,10.0,60,0.00,,---,0.00,VWS V14.00,2013-05-24 17:21:00,
2013-05-24 12:22:00,68.8,54.4,30.27,ESE,110,2.0,5.0,60,0.00,,---,0.00,VWS V14.00,2013-05-24 17:22:00,
2013-05-24 12:23:00,68.9,54.5,30.27,ESE,110,3.0,5.0,60,0.00,,---,0.00,VWS V14.00,2013-05-24 17:23:00,
2013-05-24 12:24:00,68.9,54.5,30.27,ESE,111,2.0,5.0,60,0.00,,---,0.00,VWS V14.00,2013-05-24 17:24:00,
2013-05-24 12:25:00,68.9,54.5,30.27,ESE,111,1.0,5.0,60,0.00,,---,0.00,VWS V14.00,2013-05-24 17:25:00,
2013-05-24 12:26:00,69.1,54.7,30.27,ESE,123,3.0,8.0,60,0.00,,---,0.00,VWS V14.00,2013-05-24 17:26:00,
2013-05-24 12:27:00,69.1,54.7,30.27,ESE,123,1.0,4.0,60,0.00,,---,0.00,VWS V14.00,2013-05-24 17:27:00,
2013-05-24 12:28:00,69.3,54.8,30.27,ESE,118,1.0,10.0,60,0.00,,---,0.00,VWS V14.00,2013-05-24 17:28:00,
2013-05-24 12:29:00,69.3,54.8,30.27,ESE,115,5.0,11.0,60,0.00,,---,0.00,VWS V14.00,2013-05-24 17:29:00,
2013-05-24 12:30:00,69.3,54.8,30.27,SE,134,5.0,10.0,60,0.00,,---,0.00,VWS V14.00,2013-05-24 17:30:00,
2013-05-24 12:31:00,69.4,54.9,30.27,ESE,113,0.0,5.0,60,0.00,,---,0.00,VWS V14.00,2013-05-24 17:31:00,
2013-05-24 12:32:00,69.4,54.9,30.27,ESE,113,1.0,4.0,60,0.00,,---,0.00,VWS V14.00,2013-05-24 17:32:00,
2013-05-24 12:33:00,69.6,55.1,30.26,ESE,114,6.0,11.0,60,0.00,,---,0.00,VWS V14.00,2013-05-24 17:33:00,
2013-05-24 12:34:00,69.6,54.7,30.26,ENE,74,6.0,8.0,59,0.00,,---,0.00,VWS V14.00,2013-05-24 17:34:00,
2013-05-24 12:35:00,69.6,54.7,30.26,East,92,4.0,8.0,59,0.00,,---,0.00,VWS V14.00,2013-05-24 17:35:00,
2013-05-24 12:36:00,69.6,55.1,30.26,ESE,121,11.0,11.0,60,0.00,,---,0.00,VWS V14.00,2013-05-24 17:36:00,
2013-05-24 12:37:00,69.6,55.1,30.26,SE,138,11.0,13.0,60,0.00,,---,0.00,VWS V14.00,2013-05-24 17:37:00,
2013-05-24 12:38:00,69.6,54.7,30.26,SE,138,7.0,11.0,59,0.00,,---,0.00,VWS V14.00,2013-05-24 17:38:00,
2013-05-24 12:39:00,69.4,54.9,30.26,SE,139,7.0,11.0,60,0.00,,---,0.00,VWS V14.00,2013-05-24 17:39:00,
2013-05-24 12:40:00,69.4,54.5,30.26,SE,139,11.0,11.0,59,0.00,,---,0.00,VWS V14.00,2013-05-24 17:40:00,
2013-05-24 12:41:00,69.4,54.9,30.26,SE,138,2.0,7.0,60,0.00,,---,0.00,VWS V14.00,2013-05-24 17:41:00,
2013-05-24 12:42:00,69.4,54.9,30.26,SE,140,1.0,2.0,60,0.00,,---,0.00,VWS V14.00,2013-05-24 17:42:00,
2013-05-24 12:43:00,69.6,55.1,30.26,ESE,109,0.0,6.0,60,0.00,,---,0.00,VWS V14.00,2013-05-24 17:43:00,
2013-05-24 12:44:00,69.8,56.2,30.26,ESE,103,13.0,13.0,62,0.00,,---,0.00,VWS V14.00,2013-05-24 17:44:00,
2013-05-24 12:45:00,69.6,55.1,30.26,ESE,103,11.0,11.0,60,0.00,,---,0.00,VWS V14.00,2013-05-24 17:45:00,
2013-05-24 12:46:00,69.8,54.8,30.25,ESE,105,4.0,11.0,59,0.00,,---,0.00,VWS V14.00,2013-05-24 17:46:00,
2013-05-24 12:47:00,69.8,55.3,30.25,ESE,117,5.0,7.0,60,0.00,,---,0.00,VWS V14.00,2013-05-24 17:47:00,
2013-05-24 12:48:00,69.8,55.3,30.25,ESE,117,4.0,6.0,60,0.00,,---,0.00,VWS V14.00,2013-05-24 17:48:00,
2013-05-24 12:49:00,69.9,55.4,30.25,ESE,110,5.0,10.0,60,0.00,,---,0.00,VWS V14.00,2013-05-24 17:49:00,
2013-05-24 12:50:00,69.8,54.8,30.25,ESE,118,6.0,6.0,59,0.00,,---,0.00,VWS V14.00,2013-05-24 17:50:00,
2013-05-24 12:51:00,69.9,55.4,30.25,SE,144,10.0,11.0,60,0.00,,---,0.00,VWS V14.00,2013-05-24 17:51:00,
2013-05-24 12:52:00,70.1,55.1,30.25,SE,128,16.0,18.0,59,0.00,,---,0.00,VWS V14.00,2013-05-24 17:52:00,
2013-05-24 12:53:00,70.1,55.6,30.26,SE,135,16.0,16.0,60,0.00,,---,0.00,VWS V14.00,2013-05-24 17:53:00,
2013-05-24 12:54:00,70.1,55.1,30.25,SE,136,12.0,16.0,59,0.00,,---,0.00,VWS V14.00,2013-05-24 17:54:00,
2013-05-24 12:55:00,70.1,55.1,30.26,SE,136,7.0,16.0,59,0.00,,---,0.00,VWS V14.00,2013-05-24 17:55:00,
2013-05-24 12:56:00,70.1,55.6,30.25,SE,132,5.0,6.0,60,0.00,,---,0.00,VWS V14.00,2013-05-24 17:56:00,
2013-05-24 12:57:00,70.1,55.6,30.25,SE,132,5.0,7.0,60,0.00,,---,0.00,VWS V14.00,2013-05-24 17:57:00,
2013-05-24 12:58:00,70.1,55.6,30.25,ESE,117,3.0,8.0,60,0.00,,---,0.00,VWS V14.00,2013-05-24 17:58:00,
2013-05-24 12:59:00,70.3,55.8,30.25,ESE,119,19.0,19.0,60,0.00,,---,0.00,VWS V14.00,2013-05-24 17:59:00,
2013-05-24 13:00:00,70.3,55.8,30.25,ESE,117,1.0,5.0,60,0.00,,---,0.00,VWS V14.00,2013-05-24 18:00:00,
2013-05-24 13:01:00,70.3,55.3,30.25,ESE,107,6.0,11.0,59,0.00,,---,0.00,VWS V14.00,2013-05-24 18:01:00,
2013-05-24 13:02:00,70.4,55.9,30.25,ESE,112,9.0,10.0,60,0.00,,---,0.00,VWS V14.00,2013-05-24 18:02:00,
2013-05-24 13:03:00,70.4,55.4,30.25,ESE,113,5.0,9.0,59,0.00,,---,0.00,VWS V14.00,2013-05-24 18:03:00,
2013-05-24 13:04:00,70.4,55.9,30.25,East,98,4.0,11.0,60,0.00,,---,0.00,VWS V14.00,2013-05-24 18:04:00,
2013-05-24 13:05:00,70.4,55.9,30.25,ESE,112,6.0,11.0,60,0.00,,---,0.00,VWS V14.00,2013-05-24 18:05:00,
2013-05-24 13:06:00,70.6,55.6,30.25,East,99,2.0,11.0,59,0.00,,---,0.00,VWS V14.00,2013-05-24 18:06:00,
2013-05-24 13:07:00,70.6,55.6,30.25,ESE,104,4.0,7.0,59,0.00,,---,0.00,VWS V14.00,2013-05-24 18:07:00,
2013-05-24 13:08:00,70.8,55.8,30.25,SE,134,9.0,16.0,59,0.00,,---,0.00,VWS V14.00,2013-05-24 18:08:00,
2013-05-24 13:09:00,70.6,55.6,30.25,SE,132,4.0,10.0,59,0.00,,---,0.00,VWS V14.00,2013-05-24 18:09:00,
2013-05-24 13:10:00,70.6,55.6,30.25,SE,132,3.0,10.0,59,0.00,,---,0.00,VWS V14.00,2013-05-24 18:10:00,
2013-05-24 13:11:00,70.6,55.6,30.25,SE,131,5.0,11.0,59,0.00,,---,0.00,VWS V14.00,2013-05-24 18:11:00,
2013-05-24 13:12:00,70.6,55.6,30.25,SE,135,13.0,13.0,59,0.00,,---,0.00,VWS V14.00,2013-05-24 18:12:00,
2013-05-24 13:13:00,70.6,56.1,30.25,SE,134,4.0,13.0,60,0.00,,---,0.00,VWS V14.00,2013-05-24 18:13:00,
2013-05-24 13:14:00,70.6,55.1,30.25,SE,134,2.0,5.0,58,0.00,,---,0.00,VWS V14.00,2013-05-24 18:14:00,
2013-05-24 13:15:00,70.6,56.1,30.25,SE,134,0.0,5.0,60,0.00,,---,0.00,VWS V14.00,2013-05-24 18:15:00,
2013-05-24 13:16:00,70.6,55.6,30.25,SE,134,0.0,3.0,59,0.00,,---,0.00,VWS V14.00,2013-05-24 18:16:00,
2013-05-24 13:17:00,70.8,56.2,30.25,ESE,121,11.0,18.0,60,0.00,,---,0.00,VWS V14.00,2013-05-24 18:17:00,
2013-05-24 13:18:00,70.9,55.4,30.25,SE,128,14.0,16.0,58,0.00,,---,0.00,VWS V14.00,2013-05-24 18:18:00,
2013-05-24 13:19:00,70.8,55.8,30.25,SE,134,11.0,16.0,59,0.00,,---,0.00,VWS V14.00,2013-05-24 18:19:00,
2013-05-24 13:20:00,70.8,55.3,30.25,SE,128,14.0,16.0,58,0.00,,---,0.00,VWS V14.00,2013-05-24 18:20:00,
2013-05-24 13:21:00,70.9,56.3,30.25,SE,132,5.0,16.0,60,0.00,,---,0.00,VWS V14.00,2013-05-24 18:21:00,
2013-05-24 13:22:00,70.9,55.9,30.25,SE,131,3.0,9.0,59,0.00,,---,0.00,VWS V14.00,2013-05-24 18:22:00,
2013-05-24 13:23:00,71.1,55.6,30.25,SE,131,3.0,5.0,58,0.00,,---,0.00,VWS V14.00,2013-05-24 18:23:00,
2013-05-24 13:24:00,71.1,56.1,30.25,ESE,109,9.0,13.0,59,0.00,,---,0.00,VWS V14.00,2013-05-24 18:24:00,
2013-05-24 13:25:00,71.1,56.1,30.25,ESE,119,12.0,12.0,59,0.00,,---,0.00,VWS V14.00,2013-05-24 18:25:00,
2013-05-24 13:26:00,71.1,55.6,30.25,East,98,7.0,11.0,58,0.00,,---,0.00,VWS V14.00,2013-05-24 18:26:00,
2013-05-24 13:27:00,71.1,56.1,30.25,East,98,11.0,15.0,59,0.00,,---,0.00,VWS V14.00,2013-05-24 18:27:00,
2013-05-24 13:28:00,71.1,56.1,30.24,East,99,5.0,14.0,59,0.00,,---,0.00,VWS V14.00,2013-05-24 18:28:00,
2013-05-24 13:29:00,71.3,56.7,30.24,East,99,2.0,9.0,60,0.00,,---,0.00,VWS V14.00,2013-05-24 18:29:00,
2013-05-24 13:30:00,71.3,56.7,30.24,East,99,2.0,9.0,60,0.00,,---,0.00,VWS V14.00,2013-05-24 18:30:00,
2013-05-24 13:31:00,71.3,56.2,30.24,East,99,5.0,13.0,59,0.00,,---,0.00,VWS V14.00,2013-05-24 18:31:00,
2013-05-24 13:32:00,71.5,56.4,30.24,East,88,4.0,7.0,59,0.00,,---,0.00,VWS V14.00,2013-05-24 18:32:00,
2013-05-24 13:33:00,71.5,56.9,30.24,SE,135,6.0,10.0,60,0.00,,---,0.00,VWS V14.00,2013-05-24 18:33:00,
2013-05-24 13:34:00,71.6,56.5,30.24,SE,134,6.0,13.0,59,0.00,,---,0.00,VWS V14.00,2013-05-24 18:34:00,
2013-05-24 13:35:00,71.6,56.5,30.24,SE,135,10.0,10.0,59,0.00,,---,0.00,VWS V14.00,2013-05-24 18:35:00,
2013-05-24 13:36:00,71.6,56.1,30.24,SE,136,11.0,12.0,58,0.00,,---,0.00,VWS V14.00,2013-05-24 18:36:00,
2013-05-24 13:37:00,71.6,56.5,30.24,SE,127,10.0,11.0,59,0.00,,---,0.00,VWS V14.00,2013-05-24 18:37:00,
2013-05-24 13:38:00,71.6,56.5,30.24,ESE,120,10.0,17.0,59,0.00,,---,0.00,VWS V14.00,2013-05-24 18:38:00,
2013-05-24 13:39:00,71.5,56.0,30.24,ESE,119,6.0,10.0,58,0.00,,---,0.00,VWS V14.00,2013-05-24 18:39:00,
2013-05-24 13:40:00,71.6,56.1,30.24,ESE,119,8.0,10.0,58,0.00,,---,0.00,VWS V14.00,2013-05-24 18:40:00,
2013-05-24 13:41:00,71.6,56.1,30.24,SE,133,12.0,18.0,58,0.00,,---,0.00,VWS V14.00,2013-05-24 18:41:00,
2013-05-24 13:42:00,71.6,56.1,30.24,ESE,119,12.0,16.0,58,0.00,,---,0.00,VWS V14.00,2013-05-24 18:42:00,
2013-05-24 13:43:00,71.6,56.1,30.24,SE,128,14.0,15.0,58,0.00,,---,0.00,VWS V14.00,2013-05-24 18:43:00,
2013-05-24 13:44:00,71.5,56.0,30.24,SE,136,7.0,14.0,58,0.00,,---,0.00,VWS V14.00,2013-05-24 18:44:00,
2013-05-24 13:45:00,71.5,56.0,30.24,SE,133,11.0,14.0,58,0.00,,---,0.00,VWS V14.00,2013-05-24 18:45:00,
2013-05-24 13:46:00,71.5,56.0,30.24,SSE,149,6.0,9.0,58,0.00,,---,0.00,VWS V14.00,2013-05-24 18:46:00,
2013-05-24 13:47:00,71.6,56.5,30.24,SSE,148,4.0,7.0,59,0.00,,---,0.00,VWS V14.00,2013-05-24 18:47:00,
2013-05-24 13:48:00,71.8,56.7,30.24,SE,140,9.0,10.0,59,0.00,,---,0.00,VWS V14.00,2013-05-24 18:48:00,
2013-05-24 13:49:00,71.8,56.7,30.24,SE,139,12.0,13.0,59,0.00,,---,0.00,VWS V14.00,2013-05-24 18:49:00,
2013-05-24 13:50:00,71.8,56.7,30.24,SE,140,11.0,13.0,59,0.00,,---,0.00,VWS V14.00,2013-05-24 18:50:00,
2013-05-24 13:51:00,72.0,56.4,30.24,SE,131,5.0,11.0,58,0.00,,---,0.00,VWS V14.00,2013-05-24 18:51:00,
2013-05-24 13:52:00,72.1,56.5,30.24,SE,129,3.0,8.0,58,0.00,,---,0.00,VWS V14.00,2013-05-24 18:52:00,
2013-05-24 13:53:00,72.1,56.5,30.23,SE,128,0.0,11.0,58,0.00,,---,0.00,VWS V14.00,2013-05-24 18:53:00,
2013-05-24 13:54:00,72.3,56.7,30.24,SE,128,10.0,10.0,58,0.00,,---,0.00,VWS V14.00,2013-05-24 18:54:00,
2013-05-24 13:55:00,72.1,56.5,30.23,SE,128,7.0,7.0,58,0.00,,---,0.00,VWS V14.00,2013-05-24 18:55:00,
2013-05-24 13:56:00,72.3,56.7,30.24,SE,142,5.0,11.0,58,0.00,,---,0.00,VWS V14.00,2013-05-24 18:56:00,
2013-05-24 13:57:00,72.3,56.7,30.23,SE,142,3.0,5.0,58,0.00,,---,0.00,VWS V14.00,2013-05-24 18:57:00,
2013-05-24 13:58:00,72.3,56.7,30.23,SE,142,10.0,11.0,58,0.00,,---,0.00,VWS V14.00,2013-05-24 18:58:00,
2013-05-24 13:59:00,72.5,57.4,30.23,SE,132,16.0,16.0,59,0.00,,---,0.00,VWS V14.00,2013-05-24 18:59:00,
2013-05-24 14:00:00,72.3,56.7,30.23,SE,136,7.0,10.0,58,0.00,,---,0.00,VWS V14.00,2013-05-24 19:00:00,
2013-05-24 14:01:00,72.3,56.2,30.24,SE,125,11.0,15.0,57,0.00,,---,0.00,VWS V14.00,2013-05-24 19:01:00,
2013-05-24 14:02:00,72.1,56.0,30.24,SE,129,7.0,15.0,57,0.00,,---,0.00,VWS V14.00,2013-05-24 19:02:00,
2013-05-24 14:03:00,72.1,56.0,30.24,SE,130,4.0,10.0,57,0.00,,---,0.00,VWS V14.00,2013-05-24 19:03:00,
2013-05-24 14:04:00,72.1,56.0,30.23,SE,129,2.0,4.0,57,0.00,,---,0.00,VWS V14.00,2013-05-24 19:04:00,
2013-05-24 14:05:00,72.1,56.0,30.24,SE,129,0.0,4.0,57,0.00,,---,0.00,VWS V14.00,2013-05-24 19:05:00,
2013-05-24 14:06:00,72.3,56.7,30.23,SE,133,6.0,13.0,58,0.00,,---,0.00,VWS V14.00,2013-05-24 19:06:00,
2013-05-24 14:07:00,72.3,56.7,30.23,SE,132,10.0,12.0,58,0.00,,---,0.00,VWS V14.00,2013-05-24 19:07:00,
2013-05-24 14:08:00,72.3,56.7,30.23,ESE,120,6.0,14.0,58,0.00,,---,0.00,VWS V14.00,2013-05-24 19:08:00,
2013-05-24 14:09:00,72.3,56.7,30.23,ESE,121,7.0,7.0,58,0.00,,---,0.00,VWS V14.00,2013-05-24 19:09:00,
2013-05-24 14:10:00,72.3,56.7,30.23,ESE,120,2.0,7.0,58,0.00,,---,0.00,VWS V14.00,2013-05-24 19:10:00,
2013-05-24 14:11:00,72.5,56.9,30.23,SE,126,0.0,9.0,58,0.00,,---,0.00,VWS V14.00,2013-05-24 19:11:00,
2013-05-24 14:12:00,72.7,57.1,30.23,SE,126,12.0,13.0,58,0.00,,---,0.00,VWS V14.00,2013-05-24 19:12:00,
2013-05-24 14:13:00,72.7,57.1,30.23,SE,132,11.0,16.0,58,0.00,,---,0.00,VWS V14.00,2013-05-24 19:13:00,
2013-05-24 14:14:00,72.8,56.7,30.23,SE,145,15.0,16.0,57,0.00,,---,0.00,VWS V14.00,2013-05-24 19:14:00,
2013-05-24 14:15:00,72.8,57.2,30.23,SSE,150,10.0,16.0,58,0.00,,---,0.00,VWS V14.00,2013-05-24 19:15:00,
2013-05-24 14:16:00,72.7,56.6,30.23,SE,131,4.0,7.0,57,0.00,,---,0.00,VWS V14.00,2013-05-24 19:16:00,
2013-05-24 14:17:00,72.7,56.6,30.23,SE,128,10.0,11.0,57,0.00,,---,0.00,VWS V14.00,2013-05-24 19:17:00,
2013-05-24 14:18:00,72.8,56.7,30.23,East,101,0.0,10.0,57,0.00,,---,0.00,VWS V14.00,2013-05-24 19:18:00,
2013-05-24 14:19:00,72.8,57.2,30.23,ESE,107,4.0,7.0,58,0.00,,---,0.00,VWS V14.00,2013-05-24 19:19:00,
2013-05-24 14:20:00,72.8,56.7,30.23,East,101,6.0,6.0,57,0.00,,---,0.00,VWS V14.00,2013-05-24 19:20:00,
2013-05-24 14:21:00,72.8,56.7,30.23,SE,133,9.0,14.0,57,0.00,,---,0.00,VWS V14.00,2013-05-24 19:21:00,
2013-05-24 14:22:00,73.0,57.4,30.23,SE,128,6.0,10.0,58,0.00,,---,0.00,VWS V14.00,2013-05-24 19:22:00,
2013-05-24 14:23:00,73.0,56.9,30.23,SE,128,1.0,6.0,57,0.00,,---,0.00,VWS V14.00,2013-05-24 19:23:00,
2013-05-24 14:24:00,73.2,57.5,30.23,SE,128,4.0,5.0,58,0.00,,---,0.00,VWS V14.00,2013-05-24 19:24:00,
2013-05-24 14:25:00,73.2,57.1,30.23,SE,128,3.0,4.0,57,0.00,,---,0.00,VWS V14.00,2013-05-24 19:25:00,
2013-05-24 14:26:00,73.5,57.8,30.23,SE,131,6.0,7.0,58,0.00,,---,0.00,VWS V14.00,2013-05-24 19:26:00,
2013-05-24 14:27:00,73.5,57.3,30.23,SE,141,7.0,14.0,57,0.00,,---,0.00,VWS V14.00,2013-05-24 19:27:00,
2013-05-24 14:28:00,73.5,57.3,30.23,SE,131,7.0,11.0,57,0.00,,---,0.00,VWS V14.00,2013-05-24 19:28:00,
2013-05-24 14:29:00,73.5,56.9,30.23,SE,140,12.0,12.0,56,0.00,,---,0.00,VWS V14.00,2013-05-24 19:29:00,
2013-05-24 14:30:00,73.5,57.3,30.23,SE,144,4.0,11.0,57,0.00,,---,0.00,VWS V14.00,2013-05-24 19:30:00,
2013-05-24 14:31:00,73.2,56.6,30.23,SE,132,10.0,12.0,56,0.00,,---,0.00,VWS V14.00,2013-05-24 19:31:00,
2013-05-24 14:32:00,73.2,56.6,30.23,SE,132,5.0,10.0,56,0.00,,---,0.00,VWS V14.00,2013-05-24 19:32:00,
2013-05-24 14:33:00,73.2,57.1,30.23,SE,130,6.0,10.0,57,0.00,,---,0.00,VWS V14.00,2013-05-24 19:33:00,
2013-05-24 14:34:00,73.2,56.6,30.23,SE,130,2.0,6.0,56,0.00,,---,0.00,VWS V14.00,2013-05-24 19:34:00,
2013-05-24 14:35:00,73.2,56.6,30.23,SE,130,5.0,6.0,56,0.00,,---,0.00,VWS V14.00,2013-05-24 19:35:00,
2013-05-24 14:36:00,73.2,57.1,30.23,SE,130,3.0,3.0,57,0.00,,---,0.00,VWS V14.00,2013-05-24 19:36:00,
2013-05-24 14:37:00,73.2,57.1,30.23,SE,135,6.0,10.0,57,0.00,,---,0.00,VWS V14.00,2013-05-24 19:37:00,
2013-05-24 14:38:00,73.3,57.2,30.23,SE,135,8.0,13.0,57,0.00,,---,0.00,VWS V14.00,2013-05-24 19:38:00,
2013-05-24 14:39:00,73.5,57.3,30.23,SE,132,5.0,13.0,57,0.00,,---,0.00,VWS V14.00,2013-05-24 19:39:00,
2013-05-24 14:40:00,73.3,57.2,30.23,SE,133,13.0,13.0,57,0.00,,---,0.00,VWS V14.00,2013-05-24 19:40:00,
2013-05-24 14:41:00,73.5,57.3,30.23,South,173,11.0,13.0,57,0.00,,---,0.00,VWS V14.00,2013-05-24 19:41:00,
2013-05-24 14:42:00,73.5,57.8,30.22,SSE,167,6.0,11.0,58,0.00,,---,0.00,VWS V14.00,2013-05-24 19:42:00,
2013-05-24 14:43:00,73.5,57.3,30.22,SSE,161,5.0,7.0,57,0.00,,---,0.00,VWS V14.00,2013-05-24 19:43:00,
2013-05-24 14:44:00,73.7,57.5,30.22,SSE,160,7.0,7.0,57,0.00,,---,0.00,VWS V14.00,2013-05-24 19:44:00,
2013-05-24 14:45:00,73.5,57.3,30.22,SSE,161,0.0,5.0,57,0.00,,---,0.00,VWS V14.00,2013-05-24 19:45:00,
2013-05-24 14:46:00,73.7,57.5,30.22,SE,145,2.0,11.0,57,0.00,,---,0.00,VWS V14.00,2013-05-24 19:46:00,
2013-05-24 14:47:00,73.9,57.7,30.22,SE,145,3.0,5.0,57,0.00,,---,0.00,VWS V14.00,2013-05-24 19:47:00,
2013-05-24 14:48:00,73.9,57.7,30.22,SE,145,10.0,10.0,57,0.00,,---,0.00,VWS V14.00,2013-05-24 19:48:00,
2013-05-24 14:49:00,74.0,57.8,30.22,SE,145,2.0,10.0,57,0.00,,---,0.00,VWS V14.00,2013-05-24 19:49:00,
2013-05-24 14:50:00,73.9,57.7,30.22,SE,145,0.0,10.0,57,0.00,,---,0.00,VWS V14.00,2013-05-24 19:50:00,
2013-05-24 14:51:00,74.2,57.5,30.22,ESE,118,8.0,12.0,56,0.00,,---,0.00,VWS V14.00,2013-05-24 19:51:00,
2013-05-24 14:52:00,74.0,57.3,30.22,ESE,112,5.0,11.0,56,0.00,,---,0.00,VWS V14.00,2013-05-24 19:52:00,
2013-05-24 14:53:00,74.0,56.3,30.22,ESE,112,5.0,10.0,54,0.00,,---,0.00,VWS V14.00,2013-05-24 19:53:00,
2013-05-24 14:54:00,74.0,57.3,30.22,ESE,112,10.0,11.0,56,0.00,,---,0.00,VWS V14.00,2013-05-24 19:54:00,
2013-05-24 14:55:00,74.0,56.3,30.22,ESE,112,5.0,9.0,54,0.00,,---,0.00,VWS V14.00,2013-05-24 19:55:00,
2013-05-24 14:56:00,73.9,57.2,30.22,ESE,111,0.0,6.0,56,0.00,,---,0.00,VWS V14.00,2013-05-24 19:56:00,
2013-05-24 14:57:00,73.9,57.2,30.22,ESE,110,2.0,4.0,56,0.00,,---,0.00,VWS V14.00,2013-05-24 19:57:00,
2013-05-24 14:58:00,73.9,57.7,30.22,ESE,110,0.0,2.0,57,0.00,,---,0.00,VWS V14.00,2013-05-24 19:58:00,
2013-05-24 14:59:00,74.0,57.3,30.22,ESE,110,5.0,5.0,56,0.00,,---,0.00,VWS V14.00,2013-05-24 19:59:00,
2013-05-24 15:00:00,74.0,57.8,30.22,ESE,110,0.0,1.0,57,0.00,,---,0.00,VWS V14.00,2013-05-24 20:00:00,
2013-05-24 15:01:00,74.2,57.5,30.22,ENE,61,7.0,10.0,56,0.00,,---,0.00,VWS V14.00,2013-05-24 20:01:00,
2013-05-24 15:02:00,74.2,57.5,30.22,East,79,6.0,11.0,56,0.00,,---,0.00,VWS V14.00,2013-05-24 20:02:00,
2013-05-24 15:03:00,74.2,57.5,30.22,East,80,4.0,9.0,56,0.00,,---,0.00,VWS V14.00,2013-05-24 20:03:00,
2013-05-24 15:04:00,74.2,57.5,30.22,East,80,1.0,5.0,56,0.00,,---,0.00,VWS V14.00,2013-05-24 20:04:00,
2013-05-24 15:05:00,74.2,57.5,30.22,East,80,3.0,5.0,56,0.00,,---,0.00,VWS V14.00,2013-05-24 20:05:00,
2013-05-24 15:06:00,74.2,57.5,30.22,SSE,148,4.0,11.0,56,0.00,,---,0.00,VWS V14.00,2013-05-24 20:06:00,
2013-05-24 15:07:00,74.2,57.5,30.22,SE,145,3.0,10.0,56,0.00,,---,0.00,VWS V14.00,2013-05-24 20:07:00,
2013-05-24 15:08:00,74.2,57.5,30.22,SE,143,10.0,10.0,56,0.00,,---,0.00,VWS V14.00,2013-05-24 20:08:00,
2013-05-24 15:09:00,74.2,57.5,30.22,ESE,119,0.0,11.0,56,0.00,,---,0.00,VWS V14.00,2013-05-24 20:09:00,
2013-05-24 15:10:00,74.2,57.5,30.22,ESE,119,3.0,11.0,56,0.00,,---,0.00,VWS V14.00,2013-05-24 20:10:00,
2013-05-24 15:11:00,74.2,57.5,30.22,ESE,104,0.0,7.0,56,0.00,,---,0.00,VWS V14.00,2013-05-24 20:11:00,
2013-05-24 15:12:00,74.2,57.5,30.22,ESE,104,5.0,5.0,56,0.00,,---,0.00,VWS V14.00,2013-05-24 20:12:00,
2013-05-24 15:13:00,74.4,57.7,30.22,ESE,111,5.0,5.0,56,0.00,,---,0.00,VWS V14.00,2013-05-24 20:13:00,
2013-05-24 15:14:00,74.4,58.2,30.22,SE,146,10.0,12.0,57,0.00,,---,0.00,VWS V14.00,2013-05-24 20:14:00,
2013-05-24 15:15:00,74.4,58.2,30.22,SSE,153,4.0,5.0,57,0.00,,---,0.00,VWS V14.00,2013-05-24 20:15:00,
2013-05-24 15:16:00,74.6,58.4,30.22,SE,138,9.0,12.0,57,0.00,,---,0.00,VWS V14.00,2013-05-24 20:16:00,
2013-05-24 15:17:00,74.7,58.0,30.22,SE,142,11.0,11.0,56,0.00,,---,0.00,VWS V14.00,2013-05-24 20:17:00,
2013-05-24 15:18:00,74.7,58.0,30.22,ESE,111,8.0,12.0,56,0.00,,---,0.00,VWS V14.00,2013-05-24 20:18:00,
2013-05-24 15:19:00,74.6,57.9,30.22,East,89,7.0,12.0,56,0.00,,---,0.00,VWS V14.00,2013-05-24 20:19:00,
2013-05-24 15:20:00,74.6,57.9,30.22,ESE,117,10.0,12.0,56,0.00,,---,0.00,VWS V14.00,2013-05-24 20:20:00,
2013-05-24 15:21:00,74.6,58.4,30.21,East,96,5.0,6.0,57,0.00,,---,0.00,VWS V14.00,2013-05-24 20:21:00,
2013-05-24 15:22:00,74.7,58.0,30.21,ESE,123,7.0,7.0,56,0.00,,---,0.00,VWS V14.00,2013-05-24 20:22:00,
2013-05-24 15:23:00,74.7,58.0,30.21,ESE,113,9.0,10.0,56,0.00,,---,0.00,VWS V14.00,2013-05-24 20:23:00,
2013-05-24 15:24:00,74.7,58.0,30.21,NE,50,2.0,9.0,56,0.00,,---,0.00,VWS V14.00,2013-05-24 20:24:00,
2013-05-24 15:25:00,74.7,58.0,30.21,ESE,107,6.0,9.0,56,0.00,,---,0.00,VWS V14.00,2013-05-24 20:25:00,
2013-05-24 15:26:00,74.9,58.2,30.21,SE,126,5.0,6.0,56,0.00,,---,0.00,VWS V14.00,2013-05-24 20:26:00,
2013-05-24 15:27:00,74.9,58.2,30.21,SE,128,11.0,11.0,56,0.00,,---,0.00,VWS V14.00,2013-05-24 20:27:00,
2013-05-24 15:28:00,74.9,58.2,30.20,SE,126,3.0,12.0,56,0.00,,---,0.00,VWS V14.00,2013-05-24 20:28:00,
2013-05-24 15:29:00,74.9,58.7,30.20,SE,126,2.0,8.0,57,0.00,,---,0.00,VWS V14.00,2013-05-24 20:29:00,
2013-05-24 15:30:00,74.9,58.2,30.20,SE,126,3.0,5.0,56,0.00,,---,0.00,VWS V14.00,2013-05-24 20:30:00,
2013-05-24 15:31:00,75.1,58.8,30.20,East,97,4.0,7.0,57,0.00,,---,0.00,VWS V14.00,2013-05-24 20:31:00,
2013-05-24 15:32:00,75.1,58.8,30.20,East,85,7.0,7.0,57,0.00,,---,0.00,VWS V14.00,2013-05-24 20:32:00,
2013-05-24 15:33:00,75.1,58.3,30.20,East,82,5.0,7.0,56,0.00,,---,0.00,VWS V14.00,2013-05-24 20:33:00,
2013-05-24 15:34:00,75.3,58.5,30.20,East,82,3.0,5.0,56,0.00,,---,0.00,VWS V14.00,2013-05-24 20:34:00,
2013-05-24 15:35:00,75.1,58.3,30.20,East,82,3.0,5.0,56,0.00,,---,0.00,VWS V14.00,2013-05-24 20:35:00,
2013-05-24 15:36:00,75.3,59.0,30.20,ESE,107,0.0,5.0,57,0.00,,---,0.00,VWS V14.00,2013-05-24 20:36:00,
2013-05-24 15:37:00,75.4,59.1,30.20,ESE,115,10.0,10.0,57,0.00,,---,0.00,VWS V14.00,2013-05-24 20:37:00,
2013-05-24 15:38:00,75.4,59.6,30.20,ESE,123,3.0,14.0,58,0.00,,---,0.00,VWS V14.00,2013-05-24 20:38:00,
2013-05-24 15:39:00,75.4,58.6,30.20,SE,124,4.0,12.0,56,0.00,,---,0.00,VWS V14.00,2013-05-24 20:39:00,
2013-05-24 15:40:00,75.4,58.6,30.20,SE,124,7.0,9.0,56,0.00,,---,0.00,VWS V14.00,2013-05-24 20:40:00,
2013-05-24 15:41:00,75.3,58.0,30.20,SE,134,10.0,10.0,55,0.00,,---,0.00,VWS V14.00,2013-05-24 20:41:00,
2013-05-24 15:42:00,75.3,58.5,30.20,SE,130,6.0,11.0,56,0.00,,---,0.00,VWS V14.00,2013-05-24 20:42:00,
2013-05-24 15:43:00,75.3,58.5,30.20,SE,130,1.0,6.0,56,0.00,,---,0.00,VWS V14.00,2013-05-24 20:43:00,
2013-05-24 15:44:00,75.3,59.0,30.20,SE,130,6.0,9.0,57,0.00,,---,0.00,VWS V14.00,2013-05-24 20:44:00,
2013-05-24 15:45:00,75.3,59.0,30.20,SE,130,5.0,9.0,57,0.00,,---,0.00,VWS V14.00,2013-05-24 20:45:00,
2013-05-24 15:46:00,75.4,58.1,30.20,East,88,4.0,19.0,55,0.00,,---,0.00,VWS V14.00,2013-05-24 20:46:00,
2013-05-24 15:47:00,75.4,58.6,30.20,East,88,2.0,4.0,56,0.00,,---,0.00,VWS V14.00,2013-05-24 20:47:00,
2013-05-24 15:48:00,75.4,58.6,30.20,East,88,0.0,2.0,56,0.00,,---,0.00,VWS V14.00,2013-05-24 20:48:00,
2013-05-24 15:49:00,75.4,58.6,30.20,SE,138,10.0,15.0,56,0.00,,---,0.00,VWS V14.00,2013-05-24 20:49:00,
2013-05-24 15:50:00,75.4,58.6,30.20,East,88,2.0,2.0,56,0.00,,---,0.00,VWS V14.00,2013-05-24 20:50:00,
2013-05-24 15:51:00,75.4,58.6,30.20,ESE,119,3.0,12.0,56,0.00,,---,0.00,VWS V14.00,2013-05-24 20:51:00,
2013-05-24 15:52:00,75.4,59.1,30.20,ESE,119,0.0,3.0,57,0.00,,---,0.00,VWS V14.00,2013-05-24 20:52:00,
2013-05-24 15:53:00,75.6,59.3,30.20,ESE,123,1.0,9.0,57,0.00,,---,0.00,VWS V14.00,2013-05-24 20:53:00,
2013-05-24 15:54:00,75.6,58.8,30.20,ESE,123,4.0,6.0,56,0.00,,---,0.00,VWS V14.00,2013-05-24 20:54:00,
2013-05-24 15:55:00,75.6,58.8,30.20,ESE,123,3.0,3.0,56,0.00,,---,0.00,VWS V14.00,2013-05-24 20:55:00,
2013-05-24 15:56:00,75.6,58.8,30.20,SE,128,5.0,5.0,56,0.00,,---,0.00,VWS V14.00,2013-05-24 20:56:00,
2013-05-24 15:57:00,75.6,58.8,30.20,East,82,2.0,8.0,56,0.00,,---,0.00,VWS V14.00,2013-05-24 20:57:00,
2013-05-24 15:58:00,75.6,58.3,30.20,NNE,31,8.0,10.0,55,0.00,,---,0.00,VWS V14.00,2013-05-24 20:58:00,
2013-05-24 15:59:00,75.6,58.8,30.20,NNE,30,0.0,9.0,56,0.00,,---,0.00,VWS V14.00,2013-05-24 20:59:00,
2013-05-24 16:00:00,75.6,58.3,30.20,NNE,30,5.0,9.0,55,0.00,,---,0.00,VWS V14.00,2013-05-24 21:00:00,
2013-05-24 16:01:00,75.8,59.0,30.20,SE,126,5.0,17.0,56,0.00,,---,0.00,VWS V14.00,2013-05-24 21:01:00,
2013-05-24 16:02:00,75.8,58.5,30.20,SE,132,4.0,12.0,55,0.00,,---,0.00,VWS V14.00,2013-05-24 21:02:00,
2013-05-24 16:03:00,75.6,58.3,30.20,ESE,119,6.0,12.0,55,0.00,,---,0.00,VWS V14.00,2013-05-24 21:03:00,
2013-05-24 16:04:00,75.6,58.3,30.20,ESE,103,4.0,6.0,55,0.00,,---,0.00,VWS V14.00,2013-05-24 21:04:00,
2013-05-24 16:05:00,75.6,58.3,30.20,ESE,113,4.0,6.0,55,0.00,,---,0.00,VWS V14.00,2013-05-24 21:05:00,
2013-05-24 16:06:00,75.6,58.8,30.20,ESE,123,5.0,10.0,56,0.00,,---,0.00,VWS V14.00,2013-05-24 21:06:00,
2013-05-24 16:07:00,75.6,58.8,30.20,ESE,117,5.0,12.0,56,0.00,,---,0.00,VWS V14.00,2013-05-24 21:07:00,
2013-05-24 16:08:00,75.6,58.8,30.20,SE,127,3.0,7.0,56,0.00,,---,0.00,VWS V14.00,2013-05-24 21:08:00,
2013-05-24 16:09:00,75.6,59.3,30.20,SE,127,3.0,11.0,57,0.00,,---,0.00,VWS V14.00,2013-05-24 21:09:00,
2013-05-24 16:10:00,75.6,58.8,30.20,SE,126,6.0,6.0,56,0.00,,---,0.00,VWS V14.00,2013-05-24 21:10:00,
2013-05-24 16:11:00,75.8,59.0,30.19,SE,124,4.0,7.0,56,0.00,,---,0.00,VWS V14.00,2013-05-24 21:11:00,
2013-05-24 16:12:00,75.8,59.0,30.19,SE,124,0.0,4.0,56,0.00,,---,0.00,VWS V14.00,2013-05-24 21:12:00,
2013-05-24 16:13:00,75.8,59.0,30.19,ESE,113,9.0,11.0,56,0.00,,---,0.00,VWS V14.00,2013-05-24 21:13:00,
2013-05-24 16:14:00,75.8,59.0,30.19,SE,132,11.0,13.0,56,0.00,,---,0.00,VWS V14.00,2013-05-24 21:14:00,
2013-05-24 16:15:00,75.8,59.0,30.19,ESE,113,4.0,10.0,56,0.00,,---,0.00,VWS V14.00,2013-05-24 21:15:00,
2013-05-24 16:16:00,75.6,58.3,30.19,ESE,123,7.0,12.0,55,0.00,,---,0.00,VWS V14.00,2013-05-24 21:16:00,
2013-05-24 16:17:00,75.6,58.3,30.19,ESE,123,7.0,8.0,55,0.00,,---,0.00,VWS V14.00,2013-05-24 21:17:00,
2013-05-24 16:18:00,75.6,58.3,30.19,ESE,123,7.0,7.0,55,0.00,,---,0.00,VWS V14.00,2013-05-24 21:18:00,
2013-05-24 16:19:00,75.6,58.8,30.19,ESE,116,6.0,7.0,56,0.00,,---,0.00,VWS V14.00,2013-05-24 21:19:00,
2013-05-24 16:20:00,75.6,58.8,30.19,ESE,117,5.0,7.0,56,0.00,,---,0.00,VWS V14.00,2013-05-24 21:20:00,
2013-05-24 16:21:00,75.8,59.0,30.19,SE,142,1.0,4.0,56,0.00,,---,0.00,VWS V14.00,2013-05-24 21:21:00,
2013-05-24 16:22:00,75.8,59.0,30.19,ESE,121,7.0,16.0,56,0.00,,---,0.00,VWS V14.00,2013-05-24 21:22:00,
2013-05-24 16:23:00,75.8,59.0,30.19,ESE,109,6.0,12.0,56,0.00,,---,0.00,VWS V14.00,2013-05-24 21:23:00,
2013-05-24 16:24:00,75.8,59.0,30.18,ESE,121,6.0,6.0,56,0.00,,---,0.00,VWS V14.00,2013-05-24 21:24:00,
2013-05-24 16:25:00,75.8,59.0,30.19,ESE,109,1.0,6.0,56,0.00,,---,0.00,VWS V14.00,2013-05-24 21:25:00,
2013-05-24 16:26:00,75.8,59.5,30.18,SE,142,6.0,9.0,57,0.00,,---,0.00,VWS V14.00,2013-05-24 21:26:00,
2013-05-24 16:27:00,75.8,59.0,30.18,SE,140,0.0,12.0,56,0.00,,---,0.00,VWS V14.00,2013-05-24 21:27:00,
2013-05-24 16:28:00,75.8,59.5,30.18,SE,140,1.0,2.0,57,0.00,,---,0.00,VWS V14.00,2013-05-24 21:28:00,
2013-05-24 16:29:00,76.0,59.7,30.18,SE,140,7.0,9.0,57,0.00,,---,0.00,VWS V14.00,2013-05-24 21:29:00,
2013-05-24 16:30:00,75.8,59.5,30.18,SE,140,0.0,1.0,57,0.00,,---,0.00,VWS V14.00,2013-05-24 21:30:00,
2013-05-24 16:31:00,76.0,59.2,30.18,ENE,60,4.0,8.0,56,0.00,,---,0.00,VWS V14.00,2013-05-24 21:31:00,
2013-05-24 16:32:00,76.0,59.2,30.18,SE,132,7.0,7.0,56,0.00,,---,0.00,VWS V14.00,2013-05-24 21:32:00,
2013-05-24 16:33:00,75.8,59.0,30.18,SE,132,6.0,10.0,56,0.00,,---,0.00,VWS V14.00,2013-05-24 21:33:00,
2013-05-24 16:34:00,75.8,59.0,30.18,SE,140,10.0,12.0,56,0.00,,---,0.00,VWS V14.00,2013-05-24 21:34:00,
2013-05-24 16:35:00,75.8,59.0,30.18,SE,141,10.0,12.0,56,0.00,,---,0.00,VWS V14.00,2013-05-24 21:35:00,
2013-05-24 16:36:00,75.8,59.5,30.18,SE,131,5.0,9.0,57,0.00,,---,0.00,VWS V14.00,2013-05-24 21:36:00,
2013-05-24 16:37:00,75.8,59.5,30.18,SE,133,6.0,11.0,57,0.00,,---,0.00,VWS V14.00,2013-05-24 21:37:00,
2013-05-24 16:38:00,75.8,59.5,30.18,SE,134,7.0,10.0,57,0.00,,---,0.00,VWS V14.00,2013-05-24 21:38:00,
2013-05-24 16:39:00,75.8,59.0,30.18,SE,128,2.0,14.0,56,0.00,,---,0.00,VWS V14.00,2013-05-24 21:39:00,
2013-05-24 16:40:00,75.8,59.5,30.18,SE,128,12.0,14.0,57,0.00,,---,0.00,VWS V14.00,2013-05-24 21:40:00,
2013-05-24 16:41:00,75.8,59.0,30.18,SE,129,3.0,5.0,56,0.00,,---,0.00,VWS V14.00,2013-05-24 21:41:00,
2013-05-24 16:42:00,75.8,59.0,30.18,SE,128,2.0,5.0,56,0.00,,---,0.00,VWS V14.00,2013-05-24 21:42:00,
2013-05-24 16:43:00,75.8,59.0,30.18,SE,134,12.0,12.0,56,0.00,,---,0.00,VWS V14.00,2013-05-24 21:43:00,
2013-05-24 16:44:00,75.8,59.0,30.18,SE,130,6.0,13.0,56,0.00,,---,0.00,VWS V14.00,2013-05-24 21:44:00,
2013-05-24 16:45:00,75.8,59.0,30.18,SE,130,7.0,13.0,56,0.00,,---,0.00,VWS V14.00,2013-05-24 21:45:00,
2013-05-24 16:46:00,75.8,59.5,30.18,SE,130,2.0,6.0,57,0.00,,---,0.00,VWS V14.00,2013-05-24 21:46:00,
2013-05-24 16:47:00,75.8,59.0,30.18,SE,129,4.0,6.0,56,0.00,,---,0.00,VWS V14.00,2013-05-24 21:47:00,
2013-05-24 16:48:00,75.8,59.0,30.18,ESE,117,2.0,10.0,56,0.00,,---,0.00,VWS V14.00,2013-05-24 21:48:00,
2013-05-24 16:49:00,75.8,59.0,30.17,ESE,117,4.0,4.0,56,0.00,,---,0.00,VWS V14.00,2013-05-24 21:49:00,
2013-05-24 16:50:00,75.8,59.0,30.18,ESE,117,1.0,3.0,56,0.00,,---,0.00,VWS V14.00,2013-05-24 21:50:00,
2013-05-24 16:51:00,75.8,59.0,30.17,East,96,2.0,9.0,56,0.00,,---,0.00,VWS V14.00,2013-05-24 21:51:00,
2013-05-24 16:52:00,75.8,59.0,30.17,East,97,0.0,3.0,56,0.00,,---,0.00,VWS V14.00,2013-05-24 21:52:00,
2013-05-24 16:53:00,75.8,59.0,30.17,East,82,2.0,9.0,56,0.00,,---,0.00,VWS V14.00,2013-05-24 21:53:00,
2013-05-24 16:54:00,75.8,59.0,30.17,East,82,5.0,5.0,56,0.00,,---,0.00,VWS V14.00,2013-05-24 21:54:00,
2013-05-24 16:55:00,75.8,59.0,30.17,East,82,0.0,2.0,56,0.00,,---,0.00,VWS V14.00,2013-05-24 21:55:00,
2013-05-24 16:56:00,75.8,59.0,30.17,East,92,1.0,6.0,56,0.00,,---,0.00,VWS V14.00,2013-05-24 21:56:00,
2013-05-24 16:57:00,75.8,59.0,30.17,East,92,0.0,4.0,56,0.00,,---,0.00,VWS V14.00,2013-05-24 21:57:00,
2013-05-24 16:58:00,76.0,59.7,30.17,SE,125,11.0,12.0,57,0.00,,---,0.00,VWS V14.00,2013-05-24 21:58:00,
2013-05-24 16:59:00,76.0,59.2,30.17,SE,124,0.0,11.0,56,0.00,,---,0.00,VWS V14.00,2013-05-24 21:59:00,
2013-05-24 17:00:00,76.0,59.7,30.17,SE,124,1.0,11.0,57,0.00,,---,0.00,VWS V14.00,2013-05-24 22:00:00,
2013-05-24 17:01:00,76.0,59.7,30.17,SE,135,10.0,13.0,57,0.00,,---,0.00,VWS V14.00,2013-05-24 22:01:00,
2013-05-24 17:02:00,75.8,59.0,30.17,SE,131,2.0,13.0,56,0.00,,---,0.00,VWS V14.00,2013-05-24 22:02:00,
2013-05-24 17:03:00,75.8,59.0,30.17,SE,130,4.0,7.0,56,0.00,,---,0.00,VWS V14.00,2013-05-24 22:03:00,
2013-05-24 17:04:00,75.8,59.0,30.17,SE,138,11.0,14.0,56,0.00,,---,0.00,VWS V14.00,2013-05-24 22:04:00,
2013-05-24 17:05:00,75.8,59.0,30.17,SE,131,10.0,10.0,56,0.00,,---,0.00,VWS V14.00,2013-05-24 22:05:00,
2013-05-24 17:06:00,75.6,58.3,30.17,SE,132,11.0,16.0,55,0.00,,---,0.00,VWS V14.00,2013-05-24 22:06:00,
2013-05-24 17:07:00,75.4,58.6,30.17,SE,132,5.0,14.0,56,0.00,,---,0.00,VWS V14.00,2013-05-24 22:07:00,
2013-05-24 17:08:00,75.6,59.3,30.17,SE,130,0.0,6.0,57,0.00,,---,0.00,VWS V14.00,2013-05-24 22:08:00,
2013-05-24 17:09:00,75.6,58.8,30.17,SE,130,2.0,3.0,56,0.00,,---,0.00,VWS V14.00,2013-05-24 22:09:00,
2013-05-24 17:10:00,75.6,59.3,30.17,SE,130,3.0,3.0,57,0.00,,---,0.00,VWS V14.00,2013-05-24 22:10:00,
2013-05-24 17:11:00,75.6,59.3,30.17,SE,130,4.0,7.0,57,0.00,,---,0.00,VWS V14.00,2013-05-24 22:11:00,
2013-05-24 17:12:00,75.6,59.3,30.17,SE,133,7.0,10.0,57,0.00,,---,0.00,VWS V14.00,2013-05-24 22:12:00,
2013-05-24 17:13:00,75.6,59.3,30.17,SE,138,13.0,14.0,57,0.00,,---,0.00,VWS V14.00,2013-05-24 22:13:00,
2013-05-24 17:14:00,75.6,59.3,30.17,SE,136,6.0,13.0,57,0.00,,---,0.00,VWS V14.00,2013-05-24 22:14:00,
2013-05-24 17:15:00,75.6,59.3,30.17,SE,136,11.0,13.0,57,0.00,,---,0.00,VWS V14.00,2013-05-24 22:15:00,
2013-05-24 17:16:00,75.6,59.3,30.17,SE,133,4.0,12.0,57,0.00,,---,0.00,VWS V14.00,2013-05-24 22:16:00,
2013-05-24 17:17:00,75.6,59.3,30.17,SE,126,11.0,11.0,57,0.00,,---,0.00,VWS V14.00,2013-05-24 22:17:00,
2013-05-24 17:18:00,75.6,59.3,30.17,ESE,120,9.0,11.0,57,0.00,,---,0.00,VWS V14.00,2013-05-24 22:18:00,
2013-05-24 17:19:00,75.6,58.8,30.17,ESE,120,4.0,9.0,56,0.00,,---,0.00,VWS V14.00,2013-05-24 22:19:00,
2013-05-24 17:20:00,75.6,59.3,30.17,ESE,120,5.0,9.0,57,0.00,,---,0.00,VWS V14.00,2013-05-24 22:20:00,
2013-05-24 17:21:00,75.6,58.8,30.17,ESE,117,12.0,13.0,56,0.00,,---,0.00,VWS V14.00,2013-05-24 22:21:00,
2013-05-24 17:22:00,75.6,58.3,30.17,ENE,78,6.0,13.0,55,0.00,,---,0.00,VWS V14.00,2013-05-24 22:22:00,
2013-05-24 17:23:00,75.6,59.3,30.17,NNE,12,0.0,9.0,57,0.00,,---,0.00,VWS V14.00,2013-05-24 22:23:00,
2013-05-24 17:24:00,75.6,59.3,30.17,NNE,14,5.0,5.0,57,0.00,,---,0.00,VWS V14.00,2013-05-24 22:24:00,
2013-05-24 17:25:00,75.6,59.3,30.17,NNE,13,4.0,4.0,57,0.00,,---,0.00,VWS V14.00,2013-05-24 22:25:00,
2013-05-24 17:26:00,75.6,58.8,30.17,ENE,74,5.0,12.0,56,0.00,,---,0.00,VWS V14.00,2013-05-24 22:26:00,
2013-05-24 17:27:00,75.4,58.6,30.17,East,101,8.0,13.0,56,0.00,,---,0.00,VWS V14.00,2013-05-24 22:27:00,
2013-05-24 17:28:00,75.4,58.6,30.17,SE,129,10.0,11.0,56,0.00,,---,0.00,VWS V14.00,2013-05-24 22:28:00,
2013-05-24 17:29:00,75.4,58.6,30.17,SE,131,5.0,13.0,56,0.00,,---,0.00,VWS V14.00,2013-05-24 22:29:00,
2013-05-24 17:30:00,75.4,58.6,30.17,SSE,157,11.0,13.0,56,0.00,,---,0.00,VWS V14.00,2013-05-24 22:30:00,
2013-05-24 17:31:00,75.3,58.5,30.17,SE,146,0.0,5.0,56,0.00,,---,0.00,VWS V14.00,2013-05-24 22:31:00,
2013-05-24 17:32:00,75.3,58.5,30.17,SE,146,8.0,10.0,56,0.00,,---,0.00,VWS V14.00,2013-05-24 22:32:00,
2013-05-24 17:33:00,75.4,59.1,30.17,SE,140,6.0,10.0,57,0.00,,---,0.00,VWS V14.00,2013-05-24 22:33:00,
2013-05-24 17:34:00,75.4,59.1,30.17,SE,136,9.0,13.0,57,0.00,,---,0.00,VWS V14.00,2013-05-24 22:34:00,
2013-05-24 17:35:00,75.4,59.1,30.17,SE,140,7.0,10.0,57,0.00,,---,0.00,VWS V14.00,2013-05-24 22:35:00,
2013-05-24 17:36:00,75.3,58.5,30.17,SE,144,13.0,13.0,56,0.00,,---,0.00,VWS V14.00,2013-05-24 22:36:00,
2013-05-24 17:37:00,75.3,58.5,30.17,SE,126,10.0,13.0,56,0.00,,---,0.00,VWS V14.00,2013-05-24 22:37:00,
2013-05-24 17:38:00,75.3,58.5,30.17,ESE,122,4.0,14.0,56,0.00,,---,0.00,VWS V14.00,2013-05-24 22:38:00,
2013-05-24 17:39:00,75.3,58.5,30.17,East,92,11.0,14.0,56,0.00,,---,0.00,VWS V14.00,2013-05-24 22:39:00,
2013-05-24 17:40:00,75.3,58.5,30.17,ESE,109,12.0,14.0,56,0.00,,---,0.00,VWS V14.00,2013-05-24 22:40:00,
2013-05-24 17:41:00,75.3,59.0,30.17,East,92,11.0,12.0,57,0.00,,---,0.00,VWS V14.00,2013-05-24 22:41:00,
2013-05-24 17:42:00,75.3,58.5,30.17,SE,130,10.0,13.0,56,0.00,,---,0.00,VWS V14.00,2013-05-24 22:42:00,
2013-05-24 17:43:00,75.3,58.5,30.17,SE,130,9.0,11.0,56,0.00,,---,0.00,VWS V14.00,2013-05-24 22:43:00,
2013-05-24 17:44:00,75.1,58.3,30.17,SE,132,3.0,14.0,56,0.00,,---,0.00,VWS V14.00,2013-05-24 22:44:00,
2013-05-24 17:45:00,75.1,58.3,30.17,SE,130,12.0,12.0,56,0.00,,---,0.00,VWS V14.00,2013-05-24 22:45:00,
2013-05-24 17:46:00,75.3,59.0,30.17,ESE,115,3.0,6.0,57,0.00,,---,0.00,VWS V14.00,2013-05-24 22:46:00,
2013-05-24 17:47:00,75.3,59.0,30.17,ESE,115,6.0,9.0,57,0.00,,---,0.00,VWS V14.00,2013-05-24 22:47:00,
2013-05-24 17:48:00,75.3,59.0,30.17,ESE,120,4.0,10.0,57,0.00,,---,0.00,VWS V14.00,2013-05-24 22:48:00,
2013-05-24 17:49:00,75.3,59.0,30.17,ESE,120,5.0,6.0,57,0.00,,---,0.00,VWS V14.00,2013-05-24 22:49:00,
2013-05-24 17:50:00,75.3,59.0,30.17,ESE,120,5.0,5.0,57,0.00,,---,0.00,VWS V14.00,2013-05-24 22:50:00,
2013-05-24 17:51:00,75.3,58.5,30.17,SE,127,2.0,13.0,56,0.00,,---,0.00,VWS V14.00,2013-05-24 22:51:00,
2013-05-24 17:52:00,75.3,58.5,30.17,SE,133,10.0,11.0,56,0.00,,---,0.00,VWS V14.00,2013-05-24 22:52:00,
2013-05-24 17:53:00,75.3,59.0,30.17,SE,132,5.0,10.0,57,0.00,,---,0.00,VWS V14.00,2013-05-24 22:53:00,
2013-05-24 17:54:00,75.3,59.0,30.17,SE,132,7.0,7.0,57,0.00,,---,0.00,VWS V14.00,2013-05-24 22:54:00,
2013-05-24 17:55:00,75.3,59.0,30.17,SE,132,5.0,6.0,57,0.00,,---,0.00,VWS V14.00,2013-05-24 22:55:00,
2013-05-24 17:56:00,75.3,59.0,30.17,ESE,119,5.0,9.0,57,0.00,,---,0.00,VWS V14.00,2013-05-24 22:56:00,
2013-05-24 17:57:00,75.3,59.0,30.17,ESE,117,11.0,11.0,57,0.00,,---,0.00,VWS V14.00,2013-05-24 22:57:00,
2013-05-24 17:58:00,75.1,58.3,30.17,SE,130,5.0,13.0,56,0.00,,---,0.00,VWS V14.00,2013-05-24 22:58:00,
2013-05-24 17:59:00,75.1,58.3,30.17,ESE,112,7.0,9.0,56,0.00,,---,0.00,VWS V14.00,2013-05-24 22:59:00,
2013-05-24 18:00:00,75.1,58.3,30.17,SE,130,4.0,5.0,56,0.00,,---,0.00,VWS V14.00,2013-05-24 23:00:00,
2013-05-24 18:01:00,75.1,58.8,30.17,SE,128,10.0,11.0,57,0.00,,---,0.00,VWS V14.00,2013-05-24 23:01:00,
2013-05-24 18:02:00,74.9,58.2,30.17,East,96,5.0,10.0,56,0.00,,---,0.00,VWS V14.00,2013-05-24 23:02:00,
2013-05-24 18:03:00,74.9,58.7,30.17,East,98,6.0,7.0,57,0.00,,---,0.00,VWS V14.00,2013-05-24 23:03:00,
2013-05-24 18:04:00,74.9,58.7,30.17,East,96,0.0,9.0,57,0.00,,---,0.00,VWS V14.00,2013-05-24 23:04:00,
2013-05-24 18:05:00,74.9,58.7,30.17,East,96,0.0,9.0,57,0.00,,---,0.00,VWS V14.00,2013-05-24 23:05:00,
2013-05-24 18:06:00,74.9,58.7,30.17,East,94,5.0,7.0,57,0.00,,---,0.00,VWS V14.00,2013-05-24 23:06:00,
2013-05-24 18:07:00,74.9,58.7,30.17,East,98,3.0,12.0,57,0.00,,---,0.00,VWS V14.00,2013-05-24 23:07:00,
2013-05-24 18:08:00,74.9,58.7,30.17,East,98,8.0,8.0,57,0.00,,---,0.00,VWS V14.00,2013-05-24 23:08:00,
2013-05-24 18:09:00,74.9,58.7,30.17,East,97,2.0,8.0,57,0.00,,---,0.00,VWS V14.00,2013-05-24 23:09:00,
2013-05-24 18:10:00,74.9,58.7,30.17,East,98,2.0,8.0,57,0.00,,---,0.00,VWS V14.00,2013-05-24 23:10:00,
2013-05-24 18:11:00,74.9,59.1,30.17,ESE,106,1.0,6.0,58,0.00,,---,0.00,VWS V14.00,2013-05-24 23:11:00,
2013-05-24 18:12:00,74.9,59.1,30.17,ESE,106,5.0,5.0,58,0.00,,---,0.00,VWS V14.00,2013-05-24 23:12:00,
2013-05-24 18:13:00,74.9,59.1,30.17,ESE,107,6.0,7.0,58,0.00,,---,0.00,VWS V14.00,2013-05-24 23:13:00,
2013-05-24 18:14:00,74.7,59.0,30.17,ESE,109,5.0,7.0,58,0.00,,---,0.00,VWS V14.00,2013-05-24 23:14:00,
2013-05-24 18:15:00,74.9,59.1,30.17,ESE,109,4.0,6.0,58,0.00,,---,0.00,VWS V14.00,2013-05-24 23:15:00,
2013-05-24 18:16:00,74.7,58.5,30.17,ESE,114,1.0,3.0,57,0.00,,---,0.00,VWS V14.00,2013-05-24 23:16:00,
2013-05-24 18:17:00,74.7,59.0,30.17,ESE,114,0.0,5.0,58,0.00,,---,0.00,VWS V14.00,2013-05-24 23:17:00,
2013-05-24 18:18:00,74.7,59.0,30.17,ESE,115,7.0,7.0,58,0.00,,---,0.00,VWS V14.00,2013-05-24 23:18:00,
2013-05-24 18:19:00,74.7,59.0,30.17,ESE,120,0.0,10.0,58,0.00,,---,0.00,VWS V14.00,2013-05-24 23:19:00,
2013-05-24 18:20:00,74.7,59.0,30.17,ESE,120,6.0,10.0,58,0.00,,---,0.00,VWS V14.00,2013-05-24 23:20:00,
2013-05-24 18:21:00,74.7,59.0,30.17,ESE,119,0.0,5.0,58,0.00,,---,0.00,VWS V14.00,2013-05-24 23:21:00,
2013-05-24 18:22:00,74.7,59.0,30.17,ESE,117,4.0,9.0,58,0.00,,---,0.00,VWS V14.00,2013-05-24 23:22:00,
2013-05-24 18:23:00,74.7,59.0,30.17,ESE,117,4.0,5.0,58,0.00,,---,0.00,VWS V14.00,2013-05-24 23:23:00,
2013-05-24 18:24:00,74.7,59.0,30.17,ESE,117,1.0,4.0,58,0.00,,---,0.00,VWS V14.00,2013-05-24 23:24:00,
2013-05-24 18:25:00,74.7,59.0,30.17,ESE,117,2.0,4.0,58,0.00,,---,0.00,VWS V14.00,2013-05-24 23:25:00,
2013-05-24 18:26:00,74.6,58.9,30.17,ESE,117,3.0,4.0,58,0.00,,---,0.00,VWS V14.00,2013-05-24 23:26:00,
2013-05-24 18:27:00,74.6,58.9,30.17,ESE,117,4.0,5.0,58,0.00,,---,0.00,VWS V14.00,2013-05-24 23:27:00,
2013-05-24 18:28:00,74.6,59.3,30.17,ESE,116,1.0,6.0,59,0.00,,---,0.00,VWS V14.00,2013-05-24 23:28:00,
2013-05-24 18:29:00,74.6,59.3,30.17,SE,144,2.0,2.0,59,0.00,,---,0.00,VWS V14.00,2013-05-24 23:29:00,
2013-05-24 18:30:00,74.6,59.3,30.17,ESE,116,0.0,1.0,59,0.00,,---,0.00,VWS V14.00,2013-05-24 23:30:00,
2013-05-24 18:31:00,74.6,58.9,30.17,East,94,3.0,11.0,58,0.00,,---,0.00,VWS V14.00,2013-05-24 23:31:00,
2013-05-24 18:32:00,74.6,58.9,30.17,East,90,4.0,5.0,58,0.00,,---,0.00,VWS V14.00,2013-05-24 23:32:00,
2013-05-24 18:33:00,74.6,58.9,30.17,East,92,3.0,7.0,58,0.00,,---,0.00,VWS V14.00,2013-05-24 23:33:00,
2013-05-24 18:34:00,74.6,58.9,30.17,East,86,0.0,6.0,58,0.00,,---,0.00,VWS V14.00,2013-05-24 23:34:00,
2013-05-24 18:35:00,74.6,58.9,30.17,East,86,3.0,3.0,58,0.00,,---,0.00,VWS V14.00,2013-05-24 23:35:00,
2013-05-24 18:36:00,74.6,59.3,30.17,East,94,4.0,7.0,59,0.00,,---,0.00,VWS V14.00,2013-05-24 23:36:00,
2013-05-24 18:37:00,74.6,59.3,30.17,SE,142,8.0,11.0,59,0.00,,---,0.00,VWS V14.00,2013-05-24 23:37:00,
2013-05-24 18:38:00,74.6,58.9,30.17,SE,124,7.0,10.0,58,0.00,,---,0.00,VWS V14.00,2013-05-24 23:38:00,
2013-05-24 18:39:00,74.6,58.9,30.17,SE,131,1.0,10.0,58,0.00,,---,0.00,VWS V14.00,2013-05-24 23:39:00,
2013-05-24 18:40:00,74.6,58.9,30.17,SE,128,10.0,10.0,58,0.00,,---,0.00,VWS V14.00,2013-05-24 23:40:00,
2013-05-24 18:41:00,74.6,59.3,30.17,SE,132,5.0,9.0,59,0.00,,---,0.00,VWS V14.00,2013-05-24 23:41:00,
2013-05-24 18:42:00,74.6,59.3,30.17,SE,133,1.0,7.0,59,0.00,,---,0.00,VWS V14.00,2013-05-24 23:42:00,
2013-05-24 18:43:00,74.4,59.2,30.17,SE,138,3.0,3.0,59,0.00,,---,0.00,VWS V14.00,2013-05-24 23:43:00,
2013-05-24 18:44:00,74.4,59.2,30.17,ESE,118,3.0,6.0,59,0.00,,---,0.00,VWS V14.00,2013-05-24 23:44:00,
2013-05-24 18:45:00,74.4,59.2,30.17,SE,137,5.0,6.0,59,0.00,,---,0.00,VWS V14.00,2013-05-24 23:45:00,
2013-05-24 18:46:00,74.4,59.2,30.17,East,88,3.0,5.0,59,0.00,,---,0.00,VWS V14.00,2013-05-24 23:46:00,
2013-05-24 18:47:00,74.4,58.7,30.17,East,88,4.0,6.0,58,0.00,,---,0.00,VWS V14.00,2013-05-24 23:47:00,
2013-05-24 18:48:00,74.4,59.2,30.17,East,88,4.0,4.0,59,0.00,,---,0.00,VWS V14.00,2013-05-24 23:48:00,
2013-05-24 18:49:00,74.2,59.0,30.17,East,90,3.0,6.0,59,0.00,,---,0.00,VWS V14.00,2013-05-24 23:49:00,
2013-05-24 18:50:00,74.4,59.2,30.17,East,89,6.0,6.0,59,0.00,,---,0.00,VWS V14.00,2013-05-24 23:50:00,
2013-05-24 18:51:00,74.2,58.5,30.17,SE,128,3.0,7.0,58,0.00,,---,0.00,VWS V14.00,2013-05-24 23:51:00,
2013-05-24 18:52:00,74.2,58.5,30.17,SE,128,4.0,5.0,58,0.00,,---,0.00,VWS V14.00,2013-05-24 23:52:00,
2013-05-24 18:53:00,74.2,59.4,30.17,SE,134,6.0,10.0,60,0.00,,---,0.00,VWS V14.00,2013-05-24 23:53:00,
2013-05-24 18:54:00,74.0,58.8,30.17,SE,134,4.0,6.0,59,0.00,,---,0.00,VWS V14.00,2013-05-24 23:54:00,
2013-05-24 18:55:00,74.2,59.4,30.17,SE,134,6.0,6.0,60,0.00,,---,0.00,VWS V14.00,2013-05-24 23:55:00,
2013-05-24 18:56:00,74.0,58.8,30.17,SE,134,6.0,6.0,59,0.00,,---,0.00,VWS V14.00,2013-05-24 23:56:00,
2013-05-24 18:57:00,74.0,58.8,30.17,SE,133,2.0,9.0,59,0.00,,---,0.00,VWS V14.00,2013-05-24 23:57:00,
2013-05-24 18:58:00,74.0,58.8,30.17,SE,133,3.0,4.0,59,0.00,,---,0.00,VWS V14.00,2013-05-24 23:58:00,
2013-05-24 18:59:00,74.0,58.8,30.17,SE,133,3.0,6.0,59,0.00,,---,0.00,VWS V14.00,2013-05-24 23:59:00,
2013-05-24 19:00:00,74.0,58.8,30.17,SE,133,5.0,5.0,59,0.00,,---,0.00,VWS V14.00,2013-05-25 00:00:00,
2013-05-24 19:01:00,73.9,58.7,30.17,SE,133,3.0,4.0,59,0.00,,---,0.00,VWS V14.00,2013-05-25 00:01:00,
2013-05-24 19:02:00,73.9,59.2,30.17,SE,133,0.0,4.0,60,0.00,,---,0.00,VWS V14.00,2013-05-25 00:02:00,
2013-05-24 19:03:00,73.9,58.7,30.17,SE,135,4.0,6.0,59,0.00,,---,0.00,VWS V14.00,2013-05-25 00:03:00,
2013-05-24 19:04:00,73.9,58.7,30.17,SE,133,1.0,10.0,59,0.00,,---,0.00,VWS V14.00,2013-05-25 00:04:00,
2013-05-24 19:05:00,73.9,58.7,30.17,SE,135,7.0,7.0,59,0.00,,---,0.00,VWS V14.00,2013-05-25 00:05:00,
2013-05-24 19:06:00,73.7,59.0,30.17,SE,134,7.0,7.0,60,0.00,,---,0.00,VWS V14.00,2013-05-25 00:06:00,
2013-05-24 19:07:00,73.7,58.5,30.17,SE,133,2.0,10.0,59,0.00,,---,0.00,VWS V14.00,2013-05-25 00:07:00,
2013-05-24 19:08:00,73.7,58.5,30.17,SE,133,3.0,10.0,59,0.00,,---,0.00,VWS V14.00,2013-05-25 00:08:00,
2013-05-24 19:09:00,73.7,59.0,30.17,SE,133,9.0,9.0,60,0.00,,---,0.00,VWS V14.00,2013-05-25 00:09:00,
2013-05-24 19:10:00,73.7,59.0,30.17,SE,133,3.0,4.0,60,0.00,,---,0.00,VWS V14.00,2013-05-25 00:10:00,
2013-05-24 19:11:00,73.5,58.8,30.17,SE,133,3.0,5.0,60,0.00,,---,0.00,VWS V14.00,2013-05-25 00:11:00,
2013-05-24 19:12:00,73.5,59.2,30.17,SE,133,2.0,4.0,61,0.00,,---,0.00,VWS V14.00,2013-05-25 00:12:00,
2013-05-24 19:13:00,73.5,59.7,30.17,SE,133,4.0,5.0,62,0.00,,---,0.00,VWS V14.00,2013-05-25 00:13:00,
2013-05-24 19:14:00,73.5,59.2,30.17,SE,133,6.0,6.0,61,0.00,,---,0.00,VWS V14.00,2013-05-25 00:14:00,
2013-05-24 19:15:00,73.5,59.7,30.17,SE,133,4.0,5.0,62,0.00,,---,0.00,VWS V14.00,2013-05-25 00:15:00,
2013-05-24 19:16:00,73.3,58.6,30.17,SE,133,4.0,5.0,60,0.00,,---,0.00,VWS V14.00,2013-05-25 00:16:00,
2013-05-24 19:17:00,73.3,59.0,30.17,SE,133,3.0,5.0,61,0.00,,---,0.00,VWS V14.00,2013-05-25 00:17:00,
2013-05-24 19:18:00,73.3,59.0,30.17,SE,133,3.0,7.0,61,0.00,,---,0.00,VWS V14.00,2013-05-25 00:18:00,
2013-05-24 19:19:00,73.3,59.0,30.17,SE,133,6.0,6.0,61,0.00,,---,0.00,VWS V14.00,2013-05-25 00:19:00,
2013-05-24 19:20:00,73.3,59.0,30.17,SE,133,5.0,5.0,61,0.00,,---,0.00,VWS V14.00,2013-05-25 00:20:00,
2013-05-24 19:21:00,73.2,58.5,30.17,SE,133,4.0,6.0,60,0.00,,---,0.00,VWS V14.00,2013-05-25 00:21:00,
2013-05-24 19:22:00,73.3,59.0,30.17,SE,132,6.0,11.0,61,0.00,,---,0.00,VWS V14.00,2013-05-25 00:22:00,
2013-05-24 19:23:00,73.3,59.5,30.17,SE,132,1.0,6.0,62,0.00,,---,0.00,VWS V14.00,2013-05-25 00:23:00,
2013-05-24 19:24:00,73.3,59.0,30.17,SE,132,3.0,5.0,61,0.00,,---,0.00,VWS V14.00,2013-05-25 00:24:00,
2013-05-24 19:25:00,73.3,59.5,30.17,SE,132,3.0,3.0,62,0.00,,---,0.00,VWS V14.00,2013-05-25 00:25:00,
2013-05-24 19:26:00,73.2,59.4,30.17,SE,132,4.0,5.0,62,0.00,,---,0.00,VWS V14.00,2013-05-25 00:26:00,
2013-05-24 19:27:00,73.2,59.4,30.17,SE,132,6.0,6.0,62,0.00,,---,0.00,VWS V14.00,2013-05-25 00:27:00,
2013-05-24 19:28:00,73.2,59.0,30.17,SE,132,7.0,9.0,61,0.00,,---,0.00,VWS V14.00,2013-05-25 00:28:00,
2013-05-24 19:29:00,73.2,59.4,30.16,SE,132,3.0,9.0,62,0.00,,---,0.00,VWS V14.00,2013-05-25 00:29:00,
2013-05-24 19:30:00,73.2,59.0,30.17,SE,132,9.0,9.0,61,0.00,,---,0.00,VWS V14.00,2013-05-25 00:30:00,
2013-05-24 19:31:00,73.2,59.0,30.16,ESE,123,6.0,9.0,61,0.00,,---,0.00,VWS V14.00,2013-05-25 00:31:00,
2013-05-24 19:32:00,73.2,58.5,30.17,ESE,122,6.0,7.0,60,0.00,,---,0.00,VWS V14.00,2013-05-25 00:32:00,
2013-05-24 19:33:00,73.2,59.0,30.17,ESE,122,6.0,6.0,61,0.00,,---,0.00,VWS V14.00,2013-05-25 00:33:00,
2013-05-24 19:34:00,73.2,59.4,30.17,ESE,122,6.0,7.0,62,0.00,,---,0.00,VWS V14.00,2013-05-25 00:34:00,
2013-05-24 19:35:00,73.2,59.0,30.17,ESE,122,6.0,7.0,61,0.00,,---,0.00,VWS V14.00,2013-05-25 00:35:00,
2013-05-24 19:36:00,73.2,59.4,30.17,ESE,121,1.0,1.0,62,0.00,,---,0.00,VWS V14.00,2013-05-25 00:36:00,
2013-05-24 19:37:00,73.2,59.9,30.17,ESE,121,0.0,2.0,63,0.00,,---,0.00,VWS V14.00,2013-05-25 00:37:00,
2013-05-24 19:38:00,73.2,59.9,30.17,ESE,121,0.0,0.0,63,0.00,,---,0.00,VWS V14.00,2013-05-25 00:38:00,
2013-05-24 19:39:00,73.2,59.9,30.17,ESE,121,0.0,0.0,63,0.00,,---,0.00,VWS V14.00,2013-05-25 00:39:00,
2013-05-24 19:40:00,73.2,59.9,30.17,ESE,121,0.0,0.0,63,0.00,,---,0.00,VWS V14.00,2013-05-25 00:40:00,
2013-05-24 19:41:00,73.0,59.7,30.17,ESE,109,0.0,2.0,63,0.00,,---,0.00,VWS V14.00,2013-05-25 00:41:00,
2013-05-24 19:42:00,73.0,59.7,30.17,ESE,109,0.0,1.0,63,0.00,,---,0.00,VWS V14.00,2013-05-25 00:42:00,
2013-05-24 19:43:00,72.8,59.5,30.17,ESE,109,0.0,0.0,63,0.00,,---,0.00,VWS V14.00,2013-05-25 00:43:00,
2013-05-24 19:44:00,72.8,59.5,30.17,ESE,109,0.0,0.0,63,0.00,,---,0.00,VWS V14.00,2013-05-25 00:44:00,
2013-05-24 19:45:00,72.8,59.5,30.17,ESE,109,0.0,0.0,63,0.00,,---,0.00,VWS V14.00,2013-05-25 00:45:00,
2013-05-24 19:46:00,72.7,59.4,30.17,ESE,109,0.0,0.0,63,0.00,,---,0.00,VWS V14.00,2013-05-25 00:46:00,
2013-05-24 19:47:00,72.7,59.4,30.17,ESE,109,0.0,1.0,63,0.00,,---,0.00,VWS V14.00,2013-05-25 00:47:00,
2013-05-24 19:48:00,72.7,59.4,30.17,ESE,109,0.0,0.0,63,0.00,,---,0.00,VWS V14.00,2013-05-25 00:48:00,
2013-05-24 19:49:00,72.5,59.2,30.17,ESE,109,0.0,0.0,63,0.00,,---,0.00,VWS V14.00,2013-05-25 00:49:00,
2013-05-24 19:50:00,72.7,59.4,30.17,ESE,109,0.0,0.0,63,0.00,,---,0.00,VWS V14.00,2013-05-25 00:50:00,
2013-05-24 19:51:00,72.5,59.2,30.17,ESE,109,0.0,0.0,63,0.00,,---,0.00,VWS V14.00,2013-05-25 00:51:00,
2013-05-24 19:52:00,72.3,59.0,30.17,ESE,109,0.0,1.0,63,0.00,,---,0.00,VWS V14.00,2013-05-25 00:52:00,
2013-05-24 19:53:00,72.3,59.0,30.17,ESE,109,0.0,0.0,63,0.00,,---,0.00,VWS V14.00,2013-05-25 00:53:00,
2013-05-24 19:54:00,72.3,59.0,30.17,ESE,109,0.0,0.0,63,0.00,,---,0.00,VWS V14.00,2013-05-25 00:54:00,
2013-05-24 19:55:00,72.3,59.0,30.17,ESE,109,0.0,0.0,63,0.00,,---,0.00,VWS V14.00,2013-05-25 00:55:00,
2013-05-24 19:56:00,72.1,58.8,30.17,ESE,109,0.0,0.0,63,0.00,,---,0.00,VWS V14.00,2013-05-25 00:56:00,
2013-05-24 19:57:00,72.1,58.8,30.17,ESE,109,0.0,0.0,63,0.00,,---,0.00,VWS V14.00,2013-05-25 00:57:00,
2013-05-24 19:58:00,72.0,58.7,30.17,ESE,109,0.0,0.0,63,0.00,,---,0.00,VWS V14.00,2013-05-25 00:58:00,
2013-05-24 19:59:00,72.0,58.7,30.17,ESE,109,0.0,2.0,63,0.00,,---,0.00,VWS V14.00,2013-05-25 00:59:00,
2013-05-24 20:00:00,72.0,58.7,30.17,ESE,109,0.0,0.0,63,0.00,,---,0.00,VWS V14.00,2013-05-25 01:00:00,
2013-05-24 20:01:00,71.8,58.5,30.17,ESE,109,0.0,0.0,63,0.00,,---,0.00,VWS V14.00,2013-05-25 01:01:00,
2013-05-24 20:02:00,71.8,58.5,30.17,ESE,106,0.0,3.0,63,0.00,,---,0.00,VWS V14.00,2013-05-25 01:02:00,
2013-05-24 20:03:00,71.6,58.8,30.17,ESE,107,0.0,1.0,64,0.00,,---,0.00,VWS V14.00,2013-05-25 01:03:00,
2013-05-24 20:04:00,71.6,58.8,30.17,ESE,107,0.0,1.0,64,0.00,,---,0.00,VWS V14.00,2013-05-25 01:04:00,
2013-05-24 20:05:00,71.6,58.8,30.17,ESE,107,0.0,0.0,64,0.00,,---,0.00,VWS V14.00,2013-05-25 01:05:00,
2013-05-24 20:06:00,71.5,59.1,30.17,ESE,107,0.0,0.0,65,0.00,,---,0.00,VWS V14.00,2013-05-25 01:06:00,
2013-05-24 20:07:00,71.5,59.1,30.17,ESE,107,0.0,0.0,65,0.00,,---,0.00,VWS V14.00,2013-05-25 01:07:00,
2013-05-24 20:08:00,71.3,58.9,30.17,ESE,107,0.0,0.0,65,0.00,,---,0.00,VWS V14.00,2013-05-25 01:08:00,
2013-05-24 20:09:00,71.3,58.9,30.17,ESE,107,0.0,0.0,65,0.00,,---,0.00,VWS V14.00,2013-05-25 01:09:00,
2013-05-24 20:10:00,71.3,58.9,30.17,ESE,107,0.0,0.0,65,0.00,,---,0.00,VWS V14.00,2013-05-25 01:10:00,
2013-05-24 20:11:00,71.1,58.8,30.17,ESE,107,0.0,0.0,65,0.00,,---,0.00,VWS V14.00,2013-05-25 01:11:00,
2013-05-24 20:12:00,70.9,58.6,30.17,ESE,107,0.0,0.0,65,0.00,,---,0.00,VWS V14.00,2013-05-25 01:12:00,
2013-05-24 20:13:00,70.9,58.6,30.17,ESE,107,0.0,0.0,65,0.00,,---,0.00,VWS V14.00,2013-05-25 01:13:00,
2013-05-24 20:14:00,70.9,58.6,30.17,ESE,107,0.0,0.0,65,0.00,,---,0.00,VWS V14.00,2013-05-25 01:14:00,
2013-05-24 20:15:00,70.9,58.6,30.17,ESE,107,0.0,0.0,65,0.00,,---,0.00,VWS V14.00,2013-05-25 01:15:00,
2013-05-24 20:16:00,70.8,58.5,30.17,ESE,107,0.0,0.0,65,0.00,,---,0.00,VWS V14.00,2013-05-25 01:16:00,
2013-05-24 20:17:00,70.8,58.5,30.17,ESE,107,0.0,0.0,65,0.00,,---,0.00,VWS V14.00,2013-05-25 01:17:00,
2013-05-24 20:18:00,70.8,58.5,30.17,ESE,107,0.0,0.0,65,0.00,,---,0.00,VWS V14.00,2013-05-25 01:18:00,
2013-05-24 20:19:00,70.6,58.3,30.17,ESE,107,0.0,0.0,65,0.00,,---,0.00,VWS V14.00,2013-05-25 01:19:00,
2013-05-24 20:20:00,70.6,58.3,30.17,ESE,107,0.0,0.0,65,0.00,,---,0.00,VWS V14.00,2013-05-25 01:20:00,
2013-05-24 20:21:00,70.4,58.5,30.17,ESE,107,0.0,3.0,66,0.00,,---,0.00,VWS V14.00,2013-05-25 01:21:00,
2013-05-24 20:22:00,70.4,58.5,30.17,ESE,107,0.0,0.0,66,0.00,,---,0.00,VWS V14.00,2013-05-25 01:22:00,
2013-05-24 20:23:00,70.4,58.5,30.17,ESE,107,0.0,0.0,66,0.00,,---,0.00,VWS V14.00,2013-05-25 01:23:00,
2013-05-24 20:24:00,70.3,58.4,30.17,ESE,107,0.0,0.0,66,0.00,,---,0.00,VWS V14.00,2013-05-25 01:24:00,
2013-05-24 20:25:00,70.4,58.5,30.17,ESE,107,0.0,0.0,66,0.00,,---,0.00,VWS V14.00,2013-05-25 01:25:00,
2013-05-24 20:26:00,70.3,58.4,30.17,ESE,107,1.0,1.0,66,0.00,,---,0.00,VWS V14.00,2013-05-25 01:26:00,
2013-05-24 20:27:00,70.1,58.2,30.17,ESE,107,0.0,3.0,66,0.00,,---,0.00,VWS V14.00,2013-05-25 01:27:00,
2013-05-24 20:28:00,70.1,58.2,30.17,ESE,107,0.0,0.0,66,0.00,,---,0.00,VWS V14.00,2013-05-25 01:28:00,
2013-05-24 20:29:00,70.1,58.2,30.17,ESE,107,0.0,0.0,66,0.00,,---,0.00,VWS V14.00,2013-05-25 01:29:00,
2013-05-24 20:30:00,70.1,58.2,30.17,ESE,107,0.0,0.0,66,0.00,,---,0.00,VWS V14.00,2013-05-25 01:30:00,
2013-05-24 20:31:00,69.9,58.0,30.17,ESE,107,0.0,0.0,66,0.00,,---,0.00,VWS V14.00,2013-05-25 01:31:00,
2013-05-24 20:32:00,69.9,58.0,30.17,ESE,107,0.0,0.0,66,0.00,,---,0.00,VWS V14.00,2013-05-25 01:32:00,
2013-05-24 20:33:00,69.8,57.9,30.17,ESE,107,0.0,0.0,66,0.00,,---,0.00,VWS V14.00,2013-05-25 01:33:00,
2013-05-24 20:34:00,69.8,57.9,30.17,ESE,107,0.0,0.0,66,0.00,,---,0.00,VWS V14.00,2013-05-25 01:34:00,
2013-05-24 20:35:00,69.8,57.9,30.17,ESE,107,0.0,0.0,66,0.00,,---,0.00,VWS V14.00,2013-05-25 01:35:00,
2013-05-24 20:36:00,69.6,57.8,30.18,ESE,107,0.0,0.0,66,0.00,,---,0.00,VWS V14.00,2013-05-25 01:36:00,
2013-05-24 20:37:00,69.6,57.8,30.18,ESE,107,0.0,0.0,66,0.00,,---,0.00,VWS V14.00,2013-05-25 01:37:00,
2013-05-24 20:38:00,69.6,58.2,30.18,ESE,107,0.0,0.0,67,0.00,,---,0.00,VWS V14.00,2013-05-25 01:38:00,
2013-05-24 20:39:00,69.4,58.0,30.18,ESE,107,0.0,0.0,67,0.00,,---,0.00,VWS V14.00,2013-05-25 01:39:00,
2013-05-24 20:40:00,69.6,58.2,30.18,ESE,107,0.0,0.0,67,0.00,,---,0.00,VWS V14.00,2013-05-25 01:40:00,
2013-05-24 20:41:00,69.4,58.0,30.17,ESE,107,2.0,2.0,67,0.00,,---,0.00,VWS V14.00,2013-05-25 01:41:00,
2013-05-24 20:42:00,69.3,57.9,30.17,ESE,107,0.0,2.0,67,0.00,,---,0.00,VWS V14.00,2013-05-25 01:42:00,
2013-05-24 20:43:00,69.3,57.9,30.17,ESE,107,0.0,0.0,67,0.00,,---,0.00,VWS V14.00,2013-05-25 01:43:00,
2013-05-24 20:44:00,69.1,57.7,30.17,ESE,107,1.0,3.0,67,0.00,,---,0.00,VWS V14.00,2013-05-25 01:44:00,
2013-05-24 20:45:00,69.3,57.9,30.17,ESE,107,0.0,0.0,67,0.00,,---,0.00,VWS V14.00,2013-05-25 01:45:00,
2013-05-24 20:46:00,69.1,57.7,30.17,ESE,107,0.0,0.0,67,0.00,,---,0.00,VWS V14.00,2013-05-25 01:46:00,
2013-05-24 20:47:00,69.1,57.7,30.18,ESE,107,0.0,0.0,67,0.00,,---,0.00,VWS V14.00,2013-05-25 01:47:00,
2013-05-24 20:48:00,68.9,57.5,30.18,ESE,107,0.0,3.0,67,0.00,,---,0.00,VWS V14.00,2013-05-25 01:48:00,
2013-05-24 20:49:00,68.9,57.5,30.18,ESE,107,1.0,1.0,67,0.00,,---,0.00,VWS V14.00,2013-05-25 01:49:00,
2013-05-24 20:50:00,68.9,57.9,30.18,ESE,107,0.0,0.0,68,0.00,,---,0.00,VWS V14.00,2013-05-25 01:50:00,
2013-05-24 20:51:00,68.9,57.9,30.18,ESE,110,3.0,6.0,68,0.00,,---,0.00,VWS V14.00,2013-05-25 01:51:00,
2013-05-24 20:52:00,68.8,57.4,30.18,ESE,111,1.0,5.0,67,0.00,,---,0.00,VWS V14.00,2013-05-25 01:52:00,
2013-05-24 20:53:00,68.8,57.4,30.18,ESE,111,0.0,1.0,67,0.00,,---,0.00,VWS V14.00,2013-05-25 01:53:00,
2013-05-24 20:54:00,68.8,57.8,30.18,ESE,111,2.0,2.0,68,0.00,,---,0.00,VWS V14.00,2013-05-25 01:54:00,
2013-05-24 20:55:00,68.8,57.4,30.18,ESE,111,0.0,0.0,67,0.00,,---,0.00,VWS V14.00,2013-05-25 01:55:00,
2013-05-24 20:56:00,68.6,57.6,30.18,ESE,111,0.0,3.0,68,0.00,,---,0.00,VWS V14.00,2013-05-25 01:56:00,
2013-05-24 20:57:00,68.6,57.6,30.18,ESE,111,0.0,1.0,68,0.00,,---,0.00,VWS V14.00,2013-05-25 01:57:00,
2013-05-24 20:58:00,68.6,57.6,30.18,ESE,111,0.0,0.0,68,0.00,,---,0.00,VWS V14.00,2013-05-25 01:58:00,
2013-05-24 20:59:00,68.4,57.4,30.18,ESE,111,0.0,3.0,68,0.00,,---,0.00,VWS V14.00,2013-05-25 01:59:00,
2013-05-24 21:00:00,68.6,57.6,30.18,ESE,111,0.0,0.0,68,0.00,,---,0.00,VWS V14.00,2013-05-25 02:00:00,
2013-05-24 21:01:00,68.4,57.4,30.18,ESE,112,0.0,1.0,68,0.00,,---,0.00,VWS V14.00,2013-05-25 02:01:00,
2013-05-24 21:02:00,68.4,57.4,30.18,ESE,112,1.0,1.0,68,0.00,,---,0.00,VWS V14.00,2013-05-25 02:02:00,
2013-05-24 21:03:00,68.4,57.4,30.18,ESE,112,0.0,1.0,68,0.00,,---,0.00,VWS V14.00,2013-05-25 02:03:00,
2013-05-24 21:04:00,68.3,57.3,30.18,ESE,112,0.0,0.0,68,0.00,,---,0.00,VWS V14.00,2013-05-25 02:04:00,
2013-05-24 21:05:00,68.3,57.3,30.18,ESE,112,0.0,0.0,68,0.00,,---,0.00,VWS V14.00,2013-05-25 02:05:00,
2013-05-24 21:06:00,68.3,57.3,30.18,ESE,112,0.0,0.0,68,0.00,,---,0.00,VWS V14.00,2013-05-25 02:06:00,
2013-05-24 21:07:00,68.3,57.3,30.18,ESE,112,0.0,0.0,68,0.00,,---,0.00,VWS V14.00,2013-05-25 02:07:00,
2013-05-24 21:08:00,68.3,57.3,30.18,ESE,112,0.0,3.0,68,0.00,,---,0.00,VWS V14.00,2013-05-25 02:08:00,
2013-05-24 21:09:00,68.3,57.3,30.18,ESE,112,0.0,2.0,68,0.00,,---,0.00,VWS V14.00,2013-05-25 02:09:00,
2013-05-24 21:10:00,68.3,57.3,30.18,ESE,112,2.0,2.0,68,0.00,,---,0.00,VWS V14.00,2013-05-25 02:10:00,
2013-05-24 21:11:00,68.1,57.2,30.18,ESE,112,0.0,0.0,68,0.00,,---,0.00,VWS V14.00,2013-05-25 02:11:00,
2013-05-24 21:12:00,68.1,57.2,30.18,ESE,112,0.0,0.0,68,0.00,,---,0.00,VWS V14.00,2013-05-25 02:12:00,
2013-05-24 21:13:00,68.1,57.2,30.18,ESE,112,0.0,0.0,68,0.00,,---,0.00,VWS V14.00,2013-05-25 02:13:00,
2013-05-24 21:14:00,68.1,57.2,30.18,ESE,112,0.0,0.0,68,0.00,,---,0.00,VWS V14.00,2013-05-25 02:14:00,
2013-05-24 21:15:00,68.1,57.2,30.18,ESE,112,0.0,0.0,68,0.00,,---,0.00,VWS V14.00,2013-05-25 02:15:00,
2013-05-24 21:16:00,67.9,57.0,30.18,ESE,112,0.0,0.0,68,0.00,,---,0.00,VWS V14.00,2013-05-25 02:16:00,
2013-05-24 21:17:00,67.9,57.0,30.18,ESE,112,0.0,0.0,68,0.00,,---,0.00,VWS V14.00,2013-05-25 02:17:00,
2013-05-24 21:18:00,67.9,57.4,30.19,ESE,112,0.0,0.0,69,0.00,,---,0.00,VWS V14.00,2013-05-25 02:18:00,
2013-05-24 21:19:00,67.8,57.3,30.19,ESE,112,0.0,0.0,69,0.00,,---,0.00,VWS V14.00,2013-05-25 02:19:00,
2013-05-24 21:20:00,67.9,57.4,30.19,ESE,112,0.0,0.0,69,0.00,,---,0.00,VWS V14.00,2013-05-25 02:20:00,
2013-05-24 21:21:00,67.8,57.3,30.19,ESE,112,0.0,0.0,69,0.00,,---,0.00,VWS V14.00,2013-05-25 02:21:00,
2013-05-24 21:22:00,67.8,57.3,30.19,ESE,112,0.0,0.0,69,0.00,,---,0.00,VWS V14.00,2013-05-25 02:22:00,
2013-05-24 21:23:00,67.6,57.1,30.19,ESE,112,0.0,0.0,69,0.00,,---,0.00,VWS V14.00,2013-05-25 02:23:00,
2013-05-24 21:24:00,67.6,57.1,30.19,ESE,112,0.0,0.0,69,0.00,,---,0.00,VWS V14.00,2013-05-25 02:24:00,
2013-05-24 21:25:00,67.6,57.1,30.19,ESE,112,0.0,0.0,69,0.00,,---,0.00,VWS V14.00,2013-05-25 02:25:00,
2013-05-24 21:26:00,67.6,57.1,30.19,ESE,112,0.0,0.0,69,0.00,,---,0.00,VWS V14.00,2013-05-25 02:26:00,
2013-05-24 21:27:00,67.4,56.9,30.20,ESE,112,0.0,0.0,69,0.00,,---,0.00,VWS V14.00,2013-05-25 02:27:00,
2013-05-24 21:28:00,67.4,56.9,30.20,ESE,112,0.0,0.0,69,0.00,,---,0.00,VWS V14.00,2013-05-25 02:28:00,
2013-05-24 21:29:00,67.4,56.9,30.20,ESE,112,0.0,0.0,69,0.00,,---,0.00,VWS V14.00,2013-05-25 02:29:00,
2013-05-24 21:30:00,67.4,56.9,30.20,ESE,112,0.0,0.0,69,0.00,,---,0.00,VWS V14.00,2013-05-25 02:30:00,
2013-05-24 21:31:00,67.3,56.8,30.20,ESE,112,0.0,0.0,69,0.00,,---,0.00,VWS V14.00,2013-05-25 02:31:00,
2013-05-24 21:32:00,67.3,56.8,30.20,ESE,112,0.0,0.0,69,0.00,,---,0.00,VWS V14.00,2013-05-25 02:32:00,
2013-05-24 21:33:00,67.3,56.8,30.20,ESE,112,0.0,0.0,69,0.00,,---,0.00,VWS V14.00,2013-05-25 02:33:00,
2013-05-24 21:34:00,67.3,56.8,30.20,ESE,112,0.0,0.0,69,0.00,,---,0.00,VWS V14.00,2013-05-25 02:34:00,
2013-05-24 21:35:00,67.3,56.8,30.20,ESE,112,0.0,0.0,69,0.00,,---,0.00,VWS V14.00,2013-05-25 02:35:00,
2013-05-24 21:36:00,67.1,57.0,30.20,ESE,112,0.0,0.0,70,0.00,,---,0.00,VWS V14.00,2013-05-25 02:36:00,
2013-05-24 21:37:00,67.1,56.6,30.20,ESE,112,0.0,0.0,69,0.00,,---,0.00,VWS V14.00,2013-05-25 02:37:00,
2013-05-24 21:38:00,67.1,56.6,30.20,ESE,112,0.0,0.0,69,0.00,,---,0.00,VWS V14.00,2013-05-25 02:38:00,
2013-05-24 21:39:00,67.1,56.6,30.20,ESE,112,0.0,0.0,69,0.00,,---,0.00,VWS V14.00,2013-05-25 02:39:00,
2013-05-24 21:40:00,67.1,56.6,30.20,ESE,112,0.0,0.0,69,0.00,,---,0.00,VWS V14.00,2013-05-25 02:40:00,
2013-05-24 21:41:00,66.9,56.4,30.20,ESE,112,0.0,0.0,69,0.00,,---,0.00,VWS V14.00,2013-05-25 02:41:00,
2013-05-24 21:42:00,66.9,56.4,30.20,ESE,112,0.0,0.0,69,0.00,,---,0.00,VWS V14.00,2013-05-25 02:42:00,
2013-05-24 21:43:00,66.9,56.8,30.20,ESE,112,0.0,0.0,70,0.00,,---,0.00,VWS V14.00,2013-05-25 02:43:00,
2013-05-24 21:44:00,66.9,56.8,30.20,ESE,112,0.0,0.0,70,0.00,,---,0.00,VWS V14.00,2013-05-25 02:44:00,
2013-05-24 21:45:00,66.9,56.8,30.20,ESE,112,0.0,0.0,70,0.00,,---,0.00,VWS V14.00,2013-05-25 02:45:00,
2013-05-24 21:46:00,66.8,56.7,30.20,ESE,112,0.0,0.0,70,0.00,,---,0.00,VWS V14.00,2013-05-25 02:46:00,
2013-05-24 21:47:00,66.8,56.7,30.20,ESE,112,0.0,0.0,70,0.00,,---,0.00,VWS V14.00,2013-05-25 02:47:00,
2013-05-24 21:48:00,66.8,56.7,30.20,ESE,112,0.0,0.0,70,0.00,,---,0.00,VWS V14.00,2013-05-25 02:48:00,
2013-05-24 21:49:00,66.6,56.5,30.20,ESE,112,0.0,0.0,70,0.00,,---,0.00,VWS V14.00,2013-05-25 02:49:00,
2013-05-24 21:50:00,66.8,56.7,30.20,ESE,112,0.0,0.0,70,0.00,,---,0.00,VWS V14.00,2013-05-25 02:50:00,
2013-05-24 21:51:00,66.6,56.5,30.20,ESE,112,0.0,0.0,70,0.00,,---,0.00,VWS V14.00,2013-05-25 02:51:00,
2013-05-24 21:52:00,66.6,56.5,30.20,ESE,112,0.0,0.0,70,0.00,,---,0.00,VWS V14.00,2013-05-25 02:52:00,
2013-05-24 21:53:00,66.4,56.3,30.21,ESE,112,0.0,0.0,70,0.00,,---,0.00,VWS V14.00,2013-05-25 02:53:00,
2013-05-24 21:54:00,66.4,56.3,30.21,ESE,112,0.0,0.0,70,0.00,,---,0.00,VWS V14.00,2013-05-25 02:54:00,
2013-05-24 21:55:00,66.4,56.3,30.21,ESE,112,0.0,0.0,70,0.00,,---,0.00,VWS V14.00,2013-05-25 02:55:00,
2013-05-24 21:56:00,66.4,56.3,30.21,ESE,112,0.0,0.0,70,0.00,,---,0.00,VWS V14.00,2013-05-25 02:56:00,
2013-05-24 21:57:00,66.3,56.2,30.21,ESE,112,0.0,0.0,70,0.00,,---,0.00,VWS V14.00,2013-05-25 02:57:00,
2013-05-24 21:58:00,66.3,56.2,30.21,ESE,112,0.0,0.0,70,0.00,,---,0.00,VWS V14.00,2013-05-25 02:58:00,
2013-05-24 21:59:00,66.3,56.6,30.21,ESE,112,0.0,0.0,71,0.00,,---,0.00,VWS V14.00,2013-05-25 02:59:00,
2013-05-24 22:00:00,66.3,56.6,30.21,ESE,112,0.0,0.0,71,0.00,,---,0.00,VWS V14.00,2013-05-25 03:00:00,
2013-05-24 22:01:00,66.1,56.0,30.21,ESE,112,0.0,0.0,70,0.00,,---,0.00,VWS V14.00,2013-05-25 03:01:00,
2013-05-24 22:02:00,66.1,56.4,30.21,ESE,112,0.0,0.0,71,0.00,,---,0.00,VWS V14.00,2013-05-25 03:02:00,
2013-05-24 22:03:00,66.1,56.4,30.21,ESE,112,0.0,0.0,71,0.00,,---,0.00,VWS V14.00,2013-05-25 03:03:00,
2013-05-24 22:04:00,66.1,56.4,30.21,ESE,112,0.0,0.0,71,0.00,,---,0.00,VWS V14.00,2013-05-25 03:04:00,
2013-05-24 22:05:00,66.1,56.4,30.21,ESE,112,0.0,0.0,71,0.00,,---,0.00,VWS V14.00,2013-05-25 03:05:00,
2013-05-24 22:06:00,66.0,56.3,30.21,ESE,112,0.0,0.0,71,0.00,,---,0.00,VWS V14.00,2013-05-25 03:06:00,
2013-05-24 22:07:00,66.0,56.3,30.21,ESE,112,0.0,0.0,71,0.00,,---,0.00,VWS V14.00,2013-05-25 03:07:00,
2013-05-24 22:08:00,66.0,56.3,30.21,ESE,112,0.0,0.0,71,0.00,,---,0.00,VWS V14.00,2013-05-25 03:08:00,
2013-05-24 22:09:00,66.0,56.3,30.21,ESE,112,0.0,0.0,71,0.00,,---,0.00,VWS V14.00,2013-05-25 03:09:00,
2013-05-24 22:10:00,66.0,56.3,30.21,ESE,112,0.0,0.0,71,0.00,,---,0.00,VWS V14.00,2013-05-25 03:10:00,
2013-05-24 22:11:00,65.8,56.2,30.21,ESE,112,0.0,0.0,71,0.00,,---,0.00,VWS V14.00,2013-05-25 03:11:00,
2013-05-24 22:12:00,65.8,56.2,30.21,ESE,112,0.0,0.0,71,0.00,,---,0.00,VWS V14.00,2013-05-25 03:12:00,
2013-05-24 22:13:00,65.8,56.5,30.21,ESE,112,0.0,0.0,72,0.00,,---,0.00,VWS V14.00,2013-05-25 03:13:00,
2013-05-24 22:14:00,65.8,56.5,30.21,ESE,112,0.0,0.0,72,0.00,,---,0.00,VWS V14.00,2013-05-25 03:14:00,
2013-05-24 22:15:00,65.8,56.5,30.21,ESE,112,0.0,0.0,72,0.00,,---,0.00,VWS V14.00,2013-05-25 03:15:00,
2013-05-24 22:16:00,65.6,56.0,30.21,ESE,112,0.0,0.0,71,0.00,,---,0.00,VWS V14.00,2013-05-25 03:16:00,
2013-05-24 22:17:00,65.6,56.0,30.21,ESE,112,0.0,0.0,71,0.00,,---,0.00,VWS V14.00,2013-05-25 03:17:00,
2013-05-24 22:18:00,65.6,56.3,30.21,ESE,112,0.0,0.0,72,0.00,,---,0.00,VWS V14.00,2013-05-25 03:18:00,
2013-05-24 22:19:00,65.6,56.3,30.21,ESE,112,0.0,0.0,72,0.00,,---,0.00,VWS V14.00,2013-05-25 03:19:00,
2013-05-24 22:20:00,65.6,56.3,30.21,ESE,112,0.0,0.0,72,0.00,,---,0.00,VWS V14.00,2013-05-25 03:20:00,
2013-05-24 22:21:00,65.6,56.3,30.21,ESE,112,0.0,0.0,72,0.00,,---,0.00,VWS V14.00,2013-05-25 03:21:00,
2013-05-24 22:22:00,65.5,56.2,30.21,ESE,112,0.0,0.0,72,0.00,,---,0.00,VWS V14.00,2013-05-25 03:22:00,
2013-05-24 22:23:00,65.5,56.2,30.21,ESE,112,0.0,0.0,72,0.00,,---,0.00,VWS V14.00,2013-05-25 03:23:00,
2013-05-24 22:24:00,65.5,56.2,30.21,ESE,112,0.0,0.0,72,0.00,,---,0.00,VWS V14.00,2013-05-25 03:24:00,
2013-05-24 22:25:00,65.5,56.2,30.21,ESE,112,0.0,0.0,72,0.00,,---,0.00,VWS V14.00,2013-05-25 03:25:00,
2013-05-24 22:26:00,65.5,56.2,30.21,ESE,112,0.0,0.0,72,0.00,,---,0.00,VWS V14.00,2013-05-25 03:26:00,
2013-05-24 22:27:00,65.6,56.0,30.21,ESE,112,0.0,0.0,71,0.00,,---,0.00,VWS V14.00,2013-05-25 03:27:00,
2013-05-24 22:28:00,65.6,55.6,30.21,ESE,112,0.0,0.0,70,0.00,,---,0.00,VWS V14.00,2013-05-25 03:28:00,
2013-05-24 22:29:00,65.6,56.0,30.21,ESE,112,0.0,0.0,71,0.00,,---,0.00,VWS V14.00,2013-05-25 03:29:00,
2013-05-24 22:30:00,65.6,56.0,30.21,ESE,112,0.0,0.0,71,0.00,,---,0.00,VWS V14.00,2013-05-25 03:30:00,
2013-05-24 22:31:00,65.6,56.0,30.21,ESE,112,0.0,0.0,71,0.00,,---,0.00,VWS V14.00,2013-05-25 03:31:00,
2013-05-24 22:32:00,65.6,56.3,30.21,ESE,112,0.0,0.0,72,0.00,,---,0.00,VWS V14.00,2013-05-25 03:32:00,
2013-05-24 22:33:00,65.6,56.0,30.21,ESE,112,0.0,0.0,71,0.00,,---,0.00,VWS V14.00,2013-05-25 03:33:00,
2013-05-24 22:34:00,65.5,55.9,30.21,ESE,112,0.0,0.0,71,0.00,,---,0.00,VWS V14.00,2013-05-25 03:34:00,
2013-05-24 22:35:00,65.6,56.0,30.21,ESE,112,0.0,0.0,71,0.00,,---,0.00,VWS V14.00,2013-05-25 03:35:00,
2013-05-24 22:36:00,65.5,55.9,30.21,ESE,112,0.0,0.0,71,0.00,,---,0.00,VWS V14.00,2013-05-25 03:36:00,
2013-05-24 22:37:00,65.5,55.9,30.21,ESE,112,0.0,0.0,71,0.00,,---,0.00,VWS V14.00,2013-05-25 03:37:00,
2013-05-24 22:38:00,65.3,55.7,30.21,ESE,112,0.0,0.0,71,0.00,,---,0.00,VWS V14.00,2013-05-25 03:38:00,
2013-05-24 22:39:00,65.3,55.7,30.22,ESE,112,0.0,0.0,71,0.00,,---,0.00,VWS V14.00,2013-05-25 03:39:00,
2013-05-24 22:40:00,65.3,55.7,30.21,ESE,112,0.0,0.0,71,0.00,,---,0.00,VWS V14.00,2013-05-25 03:40:00,
2013-05-24 22:41:00,65.2,56.3,30.22,ESE,112,0.0,0.0,73,0.00,,---,0.00,VWS V14.00,2013-05-25 03:41:00,
2013-05-24 22:42:00,65.2,56.3,30.22,ESE,112,0.0,0.0,73,0.00,,---,0.00,VWS V14.00,2013-05-25 03:42:00,
2013-05-24 22:43:00,65.0,56.2,30.22,ESE,112,0.0,0.0,73,0.00,,---,0.00,VWS V14.00,2013-05-25 03:43:00,
2013-05-24 22:44:00,65.0,56.2,30.22,ESE,112,0.0,0.0,73,0.00,,---,0.00,VWS V14.00,2013-05-25 03:44:00,
2013-05-24 22:45:00,65.0,56.2,30.22,ESE,112,0.0,0.0,73,0.00,,---,0.00,VWS V14.00,2013-05-25 03:45:00,
2013-05-24 22:46:00,65.0,56.2,30.22,ESE,112,0.0,0.0,73,0.00,,---,0.00,VWS V14.00,2013-05-25 03:46:00,
2013-05-24 22:47:00,65.0,55.8,30.22,ESE,112,0.0,0.0,72,0.00,,---,0.00,VWS V14.00,2013-05-25 03:47:00,
2013-05-24 22:48:00,65.0,55.0,30.22,ESE,112,0.0,0.0,70,0.00,,---,0.00,VWS V14.00,2013-05-25 03:48:00,
2013-05-24 22:49:00,65.2,56.0,30.21,ESE,112,0.0,0.0,72,0.00,,---,0.00,VWS V14.00,2013-05-25 03:49:00,
2013-05-24 22:50:00,65.0,55.0,30.22,ESE,112,0.0,0.0,70,0.00,,---,0.00,VWS V14.00,2013-05-25 03:50:00,
2013-05-24 22:51:00,65.0,55.8,30.21,ESE,112,0.0,0.0,72,0.00,,---,0.00,VWS V14.00,2013-05-25 03:51:00,
2013-05-24 22:52:00,64.8,56.0,30.21,ESE,112,0.0,0.0,73,0.00,,---,0.00,VWS V14.00,2013-05-25 03:52:00,
2013-05-24 22:53:00,64.8,56.0,30.21,ESE,112,0.0,0.0,73,0.00,,---,0.00,VWS V14.00,2013-05-25 03:53:00,
2013-05-24 22:54:00,64.8,56.3,30.21,ESE,112,0.0,0.0,74,0.00,,---,0.00,VWS V14.00,2013-05-25 03:54:00,
2013-05-24 22:55:00,64.8,56.0,30.21,ESE,112,0.0,0.0,73,0.00,,---,0.00,VWS V14.00,2013-05-25 03:55:00,
2013-05-24 22:56:00,64.7,56.2,30.21,ESE,112,0.0,0.0,74,0.00,,---,0.00,VWS V14.00,2013-05-25 03:56:00,
2013-05-24 22:57:00,64.7,56.2,30.21,ESE,112,0.0,0.0,74,0.00,,---,0.00,VWS V14.00,2013-05-25 03:57:00,
2013-05-24 22:58:00,64.5,55.3,30.22,ESE,113,0.0,0.0,72,0.00,,---,0.00,VWS V14.00,2013-05-25 03:58:00,
2013-05-24 22:59:00,64.7,55.1,30.22,ESE,113,0.0,0.0,71,0.00,,---,0.00,VWS V14.00,2013-05-25 03:59:00,
2013-05-24 23:00:00,64.5,55.3,30.22,ESE,113,0.0,0.0,72,0.00,,---,0.00,VWS V14.00,2013-05-25 04:00:00,
2013-05-24 23:01:00,64.5,55.3,30.22,ESE,113,0.0,0.0,72,0.00,,---,0.00,VWS V14.00,2013-05-25 04:01:00,
2013-05-24 23:02:00,64.8,55.6,30.21,ESE,114,6.0,6.0,72,0.00,,---,0.00,VWS V14.00,2013-05-25 04:02:00,
2013-05-24 23:03:00,64.8,55.2,30.21,ESE,115,3.0,7.0,71,0.00,,---,0.00,VWS V14.00,2013-05-25 04:03:00,
2013-05-24 23:04:00,64.8,55.2,30.21,ESE,116,0.0,8.0,71,0.00,,---,0.00,VWS V14.00,2013-05-25 04:04:00,
2013-05-24 23:05:00,64.8,54.8,30.21,ESE,117,5.0,9.0,70,0.00,,---,0.00,VWS V14.00,2013-05-25 04:05:00,
2013-05-24 23:06:00,64.8,55.2,30.21,ESE,116,3.0,3.0,71,0.00,,---,0.00,VWS V14.00,2013-05-25 04:06:00,
2013-05-24 23:07:00,64.8,54.8,30.21,ESE,119,9.0,10.0,70,0.00,,---,0.00,VWS V14.00,2013-05-25 04:07:00,
2013-05-24 23:08:00,65.0,54.6,30.21,ESE,122,6.0,11.0,69,0.00,,---,0.00,VWS V14.00,2013-05-25 04:08:00,
2013-05-24 23:09:00,65.0,54.6,30.21,ESE,122,8.0,10.0,69,0.00,,---,0.00,VWS V14.00,2013-05-25 04:09:00,
2013-05-24 23:10:00,65.0,54.6,30.21,ESE,122,5.0,9.0,69,0.00,,---,0.00,VWS V14.00,2013-05-25 04:10:00,
2013-05-24 23:11:00,65.0,54.2,30.21,ESE,122,6.0,8.0,68,0.00,,---,0.00,VWS V14.00,2013-05-25 04:11:00,
2013-05-24 23:12:00,65.0,54.2,30.21,ESE,122,9.0,9.0,68,0.00,,---,0.00,VWS V14.00,2013-05-25 04:12:00,
2013-05-24 23:13:00,65.0,53.8,30.21,ESE,122,7.0,10.0,67,0.00,,---,0.00,VWS V14.00,2013-05-25 04:13:00,
2013-05-24 23:14:00,65.0,53.8,30.20,ESE,123,7.0,7.0,67,0.00,,---,0.00,VWS V14.00,2013-05-25 04:14:00,
2013-05-24 23:15:00,65.0,53.8,30.20,ESE,122,6.0,9.0,67,0.00,,---,0.00,VWS V14.00,2013-05-25 04:15:00,
2013-05-24 23:16:00,65.0,53.8,30.20,ESE,123,6.0,7.0,67,0.00,,---,0.00,VWS V14.00,2013-05-25 04:16:00,
2013-05-24 23:17:00,65.2,53.6,30.20,ESE,122,9.0,10.0,66,0.00,,---,0.00,VWS V14.00,2013-05-25 04:17:00,
2013-05-24 23:18:00,65.2,53.6,30.21,ESE,122,3.0,9.0,66,0.00,,---,0.00,VWS V14.00,2013-05-25 04:18:00,
2013-05-24 23:19:00,65.0,53.8,30.21,ESE,123,5.0,6.0,67,0.00,,---,0.00,VWS V14.00,2013-05-25 04:19:00,
2013-05-24 23:20:00,65.0,53.8,30.21,ESE,123,6.0,7.0,67,0.00,,---,0.00,VWS V14.00,2013-05-25 04:20:00,
2013-05-24 23:21:00,65.0,53.8,30.21,ESE,123,6.0,7.0,67,0.00,,---,0.00,VWS V14.00,2013-05-25 04:21:00,
2013-05-24 23:22:00,65.0,53.8,30.21,ESE,123,5.0,7.0,67,0.00,,---,0.00,VWS V14.00,2013-05-25 04:22:00,
2013-05-24 23:23:00,65.0,53.8,30.21,ESE,123,6.0,7.0,67,0.00,,---,0.00,VWS V14.00,2013-05-25 04:23:00,
2013-05-24 23:24:00,64.8,53.6,30.21,ESE,123,5.0,6.0,67,0.00,,---,0.00,VWS V14.00,2013-05-25 04:24:00,
2013-05-24 23:25:00,64.8,54.0,30.21,ESE,123,6.0,6.0,68,0.00,,---,0.00,VWS V14.00,2013-05-25 04:25:00,
2013-05-24 23:26:00,64.8,53.6,30.21,ESE,123,4.0,5.0,67,0.00,,---,0.00,VWS V14.00,2013-05-25 04:26:00,
2013-05-24 23:27:00,64.7,52.7,30.21,ESE,122,6.0,10.0,65,0.00,,---,0.00,VWS V14.00,2013-05-25 04:27:00,
2013-05-24 23:28:00,64.8,53.2,30.21,ESE,122,4.0,6.0,66,0.00,,---,0.00,VWS V14.00,2013-05-25 04:28:00,
2013-05-24 23:29:00,64.7,52.7,30.21,ESE,122,5.0,7.0,65,0.00,,---,0.00,VWS V14.00,2013-05-25 04:29:00,
2013-05-24 23:30:00,64.7,53.1,30.21,ESE,122,5.0,9.0,66,0.00,,---,0.00,VWS V14.00,2013-05-25 04:30:00,
2013-05-24 23:31:00,64.7,52.7,30.21,ESE,122,8.0,9.0,65,0.00,,---,0.00,VWS V14.00,2013-05-25 04:31:00,
2013-05-24 23:32:00,64.7,52.7,30.21,ESE,122,5.0,7.0,65,0.00,,---,0.00,VWS V14.00,2013-05-25 04:32:00,
2013-05-24 23:33:00,64.7,53.1,30.21,ESE,122,5.0,6.0,66,0.00,,---,0.00,VWS V14.00,2013-05-25 04:33:00,
2013-05-24 23:34:00,64.7,53.1,30.21,ESE,122,6.0,7.0,66,0.00,,---,0.00,VWS V14.00,2013-05-25 04:34:00,
2013-05-24 23:35:00,64.5,52.5,30.21,ESE,122,3.0,6.0,65,0.00,,---,0.00,VWS V14.00,2013-05-25 04:35:00,
2013-05-24 23:36:00,64.7,53.1,30.21,ESE,121,4.0,6.0,66,0.00,,---,0.00,VWS V14.00,2013-05-25 04:36:00,
2013-05-24 23:37:00,64.5,52.5,30.21,ESE,121,2.0,5.0,65,0.00,,---,0.00,VWS V14.00,2013-05-25 04:37:00,
2013-05-24 23:38:00,64.5,52.5,30.21,ESE,122,2.0,4.0,65,0.00,,---,0.00,VWS V14.00,2013-05-25 04:38:00,
2013-05-24 23:39:00,64.5,52.5,30.21,ESE,122,2.0,5.0,65,0.00,,---,0.00,VWS V14.00,2013-05-25 04:39:00,
2013-05-24 23:40:00,64.5,52.9,30.21,ESE,122,2.0,3.0,66,0.00,,---,0.00,VWS V14.00,2013-05-25 04:40:00,
2013-05-24 23:41:00,64.5,52.5,30.21,ESE,122,0.0,3.0,65,0.00,,---,0.00,VWS V14.00,2013-05-25 04:41:00,
2013-05-24 23:42:00,64.3,52.7,30.21,ESE,122,5.0,5.0,66,0.00,,---,0.00,VWS V14.00,2013-05-25 04:42:00,
2013-05-24 23:43:00,64.3,52.7,30.21,ESE,121,4.0,5.0,66,0.00,,---,0.00,VWS V14.00,2013-05-25 04:43:00,
2013-05-24 23:44:00,64.3,52.7,30.21,ESE,122,2.0,4.0,66,0.00,,---,0.00,VWS V14.00,2013-05-25 04:44:00,
2013-05-24 23:45:00,64.3,53.1,30.21,ESE,122,2.0,4.0,67,0.00,,---,0.00,VWS V14.00,2013-05-25 04:45:00,
2013-05-24 23:46:00,64.3,52.7,30.21,ESE,122,2.0,4.0,66,0.00,,---,0.00,VWS V14.00,2013-05-25 04:46:00,
2013-05-24 23:47:00,64.2,52.6,30.21,ESE,122,3.0,5.0,66,0.00,,---,0.00,VWS V14.00,2013-05-25 04:47:00,
2013-05-24 23:48:00,64.2,52.6,30.22,ESE,122,3.0,4.0,66,0.00,,---,0.00,VWS V14.00,2013-05-25 04:48:00,
2013-05-24 23:49:00,64.2,52.6,30.22,ESE,121,6.0,6.0,66,0.00,,---,0.00,VWS V14.00,2013-05-25 04:49:00,
2013-05-24 23:50:00,64.2,53.0,30.22,ESE,122,3.0,6.0,67,0.00,,---,0.00,VWS V14.00,2013-05-25 04:50:00,
2013-05-24 23:51:00,64.2,53.0,30.22,ESE,122,4.0,6.0,67,0.00,,---,0.00,VWS V14.00,2013-05-25 04:51:00,
2013-05-24 23:52:00,64.0,52.4,30.22,ESE,122,7.0,9.0,66,0.00,,---,0.00,VWS V14.00,2013-05-25 04:52:00,
2013-05-24 23:53:00,64.0,52.4,30.22,ESE,122,2.0,9.0,66,0.00,,---,0.00,VWS V14.00,2013-05-25 04:53:00,
2013-05-24 23:54:00,64.0,53.2,30.22,ESE,122,5.0,6.0,68,0.00,,---,0.00,VWS V14.00,2013-05-25 04:54:00,
2013-05-24 23:55:00,64.0,52.8,30.22,ESE,121,4.0,7.0,67,0.00,,---,0.00,VWS V14.00,2013-05-25 04:55:00,
2013-05-24 23:56:00,64.0,53.2,30.22,ESE,122,5.0,6.0,68,0.00,,---,0.00,VWS V14.00,2013-05-25 04:56:00,
2013-05-24 23:57:00,63.9,52.7,30.22,ESE,121,6.0,7.0,67,0.00,,---,0.00,VWS V14.00,2013-05-25 04:57:00,
2013-05-24 23:58:00,63.9,52.3,30.22,ESE,121,6.0,7.0,66,0.00,,---,0.00,VWS V14.00,2013-05-25 04:58:00,
2013-05-24 23:59:00,64.0,52.4,30.22,ESE,121,4.0,7.0,66,0.00,,---,0.00,VWS V14.00,2013-05-25 04:59:00,